[[{"header":{"parameterUnit":"m.s-1","parameterCategory":1,"la1":31.0,"la2":29.5877,"lo1":-88.7671,"lo2":-86.6584,"dy":0.0162,"dx":0.0185,"nx":115,"ny":88,"refTime":"2023-06-04T18:00:00:Z","depth":0,"parameterNumber":2,"parameterNumberName":"U-component_of_WINDS"},"data":[0.0,0.0,0.0,0.0,0.0,0.0,0.0,0.0,0.0,0.0,0.0,0.0,0.0,0.0,0.0,0.0,0.0,0.0,0.0,0.0,0.0,0.0,0.0,0.0,0.0,0.0,0.0,0.0,0.0,0.0,0.0,0.0,0.0,0.0,0.0,0.0,0.0,0.0,0.0,0.0,0.0,0.0,0.0,0.0,0.0,0.0,0.0,0.0,0.0,0.0,0.0,0.0,0.0,0.0,0.0,0.0,0.0,0.0,0.0,0.0,0.0,0.0,0.0,0.0,0.0,0.0,0.0,0.0,0.0,0.0,0.0,0.0,0.0,0.0,0.0,0.0,0.0,0.0,0.0,0.0,0.0,0.0,0.0,0.0,0.0,0.0,0.0,0.0,0.0,0.0,0.0,0.0,0.0,0.0,0.0,0.0,0.0,0.0,0.0,0.0,0.0,0.0,0.0,0.0,0.0,0.0,0.0,0.0,0.0,0.0,0.0,0.0,0.0,0.0,0.0,0.0,0.0,0.0,0.0,0.0,0.0,0.0,0.0,0.0,0.0,0.0,0.0,0.0,0.0,0.0,0.0,0.0,0.0,0.0,0.0,0.0,0.0,0.0,0.0,0.0,0.0,0.0,0.0,0.0,0.0,0.0,0.0,0.0,0.0,0.0,0.0,0.0,0.0,0.0,0.0,0.0,0.0,0.0,0.0,0.0,0.0,0.0,0.0,0.0,0.0,0.0,0.0,0.0,0.0,0.0,0.0,0.0,0.0,0.0,0.0,0.0,0.0,0.0,0.0,0.0,0.0,0.0,0.0,0.0,0.0,0.0,0.0,0.0,0.0,0.0,0.0,0.0,0.0,0.0,0.0,0.0,0.0,0.0,0.0,0.0,0.0,0.0,0.0,0.0,0.0,0.0,0.0,0.0,0.0,0.0,0.0,0.0,0.0,0.0,0.0,0.0,0.0,0.0,0.0,0.0,0.0,0.0,0.0,0.0,0.0,0.0,0.0,0.0,0.0,0.0,0.0,0.0,0.0,0.0,0.0,0.0,0.0,0.0,0.0,0.0,0.0,0.0,0.0,0.0,0.0,0.0,0.0,0.0,0.0,0.0,0.0,0.0,0.0,0.0,0.0,0.0,0.0,0.0,0.0,0.0,0.0,0.0,0.0,0.0,0.0,0.0,0.0,0.0,0.0,0.0,0.0,0.0,0.0,0.0,0.0,0.0,0.0,0.0,0.0,0.0,0.0,0.0,0.0,0.0,0.0,0.0,0.0,0.0,0.0,0.0,0.0,0.0,0.0,0.0,0.0,0.0,0.0,0.0,0.0,0.0,0.0,0.0,0.0,0.0,0.0,0.0,0.0,0.0,0.0,0.0,0.0,0.0,0.0,0.0,0.0,0.0,0.0,0.0,0.0,0.0,0.0,0.0,0.0,0.0,0.0,0.0,0.0,0.0,0.0,0.0,0.0,0.0,0.0,0.0,0.0,0.0,0.0,0.0,0.0,0.0,0.0,0.0,0.0,0.0,0.0,0.0,0.0,0.0,0.0,0.0,0.0,0.0,0.0,0.0,0.0,0.0,0.0,0.0,0.0,0.0,0.0,0.0,0.0,0.0,0.0,0.0,0.0,0.0,0.0,0.0,0.0,0.0,0.0,0.0,0.0,0.0,0.0,0.0,0.0,0.0,0.0,0.0,0.0,0.0,0.0,0.0,0.0,0.0,0.0,0.0,0.0,0.0,0.0,0.0,0.0,0.0,0.0,0.0,0.0,0.0,0.0,0.0,0.0,0.0,0.0,0.0,0.0,0.0,0.0,0.0,0.0,0.0,0.0,0.0,0.0,0.0,0.0,0.0,0.0,0.0,0.0,0.0,0.0,0.0,0.0,0.0,0.0,0.0,0.0,0.0,0.0,0.0,0.0,0.0,0.0,0.0,0.0,0.0,0.0,0.0,0.0,0.0,0.0,0.0,0.0,0.0,0.0,0.0,0.0,0.0,0.0,0.0,0.0,0.0,0.0,0.0,0.0,0.0,0.0,0.0,0.0,0.0,0.0,0.0,0.0,0.0,0.0,0.0,0.0,0.0,0.0,0.0,0.0,0.0,0.0,0.0,0.0,0.0,0.0,0.0,0.0,0.0,0.0,0.0,0.0,0.0,0.0,0.0,0.0,0.0,0.0,0.0,0.0,0.0,0.0,0.0,0.0,0.0,0.0,0.0,0.0,0.0,0.0,0.0,0.0,0.0,0.0,0.0,0.0,0.0,0.0,0.0,0.0,0.0,0.0,0.0,0.0,0.0,0.0,0.0,0.0,0.0,0.0,0.0,0.0,0.0,0.0,0.0,0.0,0.0,0.0,0.0,0.0,0.0,0.0,0.0,0.0,0.0,0.0,0.0,0.0,0.0,0.0,0.0,0.0,0.0,0.0,0.0,0.0,0.0,0.0,0.0,0.0,0.0,0.0,0.0,0.0,0.0,0.0,0.0,0.0,0.0,0.0,0.0,0.0,0.0,0.0,0.0,0.0,0.0,0.0,0.0,0.0,0.0,0.0,0.0,0.0,0.0,0.0,0.0,0.0,0.0,0.0,0.0,0.0,0.0,0.0,0.0,0.0,0.0,0.0,0.0,0.0,0.0,0.0,0.0,0.0,0.0,0.0,0.0,0.0,0.0,0.0,0.0,0.0,0.0,0.0,0.0,0.0,0.0,0.0,0.0,0.0,0.0,0.0,0.0,0.0,0.0,0.0,0.0,0.0,0.0,0.0,0.0,0.0,0.0,0.0,0.0,0.0,0.0,0.0,0.0,0.0,0.0,0.0,0.0,0.0,0.0,0.0,0.0,0.0,0.0,0.0,0.0,0.0,0.0,0.0,0.0,0.0,0.0,0.0,0.0,0.0,0.0,0.0,0.0,0.0,0.0,0.0,0.0,0.0,0.0,0.0,0.0,0.0,0.0,0.0,0.0,0.0,0.0,0.0,0.0,0.0,0.0,0.0,0.0,0.0,0.0,0.0,0.0,0.0,0.0,0.0,0.0,0.0,0.0,0.0,0.0,0.0,0.0,0.0,0.0,0.0,0.0,0.0,0.0,0.0,0.0,0.0,0.0,0.0,0.0,0.0,0.0,0.0,0.0,0.0,0.0,0.0,0.0,0.0,0.0,0.0,0.0,0.0,0.0,0.0,0.0,0.0,0.0,0.0,0.0,0.0,0.0,0.0,0.0,0.0,0.0,0.0,0.0,0.0,0.0,0.0,0.0,0.0,0.0,0.0,0.0,0.0,0.0,0.0,0.0,0.0,0.0,0.0,0.0,0.0,0.0,0.0,0.0,0.0,0.0,0.0,0.0,0.0,0.0,0.0,0.0,0.0,0.0,0.0,0.0,0.0,0.0,0.0,0.0,0.0,0.0,0.0,0.0,0.0,0.0,0.0,0.0,0.0,0.0,0.0,0.0,0.0,0.0,0.0,0.0,0.0,0.0,0.0,0.0,0.0,0.0,0.0,0.0,0.0,0.0,0.0,0.0,0.0,0.0,0.0,0.0,0.0,0.0,0.0,0.0,0.0,0.0,0.0,0.0,0.0,0.0,0.0,0.0,0.0,0.0,0.0,0.0,0.0,0.0,0.0,0.0,0.0,0.0,0.0,0.0,0.0,0.0,0.0,0.0,0.0,0.0,0.0,0.0,0.0,0.0,0.0,0.0,0.0,0.0,0.0,0.0,0.0,0.0,0.0,0.0,0.0,0.0,0.0,0.0,0.0,0.0,0.0,0.0,0.0,0.0,0.0,0.0,0.0,0.0,0.0,0.0,0.0,0.0,0.0,0.0,0.0,0.0,0.0,0.0,0.0,0.0,0.0,0.0,0.0,0.0,0.0,0.0,0.0,0.0,0.0,0.0,0.0,0.0,0.0,0.0,0.0,0.0,0.0,0.0,0.0,0.0,0.0,0.0,0.0,0.0,0.0,0.0,0.0,0.0,0.0,0.0,0.0,0.0,0.0,0.0,0.0,0.0,0.0,0.0,0.0,0.0,0.0,0.0,0.0,0.0,0.0,0.0,0.0,0.0,0.0,0.0,0.0,0.0,0.0,0.0,0.0,0.0,0.0,0.0,0.0,0.0,0.0,0.0,0.0,0.0,0.0,0.0,0.0,0.0,0.0,0.0,0.0,0.0,0.0,0.0,0.0,0.0,0.0,0.0,0.0,0.0,0.0,0.0,0.0,0.0,0.0,0.0,0.0,0.0,0.0,0.0,0.0,0.0,0.0,0.0,0.0,0.0,0.0,0.0,0.0961,0.0,0.0,0.0,0.0,0.0,0.0,0.0,0.0,0.0,0.0,0.0,0.0,0.0,0.0,0.0,0.0,0.0,0.0,0.0,0.0,0.0,0.0,0.0,0.0,0.0,0.0,0.0,0.0,0.0,0.0,0.0,0.0,0.0,0.0,0.0,0.0,0.0,0.0,0.0,0.0,0.0,0.0,0.0,0.0,0.0,0.0,0.0,0.0,0.0,0.0,0.0,0.0,0.0,0.0,0.0,0.0,0.0,0.0,0.0,0.0,0.0,0.0,0.0,0.0,0.0,0.0,0.0,0.0,0.0,0.0,0.0,0.0,0.0,0.0,0.0,0.0,0.0,0.0,0.0,0.0,0.0,0.0,0.0,0.0,0.0,0.0,0.0,0.0,0.0,0.0,0.0,0.0,0.0,0.0,0.0,0.0,0.0,0.0,0.0,0.0,0.0,0.0,0.0,0.0,0.0,0.0,0.0,0.0,0.0,0.0,0.563,0.6111,0.5611,0.4159,0.166,0.0,0.0,0.0,0.0,0.0,0.0,0.0,0.0,0.0,0.0,0.0,0.0,0.0,0.0,0.0,0.0,0.0,0.0,0.0,0.0,0.0,0.0,0.0,0.0,0.0,0.0,0.0,0.0,0.0,0.0,0.0,0.0,0.0,0.0,0.0,0.0,0.0,0.0,0.0,0.0,0.0,0.0,0.0,0.0,0.0,0.0,0.0,0.0,0.0,0.0,0.0,0.0,0.0,0.0,0.0,0.0,0.0,0.0,0.0,0.0,0.0,0.0,0.0,0.0,0.0,0.0,0.0,0.0,0.0,0.0,0.0,0.0,0.0,0.0,0.0,0.0,0.0,0.0,0.0,0.0,0.0,0.0,0.0,0.0,0.0,0.0,0.0,0.0,0.0,0.0,0.0,0.0,0.0,0.0,0.0,0.0,0.0,0.0,0.0,0.0,0.0,0.0,0.0,0.0,0.0,0.0,0.0,0.0,0.0,0.0,0.0,0.0,0.6332,0.4599,0.1359,0.0,0.0,0.0,0.0,0.0,0.0,0.0,0.0,0.0,0.0,0.0,0.0,0.0,0.0,0.0,0.0,0.0,0.0,0.0,0.0,0.0,0.0,0.0,0.0,0.0,0.0,0.0,0.0,0.0,0.0,0.0,0.0,0.0,0.0,0.0,0.0,0.0,0.0,0.0,0.0,0.0,0.0,0.0,0.0,0.0,0.0,0.0,0.0,0.0,0.0,0.0,0.0,0.0,0.0,0.0,0.0,0.0,0.0,0.0,0.0,0.0,0.0,0.0,0.0,0.0,0.0,0.0,0.0,0.0,0.0,0.0,0.0,0.0,0.0,0.0,0.0,0.0,0.0,0.0,0.0,0.0,0.0,0.0,0.0,0.0,0.0,0.0,0.0,0.0,0.0,0.0,0.0,0.0,0.0,0.0,0.0,0.0,0.0,0.0,0.0,0.0,0.0,0.0,0.0,0.0,0.0,0.0,0.0,0.0,0.0,0.7125,0.7129,0.6682,0.0,-0.0813,0.0,0.0,0.0,0.0,0.0,0.0,0.0,0.0,0.0,0.0,0.0,0.0,0.0,0.0,0.0,0.0,0.0,0.0,0.0,0.0,0.0,0.0,0.0,0.0,0.0,0.0,0.0,0.0,0.0,0.0,0.0,0.0,0.0,0.0,0.0,0.0,0.0,0.0,0.0,0.0,0.0,0.0,0.0,0.0,0.0,0.0,0.0,0.0,0.0,0.0,0.0,0.0,0.0,0.0,0.0,0.0,0.0,0.0,0.0,0.0,0.0,0.0,0.0,0.0,0.0,0.0,0.0,0.0,0.0,0.0,0.0,0.0,0.0,0.0,0.0,0.0,0.0,0.0,0.0,0.0,0.0,0.0,0.0,0.0,0.0,0.0,0.0,0.0,0.0,0.0,0.0,0.0,0.0,0.0,0.0,0.0,0.0,0.0,0.0,0.0,0.0,0.0,0.0,0.0,0.0,0.0,0.0,0.0,0.0,0.0,0.7624,0.7779,0.5548,0.2617,0.0,0.0,0.0,0.0,0.0,0.0,0.0,0.0,0.0,0.0,0.0,0.0,0.0,0.0,0.0,0.0,0.0,0.0,0.0,0.0,0.0,0.0,0.0,0.0,0.0,0.0,0.0,0.0,0.0,0.0,0.0,0.0,0.0,0.0,0.0,0.0,0.0,0.0,0.0,0.0,0.0,0.0,0.0,0.0,0.0,0.0,0.0,0.0,0.0,0.0,0.0,0.0,0.0,0.0,0.0,0.0,0.0,0.0,0.0,0.0,0.0,0.0,0.0,0.0,0.0,0.0,0.0,0.0,0.0,0.0,0.0,0.0,0.0,0.0,0.0,0.0,0.0,0.0,0.0,0.0,0.0,0.0,0.0,0.0,0.0,0.0,0.0,0.0,0.0,0.0,0.0,0.0,0.0,0.0,0.0,0.0,0.0,0.0,0.0,0.0,0.0,0.0,0.0,0.0,0.0,0.0,0.0,0.0,0.0,0.0,0.7782,0.8267,0.7519,0.4474,0.1642,-0.0653,0.0,0.0,0.0,0.0,0.0,0.0,0.0,0.0,0.0,0.0,0.0,0.0,0.0,0.0,0.0,0.0,0.0,0.0,0.0,0.0,0.0,0.0,0.0,0.0,0.0,0.0,0.0,0.0,0.0,0.0,0.0,0.0,0.0,0.0,0.0,0.0,0.0,0.0,0.0,0.0,0.0,0.0,0.0,0.0,0.0,0.0,0.0,0.0,0.0,0.0,0.0,0.0,0.0,0.0,0.0,0.0,0.0,0.0,0.0,0.0,0.0,0.0,0.0,0.0,0.0,0.0,0.0,0.0,0.0,0.0,0.0,0.0,0.0,0.0,0.0,0.0,0.0,0.0,0.0,0.0,0.0,0.0,0.0,0.0,0.0,0.0,0.0,0.0,0.0,0.0,0.0,0.0,0.0,0.0,0.0,0.0,0.0,0.0,0.0,0.0,0.0,0.0,0.0,0.0,0.0,0.0,0.0,0.0,0.6889,0.9157,0.9075,0.6288,0.3888,0.1613,0.0,0.0,0.0,0.0,0.0,0.0,0.0,0.0,0.0,0.0,0.0,0.0,0.0,0.0,0.0,0.0,0.0,0.0,0.0,0.0,0.0,0.0,0.0,0.0,0.0,0.0,0.0,0.0,0.0,0.0,0.0,0.0,0.0,0.0,0.0,0.0,0.0,0.0,0.0,0.0,0.0,0.0,0.0,0.0,0.0,0.0,0.0,0.0,0.0,0.0,0.0,0.0,0.0,0.0,0.0,0.0,0.0,0.0,0.0,0.0,0.0,0.0,0.0,0.0,0.0,0.0,0.0,0.0,0.0,0.0,0.0,0.0,0.0,0.0,0.0,0.0,0.0,0.0,0.0,0.0,0.0,0.0,0.0,0.0,0.0,0.0,0.0,0.0,0.0,0.0,0.0,0.0,0.0,0.0,0.0,0.0,0.0,0.0,0.0,0.0,0.0,0.0,0.0,0.0,0.0,0.0,0.0,0.0,0.0,0.7753,0.8751,0.8145,0.5823,0.3616,0.1456,0.0,0.0,0.0,0.0,0.0,0.0,0.0,0.0,0.0,0.0,0.0,0.0,0.0,0.0,0.0,0.0,0.0,0.0,0.0,0.0,0.0,0.0,0.0,0.0,0.0,0.0,0.0,0.0,0.0,0.0,0.0,0.0,0.0,0.0,0.0,0.0,0.0,0.0,0.0,0.0,0.0,0.0,0.0,0.0,0.0,0.0,0.0,0.0,0.0,0.0,0.0,0.0,0.0,0.0,0.0,0.0,0.0,0.0,0.0,0.0,0.0,0.0,0.0,0.0,0.0,0.0,0.0,0.0,0.0,0.0,0.0,0.0,0.0,0.0,0.0,0.0,0.0,0.0,0.0,0.0,0.0,0.0,0.0,0.0,0.0,0.0,0.0,0.0,0.0,0.0,0.0,0.0,0.0,0.0,0.0,0.0,0.0,0.0,0.0,0.0,0.0,0.0,0.0,0.0,0.0,0.0,0.0,0.0,0.0,0.9229,0.0,0.73,0.0,0.3232,0.113,0.0,0.0,0.0,0.0,0.0,0.0,0.0,0.0,0.0,0.0,0.0,0.0,0.0,0.0,0.0,0.0,0.0,0.0,0.0,0.0,0.0,0.0,0.0,0.0,0.0,0.0,0.0,0.0,0.0,0.0,0.0,0.0,0.0,0.0,0.0,0.0,0.0,0.0,0.0,0.0,0.0,0.0,0.0,0.0,0.0,0.0,0.0,0.0,0.0,0.0,0.0,0.0,0.0,0.0,0.0,0.0,0.0,0.0,0.0,0.0,0.0,0.0,0.0,0.0,0.0,0.0,0.0,0.0,0.0,0.0,0.0,0.0,0.0,0.0,0.0,0.0,0.0,0.0,0.0,0.0,0.0,0.0,0.0,0.0,0.0,0.0,0.0,0.0,0.0,0.0,0.0,0.0,0.0,0.0,0.0,0.0,0.0,0.0,0.0,0.0,0.0,0.0,0.0,0.0,0.0,0.0,0.0,0.0,0.9857,1.1282,0.9012,0.6725,0.4548,0.2608,0.0677,0.0,0.0,0.0,0.0,0.0,0.0,0.0,0.0,0.0,0.0,0.0,0.0,0.0,0.0,0.0,0.0,0.0,0.0,0.0,0.0,0.0,0.0,0.0,0.0,0.0,0.0,0.0,0.0,0.0,0.0,0.0,0.0,0.0,0.0,0.0,0.0,0.0,0.0,0.0,0.0,0.0,0.0,0.0,0.0,0.0,0.0,0.0,0.0,0.0,0.0,0.0,0.0,0.0,0.0,0.0,0.0,0.0,0.0,0.0,0.0,0.0,0.0,0.0,0.0,0.0,0.0,0.0,0.0,0.0,0.0,0.0,0.0,0.0,0.0,0.0,0.0,0.0,0.0,0.0,0.0,0.0,0.0,0.0,0.0,0.0,0.0,0.0,0.0,0.0,0.0,0.0,0.0,0.0,0.0,0.0,0.0,0.0,0.0,0.0,0.0,0.0,0.0,0.0,0.0,0.0,0.0,0.0,0.0,0.0,1.0416,0.8216,0.6159,0.4315,0.2321,0.0254,0.0,0.0,0.0,0.0,0.0,0.0,0.0,0.0,0.0,0.0,0.0,0.0,0.0,0.0,0.0,0.0,0.0,0.0,0.0,0.0,0.0,0.0,0.0,0.0,0.0,0.0,0.0,0.0,0.0,0.0,0.0,0.0,0.0,0.0,0.0,0.0,0.0,0.0,0.0,0.0,0.0,0.0,0.0,0.0,0.0,0.0,0.0,0.0,0.0,0.0,0.0,0.0,0.0,0.0,0.0,0.0,0.0,0.0,0.0,0.0,0.0,0.0,0.0,0.0,0.0,0.0,0.0,0.0,0.0,0.0,0.0,0.0,0.0,0.0,0.0,0.0,0.0,0.0,0.0,0.0,0.0,0.0,0.0,0.0,0.0,0.0,0.0,0.0,0.0,0.0,0.0,0.0,0.0,0.0,0.0,0.0,0.0,0.0,0.0,0.0,0.0,0.0,0.0,0.0,0.0,0.0,0.0,0.0,0.0,0.9604,0.7611,0.5698,0.3819,0.1871,-0.0109,-0.2109,0.0,0.0,0.0,0.0,0.0,0.0,0.0,0.0,0.0,0.0,0.0,0.0,0.0,0.0,0.0,0.0,0.0,0.0,0.0,0.0,0.0,0.0,0.0,0.0,0.0,0.0,0.0,0.0,0.0,0.0,0.0,0.0,0.0,0.0,0.0,0.0,0.0,0.0,0.0,0.0,0.0,0.0,0.0,0.0,0.0,0.0,0.0,0.0,0.0,0.0,0.0,0.0,0.0,0.0,0.0,0.0,0.0,0.0,0.0,0.0,0.0,0.0,0.0,0.0,0.0,0.0,0.0,0.0,0.0,0.0,0.0,0.0,0.0,0.0,0.0,0.0,0.0,0.0,0.0,0.0,0.0,0.0,0.0,0.0,0.0,0.0,0.0,0.0,0.0,0.0,0.0,0.0,0.0,0.0,0.0,0.0,0.0,0.0,0.0,0.0,0.0,0.0,0.0,0.0,0.0,0.0,0.0,0.0,0.8961,0.7152,0.5205,0.3131,0.1299,-0.0471,0.0,0.0,0.0,0.0,0.0,0.0,0.0,0.0,0.0,0.0,0.0,0.0,0.0,0.0,0.0,0.0,0.0,0.0,0.0,0.0,0.0,0.0,0.0,0.0,0.0,0.0,0.0,0.0,0.0,0.0,0.0,0.0,0.0,0.0,0.0,0.0,0.0,0.0,0.0,0.0,0.0,0.0,0.0,0.0,0.0,0.0,0.0,0.0,0.0,0.0,0.0,0.0,0.0,0.0,0.0,0.0,0.0,0.0,0.0,0.0,0.0,0.0,0.0,0.0,0.0,0.0,0.0,0.0,0.0,0.0,0.0,0.0,0.0,0.0,0.0,0.0,0.0,0.0,0.0,0.0,0.0,0.0,0.0,0.0,0.0,0.0,0.0,0.0,0.0,0.0,0.0,0.0,0.0,0.0,0.0,0.0,0.0,0.0,0.0,0.0,0.0,0.0,0.0,0.0,0.0,0.0,0.0,0.0,0.0,0.8214,0.636,0.447,0.2552,0.082,-0.0908,0.0,0.0,0.0,0.0,0.0,0.0,0.0,0.0,0.0,0.0,0.0,0.0,0.0,0.0,0.0,0.0,0.0,0.0,0.0,0.0,0.0,0.0,0.0,0.0,0.0,0.0,0.0,0.0,0.0,0.0,0.0,0.0,0.0,0.0,0.0,0.0,0.0,0.0,0.0,0.0,0.0,0.0,0.0,0.0,0.0,0.0,0.0,0.0,0.0,0.0,0.0,0.0,0.0,0.0,0.0,0.0,0.0,0.0,0.0,0.0,0.0,0.0,0.0,0.0,0.0,0.0,0.0,0.0,0.0,0.0,0.0,0.0,0.0,0.0,0.0,0.0,0.0,0.0,0.0,0.0,0.0,0.0,0.0,0.0,0.0,0.0,0.0,0.0,0.0,0.0,0.0,0.0,0.0,0.0,0.0,0.0,0.0,0.0,0.0,0.0,0.0,0.0,0.0,0.0,0.0,0.0,0.0,0.0,0.9272,0.7607,0.5691,0.3705,0.1727,0.0296,-0.111,0.0,0.0,0.0,0.0,0.0,0.0,0.0,0.0,0.0,0.0,0.0,0.0,0.0,0.0,0.0,0.0,0.0,0.0,0.0,0.0,0.0,0.0,0.0,0.0,0.0,0.0,0.0,0.0,0.0,0.0,0.0,0.0,0.0,0.0,0.0,0.0,0.0,0.0,0.0,0.0,0.0,0.0,0.0,0.0,0.0,0.0,0.0,0.0,0.0,0.0,0.0,0.0,0.0,0.0,0.0,0.0,0.0,0.0,0.0,0.0,0.0,0.0,0.0,0.0,0.0,0.0,0.0,0.0,0.0,0.0,0.0,0.0,0.0,0.0,0.0,0.0,0.0,0.0,0.0,0.0,0.0,0.0,0.0,0.0,0.0,0.0,0.0,0.0,0.0,0.0,0.0,0.0,0.0,0.0,0.0,0.0,0.0,0.0,0.0,0.0,0.0,0.0,0.0,0.0,0.0,0.0,0.0,0.0,0.8666,0.7025,0.5038,0.2962,0.0894,-0.0168,-0.1269,0.0,0.0,0.0,0.0,0.0,0.0,0.0,0.0,0.0,0.0,0.0,0.0,0.0,0.0,0.0,0.0,0.0,0.0,0.0,0.0,0.0,0.0,0.0,0.0,0.0,0.0,0.0,0.0,0.0,0.0,0.0,0.0,0.0,0.0,0.0,0.0,0.0,0.0,0.0,0.0,0.0,0.0,0.0,0.0,0.0,0.0,0.0,0.0,0.0,0.0,0.0,0.0,0.0,0.0,0.0,0.0,0.0,0.0,0.0,0.0,0.0,0.0,0.0,0.0,0.0,0.0,0.0,0.0,0.0,0.0,0.0,0.0,0.0,0.0,0.0,0.0,0.0,0.0,0.0,0.0,0.0,0.0,0.0,0.0,0.0,0.0,0.0,0.0,0.0,0.0,0.0,0.0,0.0,0.0,0.0,0.0,0.0,0.0,0.0,0.0,0.0,0.0,0.0,0.0,0.0,0.0,0.0,0.0,0.7648,0.6231,0.4334,0.2488,0.0771,-0.0256,-0.1333,0.0,0.0,0.0,0.0,0.0,0.0,0.0,0.0,0.0,0.0,0.0,0.0,0.0,0.0,0.0,0.0,0.0,0.0,0.0,0.0,0.0,0.0,0.0,0.0,0.0,0.0,0.0,0.0,0.0,0.0,0.0,0.0,0.0,0.0,0.0,0.0,0.0,0.0,0.0,0.0,0.0,0.0,0.0,0.0,0.0,0.0,0.0,0.0,1.8644,0.0,0.0,0.0,0.0,0.0,0.0,0.0,0.0,0.0,0.0,0.0,0.0,0.0,0.0,0.0,0.0,0.0,0.0,0.0,0.0,0.0,0.0,0.0,0.0,0.0,0.0,0.0,0.0,0.0,0.0,0.0,0.0,0.0,0.0,0.0,0.0,0.0,0.0,0.0,0.0,0.0,0.0,0.0,0.0,0.0,0.0,0.0,0.0,0.0,0.0,0.0,0.0,0.0,0.0,0.0,0.0,0.0,0.0,0.0,0.6632,0.5061,0.3381,0.1851,0.0435,-0.0415,-0.1323,0.0,0.0,0.0,0.0,0.0,0.0,0.0,0.0,0.0,0.0,0.0,0.0,0.0,0.0,0.0,0.0,0.0,0.0,0.0,0.0,0.0,0.0,0.0,0.0,0.0,0.0,0.0,0.0,0.0,0.0,0.0,0.0,0.0,0.0,0.0,0.0,0.0,0.0,0.0,0.0,0.0,0.0,0.0,0.0,0.0,0.0,0.0,0.0,0.0,0.0,0.0,0.0,0.0,0.0,0.0,0.0,0.0,0.0,0.0,0.0,0.0,0.0,0.0,0.0,0.0,0.0,0.0,0.0,0.0,0.0,0.0,0.0,0.0,0.0,0.0,0.0,0.0,0.0,0.0,0.0,0.0,0.0,0.0,0.0,0.0,0.0,0.0,0.0,0.0,0.0,0.0,0.0,0.0,0.0,0.0,0.0,0.0,0.0,0.0,0.0,0.0,0.0,0.0,0.0,0.0,0.0,0.0,0.689,0.562,0.3909,0.242,0.1146,0.0084,-0.0565,-0.1255,-0.1929,0.0,0.0,0.0,0.0,0.0,0.0,0.0,0.0,0.0,0.0,0.0,0.0,0.0,0.0,0.0,0.0,0.0,0.0,0.0,0.0,0.0,0.0,0.0,0.0,0.0,0.0,0.0,0.0,0.0,0.0,0.0,0.0,0.0,0.0,0.0,0.0,0.0,0.0,0.342,0.3512,0.0,0.0,0.0,0.0,0.0,0.0,0.0,0.0,1.9159,0.0,0.0,0.0,0.0,0.0,0.0,0.0,0.0,0.0,0.0,0.0,0.0,0.0,0.0,0.0,0.0,0.0,0.0,0.0,0.0,0.0,0.0,0.0,0.0,0.0,0.0,0.0,0.0,0.0,0.0,0.0,0.0,0.0,0.0,0.0,0.0,0.0,0.0,0.0,0.0,0.0,0.0,0.0,0.0,0.0,0.0,0.0,0.0,0.0,0.0,0.0,0.0,0.0,0.0,0.0,0.0,0.6688,0.5814,0.4688,0.3262,0.1878,0.0728,-0.0042,-0.0667,-0.1238,-0.1737,0.0,0.0,0.0,0.0,0.0,0.0,0.0,0.0,0.0,0.0,0.0,0.0,0.0,0.0,0.0,0.0,0.0,0.0,0.0,0.0,0.0,0.0,0.0,0.0,0.0,0.0,0.0,0.0,0.0,0.0,0.0,0.0,0.0,0.0,0.0,0.0,0.0,0.0,0.0,0.3317,0.4361,0.0,0.0,0.0,0.0,0.0,0.0,0.0,0.0,1.9324,0.0,0.0,0.0,0.0,0.0,0.0,0.0,0.0,0.0,0.0,0.0,0.0,0.0,0.0,0.0,0.0,0.0,0.0,0.0,0.0,0.0,0.0,0.0,0.0,0.0,0.0,0.0,0.0,0.0,0.0,0.0,0.0,0.0,0.0,0.0,0.0,0.0,0.0,0.0,0.0,0.0,0.0,0.0,0.0,0.0,0.0,0.0,0.0,0.0,0.0,0.0,0.0,0.0,0.0,0.0,0.545,0.4628,0.3609,0.2454,0.1302,0.0403,-0.0253,-0.074,-0.1217,0.0,0.0,0.0,0.0,0.0,0.0,0.0,0.0,0.0,0.0,0.0,0.0,0.0,0.0,0.0,0.0,0.0,0.0,0.0,0.0,0.0,0.0,0.0,0.0,0.0,0.0,0.0,0.0,0.0,0.0,0.0,0.0,0.0,0.0,0.0,0.0,0.0,0.0,0.0,0.0,0.3267,0.3819,0.4696,0.0,0.0,0.0,0.0,0.0,0.0,1.9526,1.9719,0.0,0.0,0.0,0.0,0.0,0.0,0.0,0.0,0.0,0.0,0.0,0.0,0.0,0.0,0.0,0.0,0.0,0.0,0.0,0.0,0.0,0.0,0.0,0.0,0.0,0.0,0.0,0.0,0.0,0.0,0.0,0.0,0.0,0.0,0.0,0.0,0.0,0.0,0.0,0.0,0.0,0.0,0.0,0.0,0.0,0.0,0.0,0.0,0.0,0.0,0.0,0.0,0.0,0.0,0.0,0.4167,0.3469,0.2663,0.1637,0.0779,0.0088,-0.0375,-0.0809,-0.1201,0.0,0.0,0.0,0.0,0.0,0.0,0.0,0.0,0.0,0.0,0.0,0.0,0.0,0.0,0.0,0.0,0.0,0.0,0.0,0.0,0.0,0.0,0.0,0.0,0.0,0.0,0.0,0.0,0.0,0.0,0.0,0.0,0.0,0.0,0.0,0.0,0.0,0.0,0.0,0.0,0.0,0.3484,0.3432,0.7395,0.0,0.0,0.0,0.0,1.8599,1.9116,0.0,0.0,0.0,0.0,0.0,0.0,0.0,0.0,0.0,0.0,0.0,0.0,0.0,0.0,0.0,0.0,0.0,0.0,0.0,0.0,0.0,0.0,0.0,0.0,0.0,0.0,0.0,0.0,0.0,0.0,0.0,0.0,0.0,0.0,0.0,0.0,0.0,0.0,0.0,0.0,0.0,0.0,0.0,0.0,0.0,0.0,0.0,0.0,0.0,0.0,0.0,0.0,0.0,0.0,0.0,0.0,0.3001,0.2517,0.1834,0.1037,0.0372,-0.009,-0.0398,-0.0861,-0.1242,0.0,0.0,0.0,0.0,0.0,0.0,0.0,0.0,0.0,0.0,0.0,0.0,0.0,0.0,0.0,0.0,0.0,0.0,0.0,0.0,0.0,0.0,0.0,0.0,0.0,0.0,0.0,0.0,0.0,0.0,0.0,0.0,0.0,0.0,0.0,0.0,0.0,0.0,0.0,0.0,0.0,0.3992,0.528,0.8186,1.0889,0.0,0.0,1.7831,1.7844,1.7913,0.0,0.0,0.0,0.0,0.0,0.0,0.0,0.0,0.0,0.0,0.0,0.0,0.0,0.0,0.0,0.0,0.0,0.0,0.0,0.0,0.0,0.0,0.0,0.0,0.0,0.0,0.0,0.0,0.0,0.0,0.0,0.0,0.0,0.0,0.0,0.0,0.0,0.0,0.0,0.0,0.0,0.0,0.0,0.0,0.0,0.0,0.0,0.0,0.0,0.0,0.0,0.0,0.0,0.0,0.0,0.2716,0.2117,0.1668,0.1175,0.0601,0.0139,-0.0267,-0.0532,-0.0772,-0.1033,0.0,0.0,0.0,0.0,0.0,0.0,0.0,0.0,0.0,0.0,0.0,0.0,0.0,0.0,0.0,0.0,0.0,0.0,0.0,0.0,0.0,0.0,0.0,0.0,0.0,0.0,0.0,0.0,0.0,0.0,0.0,0.0,0.0,0.0,0.0,0.0,0.0,0.0,0.0,0.0,0.0,0.0,0.5779,0.8956,0.0,0.0,0.0,1.7069,1.7074,0.0,0.0,0.0,0.0,0.0,0.0,0.0,0.0,0.0,0.0,0.0,0.0,0.0,0.0,0.0,0.0,0.0,0.0,0.0,0.0,0.0,0.0,0.0,0.0,0.0,0.0,0.0,0.0,0.0,0.0,0.0,0.0,0.0,0.0,0.0,0.0,0.0,0.0,0.0,0.0,0.0,0.0,0.0,0.0,0.0,0.0,0.0,0.0,0.0,0.0,0.0,0.0,0.0,0.0,0.0,0.0,0.0,0.1294,0.09,0.0546,0.0281,-0.009,-0.0347,-0.0497,-0.0673,0.0,0.0,0.0,0.0,0.0,0.0,0.0,0.0,0.0,0.0,0.0,0.0,0.0,0.0,0.0,0.0,0.0,0.0,0.0,0.0,0.0,0.0,0.0,0.0,0.0,0.0,0.0,0.5528,0.0,0.0,0.0,0.0,0.0,0.0,0.0,0.0,0.0,0.0,0.0,0.0,0.0,0.0,0.6723,0.6651,0.9754,1.2269,0.0,0.0,1.6059,1.541,1.4318,1.3317,0.0,0.0,0.0,0.0,0.0,0.0,0.0,0.0,0.0,0.0,0.0,0.0,0.0,0.0,0.0,0.0,0.0,0.0,0.0,0.0,0.0,0.0,0.0,0.0,0.0,0.0,0.0,0.0,0.0,0.0,0.0,0.0,0.0,0.0,0.0,0.0,0.0,0.0,0.0,0.0,0.0,0.0,0.0,0.0,0.0,0.0,0.0,0.0,0.0,0.0,0.0,0.0,0.0,0.0,0.0,0.0472,0.0215,0.0,-0.018,-0.0303,-0.0372,-0.0316,-0.0527,-0.0637,0.0,0.0,0.0,0.0,0.0,0.0,0.0,0.0,0.0,0.0,0.0,0.0,0.0,0.0,0.0,0.0,0.0,0.0,0.0,0.0,0.0,0.0,0.0,0.0,0.0,0.0,0.0,0.0,0.0,0.0,0.0,0.0,0.0,0.0,0.0,0.0,0.0,0.0,0.0,0.0,0.0,0.7196,0.8755,1.0767,1.2823,0.0,0.0,1.4655,1.2228,1.1792,1.0901,0.8626,0.0,0.0,0.0,0.0,0.0,0.0,0.0,0.0,0.0,0.0,0.0,0.0,0.0,0.0,0.0,0.0,0.0,0.0,0.0,0.0,0.0,0.0,0.0,0.0,0.0,0.0,0.0,0.0,0.0,0.0,0.0,0.0,0.0,0.0,0.0,0.0,0.0,0.0,0.0,0.0,0.0,0.0,0.0,0.0,0.0,0.0,0.0,0.0,0.0,0.0,0.0,0.0,0.0,-0.0078,-0.0079,-0.0215,-0.0315,-0.0404,-0.0388,-0.0412,-0.0433,-0.0412,-0.0405,0.0,0.0,0.0,0.0,0.0,0.0,0.0,0.0,0.0,0.0,0.0,0.0,0.0,0.0,0.0,0.0,0.0,0.0,0.0,0.0,0.0,0.0,0.0,0.0,0.0,0.0,0.0,0.0,0.4403,0.4204,0.4207,0.0,0.0,0.0,0.0,0.0,0.0,0.0,0.0,0.0,0.0,0.8725,0.9137,1.1998,0.0,0.0,1.5349,1.5046,1.4061,1.2617,1.0759,0.8214,0.5815,0.0,0.0,0.0,0.0,0.0,0.0,0.0,0.0,0.0,0.0,0.0,0.0,0.0,0.0,0.0,0.0,0.0,0.0,0.0,0.0,0.0,0.0,0.0,0.0,0.0,0.0,0.0,0.0,0.0,0.0,0.0,0.0,0.0,0.0,0.0,0.0,0.0,0.0,0.0,0.0,0.0,0.0,0.0,0.0,0.0,0.0,0.0,0.0,0.0,0.0,0.0,0.0,-0.0706,-0.0629,-0.0645,-0.0674,-0.0629,-0.0468,-0.0447,-0.0471,-0.0332,-0.0215,0.0,0.0,0.0,0.0,0.0,0.0,0.0,0.0,0.0,0.0,0.0,0.0,0.0,0.0,0.0,0.0,0.0,0.0,0.0,0.0,0.0,0.0,0.0,0.0,0.0,0.0,0.0,0.0,0.4441,0.4328,0.4453,0.0,0.0,0.0,0.0,0.0,0.0,0.0,0.0,0.0,0.0,0.956,0.9265,1.2668,1.5287,1.5299,1.5352,1.5145,1.4355,1.2129,0.987,0.8085,0.0,0.0,0.0,0.0,0.0,0.0,0.0,0.0,0.0,0.0,0.0,0.0,0.0,0.0,0.0,0.0,0.0,0.0,0.0,0.0,0.0,0.0,0.0,0.0,0.0,0.0,0.0,0.0,0.0,0.0,0.0,0.0,0.0,0.0,0.0,0.0,0.0,0.0,0.0,0.0,0.0,0.0,0.0,0.0,0.0,0.0,0.0,0.0,0.0,0.0,0.0,0.0,0.0,-0.1294,-0.1064,-0.1073,-0.1032,-0.0897,-0.0578,-0.0394,-0.0392,-0.0214,-0.0035,0.0109,0.0,0.0,0.0,0.0,0.0,0.0,0.0,0.0,0.0,0.0,0.0,0.0,0.0,0.0,0.0,0.0,0.0,0.0,0.0,0.0,0.0,0.0,0.0,0.0,0.0,0.0,0.472,0.4518,0.4448,0.0,0.0,0.0,0.0,0.0,0.0,0.0,0.0,0.0,0.0,0.6936,0.9304,0.9111,1.2602,1.5121,1.5206,1.5251,1.4471,1.2047,0.9447,0.7723,0.0,0.0,0.0,0.0,0.0,0.0,0.0,0.0,0.0,0.0,0.0,0.0,0.0,0.0,0.0,0.0,0.0,0.0,0.0,0.0,0.0,0.0,0.0,0.0,0.0,0.0,0.0,0.0,-0.6428,0.0,0.0,0.0,0.0,0.0,0.0,0.0,0.0,0.0,0.0,0.0,-0.3784,-0.3762,0.0,0.0,0.0,0.0,0.0,0.0,0.0,0.0,0.0,0.0,0.0,0.0,-0.178,-0.1498,-0.1373,-0.121,-0.103,-0.0764,-0.0527,-0.0393,-0.0258,-0.0036,0.0291,0.0,0.0,0.0,0.0,0.0,0.0,0.0,0.0,0.0,0.0,0.0,0.0,0.0,0.0,0.0,0.0,0.0,0.0,0.0,0.0,0.0,0.0,0.0,0.0,0.0,0.4854,0.0,0.0,0.0,0.0,0.0,0.0,0.0,0.0,0.0,0.0,0.0,0.3896,0.3635,0.5711,0.721,0.7053,0.9332,1.1525,0.0,0.0,0.0,0.0,0.0,0.0,0.0,0.0,0.0,0.0,0.0,0.0,0.0,0.0,-0.4644,-0.5072,-0.5925,-0.689,-0.8105,0.0,0.0,0.0,0.0,0.0,0.0,0.0,0.0,0.0,0.0,0.0,0.0,0.0,0.0,0.0,0.0,-0.641,0.0,0.0,0.0,0.0,0.0,0.0,0.0,0.0,-0.5054,-0.4956,-0.4787,-0.4657,-0.4578,0.0,-0.4403,-0.4081,0.0,0.0,0.0,0.0,0.0,0.0,0.0,0.0,-0.211,-0.1815,-0.1686,-0.1479,-0.1207,-0.0903,-0.07,-0.0511,-0.0258,0.0071,0.0425,0.0664,0.0978,0.0,0.0,0.0,0.0,0.0,0.0,0.0,0.0,0.0,0.0,0.0,0.0,0.0,0.0,0.0,0.0,0.0,0.0,0.0,0.0,0.0,0.0,0.0,0.4978,0.0,0.0,0.0,0.0,0.0,0.0,0.0,0.0,0.0,0.4382,0.4091,0.3798,0.3536,0.5092,0.6207,0.6017,0.0,0.0,0.0,0.0,0.0,0.0,0.0,0.6294,0.53,0.3294,0.109,-0.1267,-0.25,-0.3475,-0.4474,0.0,0.0,-0.6112,-0.6862,-0.7818,-0.9044,-0.9914,-1.0761,-1.1641,-1.2306,-1.2849,0.0,0.0,0.0,0.0,0.0,0.0,0.0,0.0,-0.887,-0.8539,0.0,-0.7569,0.0,0.0,0.0,0.0,0.0,0.0,0.0,0.0,-0.6313,-0.611,-0.555,-0.5496,-0.5328,-0.5038,-0.4898,-0.4714,-0.4495,-0.4236,0.0,0.0,0.0,0.0,0.0,0.0,-0.2352,-0.2019,-0.1976,-0.1794,-0.1387,-0.1078,-0.0826,-0.0668,-0.0178,0.0202,0.0472,0.0813,0.1138,0.1486,0.1613,0.0,0.0,0.0,0.0,0.0,0.0,0.0,0.0,0.0,0.0,0.0,0.0,0.0,0.0,0.0,0.0,0.0,0.0,0.0,0.0,0.5126,0.0,0.0,0.0,0.0,0.0,0.0,0.0,0.0,0.0,0.0,0.4389,0.3976,0.3607,0.3344,0.0,0.0,0.0,0.0,0.8728,0.8621,0.8453,0.831,0.8298,0.5868,0.4782,0.705,0.0,0.0,-0.2572,-0.3239,-0.3965,-0.5091,-0.5942,-0.6579,-0.679,-0.766,-0.865,-0.9649,-1.0466,-1.1271,-1.2043,-1.2696,-1.3229,-1.2073,0.0,0.0,0.0,0.0,-0.9688,-0.9248,-0.9089,-0.8615,-0.8331,-0.8139,-0.77,0.0,0.0,0.0,0.0,0.0,0.0,-0.6914,-0.6696,-0.6526,-0.6371,-0.6186,-0.5843,-0.5634,-0.5611,-0.5267,-0.5062,-0.4975,-0.4626,-0.4291,-0.3944,0.0,0.0,0.0,0.0,-0.2598,-0.2231,-0.1972,-0.1749,-0.1569,-0.1284,-0.0978,-0.059,-0.0142,0.0202,0.0437,0.0752,0.1093,0.1477,0.1747,0.0,0.0,0.0,0.0,0.0,0.0,0.0,0.0,0.0,0.0,0.0,0.0,0.0,0.0,0.0,0.0,0.0,0.0,0.0,0.4951,0.5038,0.5183,0.0,0.0,0.0,0.0,0.0,0.0,0.0,0.0,0.0,0.5042,0.4429,0.3901,0.0,0.0,0.4226,0.3978,0.4297,0.506,0.6356,0.0,0.0,0.0,0.3564,0.1937,0.2379,0.0391,-0.1579,-0.2662,-0.3474,-0.4306,-0.5396,-0.6289,-0.7049,-0.7784,-0.8569,-0.9469,-1.0408,-1.1244,-1.1945,-1.2567,-1.3091,-1.3535,-1.2668,-1.1943,-1.1316,-1.0986,-1.0754,-0.9806,-0.9293,-0.899,-0.8609,-0.838,-0.8325,-0.8051,-0.7977,-0.8112,-0.7926,0.0,0.0,0.0,-0.7395,-0.7293,-0.6982,-0.676,-0.6672,-0.6299,-0.6075,-0.5934,-0.5662,-0.5365,-0.5103,-0.4826,-0.4475,-0.4112,0.0,0.0,-0.3226,-0.3005,-0.2742,-0.2373,-0.2165,-0.1971,-0.1749,-0.1433,-0.1038,-0.059,-0.0178,0.0134,0.037,0.0673,0.1041,0.1408,0.1707,0.1957,0.0,0.0,0.0,0.0,0.0,0.0,0.0,0.0,0.0,0.0,0.0,0.259,0.2756,0.0,0.0,0.0,0.4455,0.4867,0.5247,0.5356,0.0,0.0,0.0,0.0,0.0,0.0,0.0,0.5875,0.5894,0.5856,0.5695,0.524,0.4666,0.4068,0.3846,0.3635,0.3372,0.0,0.3488,0.4514,0.3322,0.264,0.3704,0.244,0.1047,0.0392,-0.0522,-0.1524,-0.2557,-0.3427,-0.435,-0.5433,-0.6422,-0.7314,-0.8211,-0.9062,-0.9922,-1.0725,-1.1468,-1.215,-1.272,-1.3173,-1.3535,-1.3263,-1.2752,-1.1978,-1.1468,-1.1096,-1.0302,-0.9539,-0.9005,-0.8719,-0.8648,-0.8677,-0.8477,-0.867,-0.9044,-0.8802,0.0,0.0,-0.8186,-0.7902,-0.7888,-0.75,-0.7224,-0.7043,-0.6875,-0.6536,-0.6075,-0.601,-0.5654,-0.5041,-0.4938,-0.4663,-0.4135,-0.3821,-0.3499,-0.3214,-0.2998,-0.2773,-0.2504,-0.2462,-0.233,-0.1973,-0.1485,-0.1061,-0.0746,-0.0356,0.0,0.0269,0.0606,0.0908,0.1244,0.1525,0.173,0.1875,0.0,0.0,0.0,0.0,0.0,0.0,0.0,0.0,0.0,0.0,0.0,0.0,0.0,0.0,0.0,0.4616,0.0,0.5678,0.597,0.0,0.0,0.0,0.6468,0.6377,0.6372,0.6341,0.6253,0.0,0.0,0.0,0.0,0.5817,0.4749,0.4424,0.4148,0.3884,0.3827,0.361,0.3473,0.3107,0.2856,0.2852,0.2288,0.1558,0.0582,-0.0285,-0.121,-0.2229,-0.3116,-0.4164,-0.5389,-0.638,-0.7266,-0.8267,-0.9208,-1.0127,-1.0697,-1.1367,-1.1993,-1.2615,-1.2988,-1.3297,-1.3291,-1.3115,-1.2328,-1.1951,-1.1768,-1.061,-1.0052,-0.9827,-0.9058,-0.875,-0.8788,-0.8521,-0.8511,-0.8666,-0.8824,-0.8951,-0.8885,-0.8447,-0.8151,-0.8019,-0.754,-0.7315,-0.7336,-0.6999,-0.6766,-0.6733,-0.6224,-0.5926,-0.5726,-0.5335,-0.4905,-0.4495,-0.4114,-0.3736,-0.3353,-0.3084,-0.2815,-0.2504,-0.2375,-0.2152,-0.1835,-0.1485,-0.122,-0.1101,-0.0569,-0.0235,0.0,0.0303,0.0639,0.1008,0.1242,0.1497,0.166,0.183,0.0,0.0,0.0,0.0,0.0,0.0,0.0,0.0,0.0,0.249,0.2751,0.0,0.3529,0.0,0.5157,0.5753,0.5983,0.6244,0.0,0.0,0.6533,0.6682,0.6973,0.6991,0.7049,0.731,0.7429,0.7558,0.7518,0.7212,0.6908,0.6632,0.5935,0.5408,0.5191,0.5077,0.4926,0.4578,0.4313,0.4017,0.3538,0.2718,0.1913,0.1183,0.0291,-0.0677,-0.1659,-0.2739,-0.3865,-0.4961,-0.6039,-0.7056,-0.7938,-0.8837,-0.9646,-1.0351,-1.1207,-1.1993,-1.2401,-1.2756,-1.3035,-1.3623,-1.3268,-1.2624,-1.2203,-1.2027,-1.0847,-1.0242,-0.9904,-0.9248,-0.8944,-0.8897,-0.9002,-0.9097,-0.9152,-0.9368,-0.9498,-0.9422,-0.8915,-0.8658,-0.8475,-0.7964,-0.7701,-0.7552,-0.7263,-0.707,-0.6938,-0.6504,-0.6192,-0.5997,-0.5544,-0.5104,-0.4603,-0.4314,-0.395,-0.3493,-0.317,-0.2904,-0.2684,-0.2511,-0.2288,-0.1969,-0.1689,-0.1452,-0.1291,-0.0782,-0.0437,-0.0235,0.0134,0.0505,0.0807,0.1143,0.1357,0.1466,0.1699,0.1859,0.0,0.0,0.0,0.0,0.0,0.0,0.0,0.0,0.0,0.0,0.0,0.4049,0.0,0.5579,0.0,0.6349,0.6492,0.6648,0.6762,0.6932,0.7121,0.7303,0.7528,0.7746,0.794,0.8183,0.8316,0.8365,0.819,0.8063,0.8142,0.7617,0.6924,0.6267,0.6102,0.5948,0.5646,0.538,0.5018,0.4417,0.3589,0.2796,0.205,0.1161,0.0174,-0.0887,-0.196,-0.3067,-0.4303,-0.5389,-0.6416,-0.7433,-0.8333,-0.9142,-0.9864,-1.0715,-1.1431,-1.2041,-1.2437,-1.272,-1.3969,-1.334,-1.2801,-1.2393,-1.2041,-1.1092,-1.031,-0.9736,-0.9369,-0.9108,-0.9004,-0.9538,-0.9793,-0.9832,-0.9986,-1.008,-1.0093,-0.9557,-0.9163,-0.9026,-0.8527,-0.8086,-0.7676,-0.7568,-0.7311,-0.6933,-0.6766,-0.6503,-0.6006,-0.5693,-0.5246,-0.4677,-0.4498,-0.4168,-0.3657,-0.3268,-0.2993,-0.2909,-0.2773,-0.2551,-0.2239,-0.1976,-0.1724,-0.1444,-0.0996,-0.0673,-0.0437,0.0,0.037,0.0639,0.1036,0.1235,0.1271,0.1582,0.1793,0.0,0.1986,0.0,0.0,0.0,0.0,0.0,0.0,0.0,0.0,0.4147,0.4832,0.5634,0.595,0.631,0.673,0.6776,0.6896,0.7152,0.744,0.7649,0.7741,0.812,0.843,0.8481,0.8723,0.8958,0.9056,0.9105,0.9145,0.9151,0.8996,0.8434,0.7475,0.7144,0.6967,0.6626,0.6358,0.597,0.5273,0.466,0.3978,0.3149,0.2176,0.1157,0.0,-0.1024,-0.2093,-0.3372,-0.4474,-0.5556,-0.679,-0.7702,-0.8569,-0.9253,-0.9933,-1.0687,-1.1479,-1.1993,-1.2318,-1.3815,-1.3658,-1.2717,-1.2201,-1.1983,-1.129,-1.0678,-1.0037,-0.9457,-0.8989,-0.8691,-0.8905,-0.9195,-0.9551,-0.984,-1.0186,-1.0461,-0.9868,-0.9464,-0.9234,-0.8614,-0.8092,-0.7729,-0.7568,-0.7354,-0.7031,-0.6815,-0.6524,-0.6171,-0.5846,-0.5513,-0.4978,-0.4687,-0.4289,0.0,0.0,0.0,0.0,-0.2773,-0.2598,-0.2455,-0.2181,-0.1963,-0.1798,-0.1352,0.0,-0.074,-0.037,0.0,0.0369,0.0707,0.0,0.0,0.0,0.0,0.0,0.0,0.0,0.0,0.0,0.0,0.0,0.3623,0.4017,0.4159,0.4985,0.5704,0.6132,0.656,0.6879,0.7106,0.7106,0.7241,0.763,0.7771,0.8087,0.8693,0.8894,0.9065,0.9409,0.9469,0.9545,0.9554,0.9554,0.9594,0.9634,0.9594,0.9451,0.9181,0.8633,0.8302,0.8079,0.7529,0.7011,0.6462,0.5695,0.4947,0.4117,0.3155,0.2135,0.1068,-0.0089,-0.1202,-0.2266,-0.35,-0.4678,-0.5706,-0.6735,-0.7626,-0.8333,-0.907,-0.9873,-1.0878,-1.1404,-1.17,-1.3987,0.0,-1.2991,-1.2402,0.0,-1.1346,-1.0684,-1.0109,-0.9593,-0.8997,-0.8447,-0.8606,-0.889,-0.9285,-0.964,-0.9972,-1.0301,-0.9913,-0.9553,-0.9149,-0.871,-0.8155,-0.7616,-0.7521,-0.7306,-0.6982,-0.6815,-0.6544,-0.6277,-0.5959,-0.564,-0.5284,-0.4897,-0.4476,-0.4073,-0.3823,-0.3524,-0.3135,-0.3087,-0.2951,-0.2679,-0.2521,-0.2287,-0.2036,0.0,0.0,0.0,0.0,0.0,0.0,0.0,0.0,0.0,0.0,0.0,0.1655,0.1964,0.2238,0.2446,0.2806,0.32,0.3612,0.4386,0.4894,0.5039,0.5641,0.6198,0.6498,0.6831,0.7127,0.7408,0.7475,0.7671,0.813,0.841,0.8751,0.9179,0.946,0.9657,0.9845,0.9971,1.0049,1.0049,1.0127,1.0157,1.0166,1.0137,1.0137,1.001,0.9536,0.9136,0.8854,0.8398,0.7807,0.7266,0.6586,0.5813,0.5,0.4037,0.307,0.2093,0.0979,-0.0133,-0.12,-0.2397,-0.3497,-0.4626,-0.5706,-0.6658,-0.737,-0.817,-0.8901,-0.9619,-1.0437,-1.1067,-1.419,-1.3777,-1.3164,-1.2626,-1.2006,-1.13,-1.0564,-0.984,0.0,0.0,0.0,-0.8343,-0.8614,-0.8986,-0.9342,-0.968,-0.9977,-0.9806,-0.9457,-0.898,-0.8685,-0.8187,-0.7478,-0.7467,-0.7257,-0.6879,-0.6766,-0.6598,-0.6332,-0.6009,-0.5712,-0.5488,-0.5094,-0.4747,-0.4404,-0.3958,-0.366,-0.3483,-0.3442,-0.3265,-0.2951,-0.2833,-0.2588,-0.2236,-0.1792,-0.1418,-0.1113,-0.0606,-0.0235,0.0067,0.0505,0.0851,0.099,0.1415,0.1693,0.1738,0.2134,0.2477,0.268,0.3101,0.3619,0.4269,0.5044,0.5617,0.5842,0.6153,0.6492,0.6897,0.7042,0.7315,0.7807,0.7917,0.8148,0.8648,0.902,0.9328,0.9525,0.9916,1.0137,1.0157,1.0312,1.0467,1.0457,1.0562,1.0687,1.0611,1.0582,1.0582,1.039,0.9971,0.9594,0.9306,0.8886,0.8439,0.7897,0.7308,0.6592,0.5787,0.4918,0.4041,0.3114,0.2135,0.1068,-0.0133,-0.1155,-0.226,-0.3494,-0.4539,-0.5492,-0.6319,-0.721,-0.7923,-0.8259,-0.9213,-1.0118,-1.425,-1.3958,-1.3119,-1.26,-1.2347,-1.141,-1.0192,-0.8964,-0.8801,-0.8453,-0.7961,-0.7872,-0.8213,-0.8804,-0.8906,-0.9321,-0.9964,-0.9606,-0.9205,0.0,-0.8396,-0.7856,-0.7322,-0.7317,-0.7203,-0.6879,-0.6766,-0.6544,-0.6228,-0.6059,-0.5828,-0.5617,-0.5348,-0.4981,-0.4513,-0.4055,-0.388,-0.3836,-0.3527,-0.3306,-0.317,-0.2961,-0.271,-0.2387,-0.1978,-0.1563,-0.1217,-0.074,-0.0336,-0.0067,0.0437,0.0787,0.0929,0.1359,0.1671,0.1805,0.2056,0.2362,0.2698,0.3179,0.3856,0.4703,0.5244,0.5679,0.6114,0.6291,0.6667,0.732,0.7461,0.7768,0.8317,0.8431,0.8658,0.9031,0.9308,0.9609,0.9925,1.0176,1.0341,1.0341,1.0495,1.0611,1.0649,1.0677,1.0715,1.0677,1.0687,1.0611,1.0418,1.0157,0.9862,0.9634,0.9346,0.8895,0.8365,0.7904,0.7224,0.6471,0.5744,0.5009,0.4168,0.3196,0.2135,0.1113,0.0044,-0.1066,-0.2176,-0.3234,-0.42,-0.5077,-0.5979,-0.6622,-0.6994,-0.7736,-0.8553,-1.4201,-1.3962,-1.3179,-1.2663,-1.2396,-1.1243,-1.0015,-0.889,-0.8621,-0.8217,-0.7699,-0.7628,-0.7891,-0.8402,-0.8419,-0.8739,-0.9278,-0.9089,-0.8776,-0.8419,-0.8187,-0.7827,-0.7328,-0.7252,-0.7031,-0.682,-0.6598,-0.644,-0.6232,-0.6059,-0.5896,-0.5668,-0.5386,-0.4952,-0.4471,-0.4279,-0.4059,-0.3928,-0.366,-0.3435,-0.3214,-0.3116,-0.2893,-0.248,-0.2098,-0.1702,-0.1266,-0.0751,-0.037,-0.0034,0.037,0.0698,0.1004,0.1356,0.1696,0.1865,0.2251,0.2593,0.2913,0.362,0.4312,0.4966,0.5302,0.5758,0.6393,0.6626,0.694,0.741,0.7734,0.8129,0.8657,0.882,0.905,0.9487,0.961,0.9772,1.004,1.0235,1.0351,1.0418,1.0544,1.0659,1.0736,1.0774,1.0812,1.0812,1.0774,1.0687,1.0495,1.0244,1.0019,0.9872,0.9536,0.9096,0.8692,0.8193,0.7648,0.6979,0.6343,0.5658,0.4952,0.4037,0.3158,0.2182,0.1157,0.0089,-0.0977,-0.2041,-0.297,-0.3767,-0.4726,-0.5417,-0.5845,-0.6573,-0.7578,-1.4065,-1.392,-1.3193,-1.2652,-1.2191,-1.1116,-1.0033,-0.898,-0.8708,-0.819,-0.7531,-0.7441,-0.7663,-0.8055,-0.8066,-0.8269,-0.8645,-0.8615,-0.8431,-0.814,-0.8014,-0.772,-0.7328,-0.7139,-0.6977,-0.6761,-0.6544,-0.6386,-0.6228,-0.6059,-0.5896,-0.5714,-0.5328,-0.4891,-0.4522,-0.4439,-0.4245,-0.3943,-0.3762,-0.3568,-0.3303,-0.3258,-0.3023,-0.256,-0.2192,-0.1821,-0.1313,-0.084,-0.0409,-0.0067,0.0269,0.0639,0.1044,0.1377,0.1676,0.1965,0.2424,0.2856,0.3247,0.4009,0.466,0.5036,0.5334,0.5784,0.6487,0.6913,0.7265,0.7594,0.8035,0.8531,0.8955,0.9197,0.9431,0.9737,0.9823,0.9922,1.0079,1.0205,1.0322,1.039,1.0505,1.0659,1.0736,1.0812,1.085,1.0822,1.0794,1.0697,1.0544,1.0273,1.0088,0.9892,0.9567,0.9168,0.8814,0.8406,0.7897,0.7398,0.6774,0.6173,0.5567,0.487,0.4045,0.3158,0.2226,0.1202,0.0178,-0.0844,-0.1733,-0.2529,-0.3453,-0.4287,-0.4899,-0.5594,-0.6664,-1.4065,-1.3564,-1.3046,-1.2283,-1.1449,-1.123,-1.0399,-0.9157,-0.9029,-0.8421,-0.7486,-0.7356,-0.756,-0.7869,-0.7937,-0.8183,-0.8627,-0.8435,-0.8259,-0.8043,-0.7718,-0.7436,-0.7317,-0.7192,-0.7036,-0.6874,-0.6712,-0.6544,-0.6332,-0.6109,-0.5837,-0.5601,-0.5275,-0.5016,-0.4833,-0.4561,-0.4256,-0.4008,-0.3736,-0.3619,-0.3612,-0.3347,-0.302,-0.2688,-0.2303,-0.1845,-0.1327,-0.0945,-0.0637,-0.027,0.0101,0.0505,0.0908,0.1274,0.1671,0.2062,0.2474,0.297,0.3579,0.4113,0.457,0.489,0.5284,0.5766,0.6376,0.7043,0.7685,0.8134,0.8523,0.8923,0.9406,0.9591,0.967,0.9716,0.9853,1.001,1.0088,1.0205,1.0322,1.038,1.0467,1.0611,1.0687,1.0715,1.0725,1.0736,1.0659,1.0544,1.0361,1.0196,0.9971,0.9744,0.9457,0.9159,0.8797,0.8529,0.816,0.7663,0.7167,0.6653,0.6167,0.5524,0.4748,0.4045,0.3293,0.2313,0.129,0.0356,-0.0489,-0.1379,-0.2222,-0.3064,-0.4033,-0.4687,-0.5503,-1.392,-1.3492,-1.3046,-1.2311,-1.1382,-1.1075,-1.0287,-0.919,-0.8831,-0.8251,-0.7517,-0.7443,-0.7475,-0.7571,-0.7571,-0.7738,-0.7979,-0.7886,-0.7729,-0.7626,-0.7464,-0.7311,-0.7198,-0.7036,-0.6928,-0.6879,-0.6652,-0.649,-0.6386,-0.6109,-0.5896,-0.5727,-0.5487,-0.5292,-0.5024,-0.4829,-0.456,-0.4268,-0.3968,-0.3757,-0.3585,-0.322,-0.2885,-0.257,-0.2171,-0.1782,-0.135,-0.0941,-0.0505,-0.0141,0.024,0.0606,0.101,0.1341,0.1709,0.2081,0.2679,0.3208,0.3667,0.4123,0.4505,0.4852,0.5431,0.5989,0.6652,0.7303,0.7913,0.8465,0.8832,0.9147,0.935,0.9448,0.9527,0.9536,0.9625,0.9744,0.9862,0.9941,1.0049,1.0196,1.0273,1.0351,1.0495,1.0611,1.0611,1.0534,1.0467,1.0351,1.0205,1.001,0.9823,0.9616,0.9328,0.9047,0.8814,0.8496,0.8167,0.7836,0.7426,0.6956,0.6647,0.6002,0.5318,0.4792,0.4041,0.3202,0.2271,0.1425,0.0579,-0.0312,-0.1293,-0.2226,-0.3108,-0.3591,-0.4204,-1.3848,-1.3346,-1.29,-1.2231,-1.1471,-1.0985,-1.0243,-0.9383,-0.8914,-0.8404,-0.7738,-0.7717,-0.756,-0.7427,-0.745,-0.7432,-0.7526,-0.7521,-0.7467,-0.7365,-0.7311,-0.7257,-0.7144,-0.6982,-0.6879,-0.6825,-0.6544,-0.6381,-0.6273,-0.6114,-0.595,-0.5791,-0.5677,-0.5446,-0.5165,-0.4951,-0.4696,-0.442,-0.4036,-0.3744,-0.3514,-0.3063,-0.2729,-0.2544,-0.2175,-0.1787,-0.1382,-0.0946,-0.0487,-0.0073,0.0281,0.0615,0.101,0.1377,0.1776,0.2247,0.2845,0.334,0.3667,0.4053,0.4502,0.4981,0.5524,0.6187,0.6841,0.7455,0.8023,0.8537,0.8895,0.9079,0.9248,0.9328,0.9337,0.9377,0.9466,0.9594,0.9713,0.9783,0.9853,1.0049,1.0088,1.0127,1.0283,1.0351,1.039,1.0312,1.0196,1.0127,1.001,0.9783,0.9545,0.9368,0.9047,0.8895,0.8822,0.8496,0.8167,0.7912,0.7538,0.7125,0.6907,0.6349,0.5798,0.5231,0.4613,0.3949,0.3155,0.2357,0.1428,0.0625,-0.0357,-0.1293,-0.1827,-0.2315,-0.2716,-1.3768,-1.3112,-1.2378,-1.1909,-1.1626,-1.1242,-1.058,-0.9695,-0.9522,-0.8925,-0.8194,-0.8135,-0.7995,-0.7747,-0.7714,-0.7589,-0.7495,-0.7484,-0.7478,-0.7467,-0.7365,-0.7311,-0.7263,-0.7041,-0.682,-0.6761,-0.6544,-0.6273,-0.6059,-0.6,-0.5896,-0.5791,-0.5677,-0.5508,-0.5253,-0.4908,-0.4658,-0.4429,-0.3843,-0.3419,-0.3345,-0.2829,-0.2593,-0.2593,-0.2235,-0.1795,-0.1437,-0.109,-0.0684,-0.0183,0.0145,0.0496,0.0916,0.1276,0.1876,0.2577,0.2977,0.334,0.3672,0.4101,0.4548,0.5134,0.5613,0.6186,0.696,0.7494,0.7921,0.8382,0.8602,0.8846,0.9136,0.9266,0.9395,0.9435,0.9563,0.9674,0.9744,0.9734,0.9862,0.998,0.998,1.0019,1.0019,1.0029,1.0019,1.0019,0.9902,0.9783,0.9704,0.9496,0.9248,0.9047,0.8765,0.8561,0.8635,0.8365,0.816,0.7946,0.7579,0.7209,0.695,0.6647,0.6184,0.5761,0.5226,0.4613,0.3949,0.3155,0.2184,0.1339,0.0536,-0.0223,-0.067,-0.1073,-0.1475,-1.3569,-1.2684,-1.1952,-1.1512,-1.1247,-1.0891,-1.0398,-0.9873,-0.9352,-0.8927,-0.8498,-0.8313,-0.8054,-0.7894,-0.7996,-0.7799,-0.7455,-0.7433,-0.74,-0.7268,-0.7192,-0.7192,-0.7139,-0.709,-0.7031,-0.6918,-0.6707,-0.6436,-0.6114,-0.6059,-0.595,-0.5791,-0.5677,-0.5458,-0.5171,-0.4957,-0.4663,-0.4288,-0.3836,-0.3553,-0.3278,-0.2834,-0.2593,-0.246,-0.2061,-0.1781,-0.1533,-0.1112,-0.0705,-0.0321,0.0038,0.0434,0.0815,0.1471,0.2045,0.2543,0.2977,0.334,0.3719,0.4226,0.4711,0.5172,0.5896,0.6484,0.7037,0.7524,0.7962,0.8226,0.8414,0.861,0.8724,0.8943,0.9114,0.9185,0.9306,0.9386,0.9417,0.9457,0.9576,0.9744,0.9832,0.9862,0.9862,0.9832,0.9793,0.9695,0.9646,0.9536,0.9386,0.9217,0.9016,0.8854,0.861,0.8406,0.8373,0.8167,0.7961,0.787,0.7621,0.7412,0.716,0.6732,0.6313,0.6105,0.5669,0.5096,0.4347,0.3558,0.2674,0.1964,0.1162,0.076,0.0447,-0.0045,-0.0402,-1.3349,-1.2445,-1.1757,-1.1294,-1.0914,-1.0657,-1.0329,-0.9813,-0.9357,-0.9018,-0.8716,-0.8412,-0.8217,-0.8101,-0.8269,-0.8059,-0.7688,-0.7602,-0.7435,-0.7214,-0.7203,-0.716,-0.7095,-0.7031,-0.7031,-0.6982,-0.6756,-0.649,-0.6282,-0.6114,-0.6005,-0.5845,-0.5732,-0.5513,-0.5183,-0.5014,-0.4678,-0.4354,-0.401,-0.3667,-0.3342,-0.2938,-0.2582,-0.233,-0.2014,-0.1705,-0.1524,-0.1048,-0.064,-0.0293,0.0079,0.0494,0.1044,0.1731,0.2259,0.2606,0.3101,0.3521,0.3916,0.4383,0.4887,0.5347,0.6041,0.6653,0.7081,0.758,0.7897,0.8085,0.8201,0.8316,0.8488,0.8659,0.879,0.8943,0.9105,0.9177,0.9177,0.9288,0.9368,0.9506,0.9585,0.9625,0.9625,0.9594,0.9506,0.9408,0.9377,0.9257,0.9105,0.8903,0.8781,0.8602,0.8406,0.8209,0.8044,0.787,0.7836,0.7746,0.7621,0.7454,0.7202,0.6816,0.6526,0.6361,0.5927,0.5361,0.4661,0.3869,0.3164,0.2455,0.201,0.1609,0.1297,0.0939,0.0581,-1.3001,-1.2375,-1.1688,-1.1155,-1.0849,-1.0676,-1.0296,-0.9828,-0.9513,-0.9157,-0.8851,-0.8564,-0.8463,-0.8431,-0.8404,-0.8355,-0.8118,-0.7925,-0.7704,-0.741,-0.7394,-0.7338,-0.716,-0.7062,-0.6991,-0.6965,-0.6618,-0.6445,-0.6386,-0.6228,-0.6114,-0.6005,-0.585,-0.5572,-0.5246,-0.5014,-0.4791,-0.4525,-0.4081,-0.3746,-0.363,-0.3003,-0.2609,-0.2438,-0.202,-0.1614,-0.1299,-0.094,-0.0528,-0.0085,0.021,0.0738,0.1374,0.1971,0.2482,0.2851,0.3368,0.3876,0.4295,0.4635,0.5088,0.5673,0.6111,0.6578,0.7107,0.7482,0.7712,0.787,0.7953,0.8103,0.8332,0.8414,0.8537,0.883,0.9024,0.9136,0.9168,0.9248,0.9288,0.9217,0.9248,0.9248,0.9217,0.9217,0.9177,0.9136,0.9024,0.8911,0.883,0.8578,0.8414,0.8332,0.8118,0.7919,0.7746,0.7621,0.7621,0.7621,0.7454,0.7328,0.7112,0.6774,0.6575,0.641,0.6019,0.5453,0.4879,0.4136,0.3697,0.3075,0.2768,0.237,0.2012,0.17,0.1477,-1.268,-1.2088,-1.1249,-1.0788,-1.0497,-1.0206,-0.9985,-0.9788,-0.9427,-0.9082,-0.8742,-0.859,-0.8409,-0.8208,-0.8242,-0.8264,-0.8191,-0.8244,-0.8075,-0.7747,-0.7693,-0.765,-0.758,-0.7517,-0.738,-0.713,-0.6992,-0.6744,-0.641,-0.6287,-0.6069,-0.59,-0.5732,-0.5458,-0.5069,-0.4901,-0.468,-0.4226,-0.3943,-0.369,-0.3379,-0.2854,-0.2461,-0.2197,-0.1774,-0.1389,-0.103,-0.0986,-0.0758,-0.0308,-0.0043,0.0495,0.127,0.1917,0.242,0.2814,0.3394,0.3893,0.438,0.4807,0.5273,0.5774,0.6202,0.6629,0.7007,0.7245,0.7461,0.7614,0.7746,0.787,0.8036,0.8111,0.8316,0.8732,0.8805,0.8846,0.8886,0.8975,0.9024,0.8984,0.9024,0.9033,0.8992,0.8943,0.8886,0.8854,0.8732,0.8618,0.8414,0.8291,0.8028,0.7814,0.7655,0.7621,0.7496,0.7412,0.737,0.737,0.7286,0.7202,0.7027,0.6774,0.6617,0.6325,0.5976,0.5539,0.4927,0.4487,0.4005,0.3653,0.3255,0.2948,0.2684,0.2373,0.2059,-1.2567,-1.1934,-1.1061,-1.0503,-1.0208,-0.9938,-0.9777,-0.9639,-0.9353,-0.8996,-0.8737,-0.8569,-0.8393,-0.8268,-0.8306,-0.8306,-0.8306,-0.8447,-0.835,-0.8075,-0.7951,-0.7887,-0.7817,-0.7801,-0.7618,-0.737,-0.7281,-0.6991,-0.6563,-0.6336,-0.6087,-0.5804,-0.5677,-0.5395,-0.4956,-0.4846,-0.4574,-0.4119,-0.383,-0.3551,-0.3169,-0.2746,-0.2403,-0.2005,-0.1627,-0.1275,-0.0943,-0.094,-0.0718,-0.0268,0.0218,0.0764,0.141,0.1982,0.247,0.2923,0.3453,0.3988,0.4441,0.4927,0.537,0.573,0.6096,0.6477,0.6774,0.6956,0.716,0.737,0.7538,0.767,0.7787,0.7863,0.8062,0.8398,0.848,0.8561,0.8602,0.8692,0.8741,0.8749,0.879,0.8781,0.87,0.8659,0.8602,0.8561,0.8439,0.8275,0.8118,0.8002,0.7739,0.7523,0.7447,0.737,0.7286,0.7202,0.7125,0.7125,0.7083,0.7034,0.695,0.6738,0.6532,0.619,0.5841,0.5501,0.4932,0.4705,0.4308,0.4005,0.3612,0.3347,0.2993,0.2729,0.2462,-1.2603,-1.1913,-1.0938,-1.0321,-1.004,-0.9886,-0.9644,-0.9371,-0.9276,-0.9058,-0.8786,-0.8602,-0.8489,-0.8457,-0.8382,-0.8441,-0.8447,-0.8511,-0.8501,-0.8409,-0.8264,-0.8081,-0.7941,-0.7925,-0.7832,-0.7589,-0.7454,-0.7155,-0.6835,-0.6516,-0.6167,-0.5848,-0.5644,-0.5344,-0.4956,-0.4743,-0.4522,-0.4079,-0.3796,-0.346,-0.3156,-0.2759,-0.2374,-0.1937,-0.1575,-0.126,-0.0909,-0.0675,-0.0359,0.0225,0.0804,0.1244,0.165,0.2148,0.2612,0.2956,0.3561,0.4065,0.4557,0.4923,0.5341,0.5685,0.5873,0.6105,0.6441,0.6702,0.6914,0.7125,0.7293,0.7461,0.7587,0.767,0.7787,0.7938,0.8111,0.8283,0.8439,0.8472,0.8447,0.8414,0.8529,0.8602,0.8414,0.8365,0.8373,0.8324,0.8152,0.7987,0.7829,0.767,0.7579,0.7412,0.7202,0.7118,0.6992,0.6907,0.6865,0.6829,0.6787,0.6781,0.6738,0.6526,0.6313,0.5964,0.5669,0.5323,0.5024,0.4753,0.4447,0.4056,0.3748,0.3568,0.3255,0.2904,0.2595,-1.2673,-1.1852,-1.0672,-1.011,-0.9926,-0.9615,-0.9314,-0.9142,-0.912,-0.8881,-0.8509,-0.8527,-0.8388,-0.8192,-0.8242,-0.8301,-0.8306,-0.8447,-0.8517,-0.8506,-0.8463,-0.8398,-0.8339,-0.8318,-0.8221,-0.8019,-0.7803,-0.7567,-0.7165,-0.6687,-0.6292,-0.5997,-0.5588,-0.5187,-0.4798,-0.4629,-0.4245,-0.3805,-0.3697,-0.335,-0.2868,-0.2585,-0.222,-0.1763,-0.1428,-0.1094,-0.0654,-0.0182,0.0135,0.036,0.0763,0.1165,0.1614,0.2101,0.2546,0.299,0.3568,0.4096,0.453,0.4888,0.5241,0.5636,0.5723,0.5933,0.6227,0.6447,0.6611,0.6816,0.6979,0.716,0.7293,0.7419,0.7496,0.7648,0.7863,0.8028,0.8111,0.8144,0.8103,0.8111,0.8193,0.8152,0.8152,0.8111,0.8077,0.8002,0.787,0.7663,0.7496,0.7328,0.7245,0.6999,0.6836,0.6745,0.6653,0.6605,0.6568,0.6496,0.6453,0.6404,0.6313,0.6184,0.5927,0.562,0.5453,0.5149,0.498,0.4718,0.4416,0.402,0.3796,0.3527,0.317,0.286,0.2595,-1.2861,-1.2109,-1.079,-1.0174,-0.9983,-0.9594,-0.9274,-0.9104,-0.8969,-0.8772,-0.8489,-0.8514,-0.8443,-0.8257,-0.8306,-0.8306,-0.8371,-0.8447,-0.8517,-0.8517,-0.8506,-0.8501,-0.8506,-0.8511,-0.8366,-0.8186,-0.8043,-0.7726,-0.7289,-0.6847,-0.642,-0.6081,-0.5575,-0.515,-0.4688,-0.4467,-0.4135,-0.3694,-0.3471,-0.3135,-0.2629,-0.242,-0.2051,-0.165,-0.1324,-0.1039,-0.0431,0.0093,0.0413,0.0588,0.0852,0.1254,0.1658,0.2059,0.2504,0.2951,0.3439,0.3877,0.436,0.467,0.5019,0.5333,0.5463,0.5631,0.5884,0.6056,0.6221,0.6471,0.6689,0.6865,0.7034,0.716,0.7286,0.737,0.753,0.7746,0.7821,0.787,0.7863,0.7863,0.787,0.7863,0.7863,0.7814,0.778,0.7712,0.7594,0.7377,0.7125,0.6992,0.6907,0.6702,0.6581,0.6538,0.6447,0.6355,0.6264,0.619,0.6067,0.6019,0.5927,0.5798,0.5583,0.5366,0.5193,0.4975,0.4762,0.4543,0.4284,0.3932,0.3755,0.3445,0.3084,0.2726,0.2462,-1.323,-1.2319,-1.1145,-1.0397,-0.9989,-0.9652,-0.9466,-0.9274,-0.904,-0.8851,-0.8776,-0.8576,-0.8533,-0.8517,-0.8447,-0.8511,-0.8511,-0.8511,-0.8517,-0.8517,-0.8517,-0.8517,-0.8517,-0.8517,-0.8361,-0.8205,-0.8042,-0.7797,-0.738,-0.6894,-0.6463,-0.6053,-0.5603,-0.5137,-0.4696,-0.4317,-0.3916,-0.3527,-0.319,-0.2854,-0.2465,-0.223,-0.1873,-0.1404,-0.1169,-0.0818,-0.0245,0.0192,0.0473,0.0726,0.1079,0.139,0.1748,0.2103,0.2462,0.2865,0.322,0.3619,0.4016,0.4403,0.4709,0.4937,0.5154,0.5323,0.5491,0.5669,0.5879,0.6142,0.6313,0.6568,0.6787,0.6907,0.7034,0.7118,0.716,0.7335,0.7545,0.7628,0.767,0.7628,0.7635,0.7635,0.7628,0.753,0.744,0.7412,0.7293,0.7125,0.6914,0.6787,0.6696,0.6575,0.6453,0.6325,0.6239,0.611,0.5976,0.5847,0.568,0.5588,0.5491,0.5361,0.5236,0.5062,0.4888,0.467,0.4364,0.4148,0.3972,0.3751,0.3442,0.3223,0.2957,0.2551,0.2239,-1.3382,-1.2039,-1.1268,-1.0568,-1.0008,-0.9798,-0.96,-0.9268,-0.921,-0.9022,-0.8835,-0.8776,-0.8641,-0.8517,-0.8517,-0.8517,-0.8517,-0.8517,-0.8517,-0.8517,-0.8517,-0.8511,-0.8511,-0.8511,-0.8376,-0.8172,-0.8047,-0.7822,-0.7426,-0.6976,-0.6492,-0.6072,-0.5569,-0.502,-0.4572,-0.412,-0.3688,-0.3244,-0.2912,-0.2633,-0.2296,-0.202,-0.1732,-0.1271,-0.0866,-0.0418,-0.0101,0.0249,0.0538,0.0802,0.1054,0.1402,0.1751,0.2018,0.233,0.2732,0.3132,0.3486,0.3792,0.414,0.4491,0.4666,0.4845,0.5024,0.5236,0.5366,0.5545,0.5761,0.5976,0.6233,0.6447,0.6617,0.6696,0.6774,0.6859,0.695,0.7083,0.7286,0.7377,0.7335,0.7293,0.7342,0.7426,0.7245,0.7112,0.707,0.6992,0.6865,0.6702,0.6575,0.6489,0.6404,0.6233,0.611,0.5981,0.5847,0.5674,0.5496,0.5328,0.5067,0.5014,0.5014,0.4888,0.4757,0.4631,0.432,0.4056,0.3836,0.3663,0.3398,0.3176,0.2954,0.2687,0.2328,0.2016,-1.3637,-1.2165,-1.151,-1.0757,-1.0072,-0.9926,-0.967,-0.9408,-0.9332,-0.921,-0.9028,-0.8899,-0.8705,-0.8646,-0.8517,-0.8517,-0.8517,-0.8517,-0.8517,-0.8517,-0.8517,-0.8447,-0.8371,-0.8376,-0.8306,-0.8172,-0.7917,-0.7727,-0.7423,-0.7026,-0.6549,-0.6069,-0.5506,-0.4994,-0.45,-0.3981,-0.353,-0.3132,-0.2856,-0.2521,-0.2186,-0.1964,-0.1572,-0.1121,-0.0661,-0.0215,0.0052,0.0362,0.0659,0.0984,0.1247,0.1489,0.1759,0.1975,0.2288,0.2687,0.2996,0.335,0.366,0.388,0.4136,0.4456,0.4583,0.4753,0.4932,0.5062,0.5241,0.5415,0.5626,0.5841,0.6067,0.6147,0.627,0.6355,0.6489,0.6526,0.666,0.6907,0.7167,0.709,0.6999,0.7041,0.7034,0.6907,0.6829,0.6745,0.6732,0.6611,0.6398,0.627,0.6233,0.6147,0.5976,0.5847,0.5717,0.5545,0.5328,0.5149,0.4971,0.4666,0.4403,0.4495,0.4587,0.4412,0.4236,0.406,0.3796,0.3575,0.3353,0.3132,0.2909,0.2687,0.242,0.2107,0.1792,-1.3741,-1.2466,-1.1822,-1.1019,-1.0194,-1.0002,-0.9798,-0.9542,-0.9402,-0.9274,-0.9274,-0.8964,-0.8835,-0.8776,-0.8582,-0.8517,-0.8517,-0.8511,-0.8511,-0.8447,-0.8441,-0.8306,-0.8172,-0.8107,-0.8042,-0.8037,-0.7787,-0.7596,-0.7265,-0.6999,-0.6456,-0.6054,-0.5454,-0.4941,-0.4435,-0.39,-0.338,-0.3026,-0.2687,-0.241,-0.2128,-0.1852,-0.1402,-0.084,-0.0503,-0.011,0.0216,0.0482,0.0792,0.1175,0.1526,0.1716,0.1871,0.2056,0.2329,0.27,0.2992,0.3278,0.3563,0.3722,0.3938,0.4264,0.4414,0.4549,0.4691,0.4853,0.5046,0.5207,0.5435,0.5663,0.5704,0.5791,0.5908,0.6029,0.615,0.6215,0.6296,0.6606,0.6768,0.6781,0.6702,0.6702,0.6702,0.666,0.6538,0.6416,0.641,0.6355,0.6142,0.6013,0.6013,0.597,0.5798,0.5631,0.5501,0.5285,0.5067,0.4845,0.4622,0.4316,0.3965,0.3968,0.406,0.4016,0.384,0.3711,0.3534,0.3309,0.3087,0.2865,0.2687,0.2464,0.2196,0.1928,0.1569,-1.3807,-1.2487,-1.206,-1.139,-1.0574,-1.0155,-0.9938,-0.974,-0.9542,-0.9408,-0.9274,-0.9081,-0.8894,-0.877,-0.8576,-0.8517,-0.8517,-0.8447,-0.8376,-0.8306,-0.8236,-0.8172,-0.7982,-0.7782,-0.7652,-0.7591,-0.7461,-0.7265,-0.6872,-0.6609,-0.6322,-0.5875,-0.5414,-0.482,-0.4255,-0.373,-0.3266,-0.2865,-0.2519,-0.2186,-0.1908,-0.157,-0.1122,-0.0561,-0.028,0.0056,0.0334,0.0666,0.0986,0.1274,0.1532,0.1756,0.2005,0.2278,0.2567,0.2791,0.3077,0.3308,0.3559,0.3775,0.3986,0.4192,0.4304,0.4501,0.469,0.4786,0.4983,0.5243,0.5443,0.5706,0.5836,0.5709,0.5786,0.5997,0.6165,0.6213,0.6265,0.6368,0.6464,0.6355,0.6353,0.6379,0.6494,0.6518,0.6419,0.6331,0.629,0.6194,0.597,0.5884,0.5836,0.575,0.5669,0.5453,0.5285,0.5019,0.4801,0.4587,0.4364,0.41,0.3792,0.3575,0.353,0.3486,0.3486,0.3445,0.3268,0.3043,0.2818,0.2593,0.2417,0.2243,0.1973,0.1705,0.1344,-1.3887,-1.272,-1.2416,-1.1676,-1.0877,-1.0457,-1.0058,-0.981,-0.9612,-0.9408,-0.9274,-0.9081,-0.8894,-0.877,-0.8582,-0.8517,-0.8511,-0.8376,-0.8306,-0.8166,-0.8107,-0.7982,-0.7787,-0.7521,-0.7265,-0.7068,-0.6937,-0.6806,-0.6548,-0.6482,-0.6086,-0.5654,-0.5213,-0.4687,-0.4122,-0.3636,-0.3187,-0.2711,-0.2354,-0.2073,-0.1797,-0.1346,-0.0841,-0.0449,-0.0112,0.0112,0.0393,0.0729,0.1003,0.1319,0.1588,0.1788,0.2088,0.2387,0.2672,0.275,0.3031,0.3277,0.3374,0.3621,0.3761,0.3963,0.4122,0.4267,0.4515,0.4648,0.4923,0.5166,0.5309,0.5452,0.5541,0.5609,0.5639,0.5687,0.5903,0.5961,0.5951,0.6044,0.6055,0.6067,0.6233,0.6383,0.6447,0.643,0.6305,0.6242,0.6186,0.6029,0.5821,0.5782,0.5717,0.5624,0.5507,0.5331,0.5119,0.4897,0.4678,0.4447,0.418,0.3869,0.3626,0.3411,0.3182,0.3043,0.3046,0.309,0.3043,0.2818,0.2593,0.2368,0.2239,0.2062,0.1794,0.1479,0.1165,-1.3938,-1.3104,-1.2678,-1.202,-1.127,-1.0836,-1.0441,-1.0061,-0.9854,-0.9664,-0.9421,-0.919,-0.8978,-0.8826,-0.8598,-0.8441,-0.8441,-0.8236,-0.8107,-0.7977,-0.7917,-0.7722,-0.7456,-0.726,-0.7003,-0.6613,-0.628,-0.6284,-0.6284,-0.6152,-0.5892,-0.547,-0.5036,-0.4538,-0.3982,-0.3452,-0.3038,-0.2681,-0.23,-0.1962,-0.1626,-0.1122,-0.0673,-0.0393,-0.0112,0.0168,0.0393,0.0729,0.101,0.1286,0.1623,0.1846,0.2071,0.2465,0.2621,0.2659,0.289,0.309,0.33,0.3411,0.3643,0.3901,0.3971,0.4117,0.4332,0.4668,0.4946,0.5128,0.525,0.5267,0.5391,0.5503,0.5553,0.5553,0.5659,0.5736,0.5723,0.5793,0.5858,0.5977,0.6216,0.633,0.6336,0.6261,0.6175,0.6153,0.61,0.598,0.582,0.5727,0.5677,0.551,0.5365,0.5183,0.5015,0.4813,0.46,0.4477,0.413,0.3809,0.3501,0.3203,0.3015,0.287,0.2684,0.2729,0.2684,0.264,0.2415,0.2237,0.2061,0.1882,0.1614,0.1344,0.103,-1.3863,-1.3411,-1.2778,-1.2325,-1.1997,-1.1345,-1.096,-1.0765,-1.0467,-1.0236,-0.981,-0.9512,-0.9214,-0.8948,-0.844,-0.8247,-0.8172,-0.8047,-0.7852,-0.7717,-0.7591,-0.733,-0.7007,-0.6683,-0.6548,-0.6222,-0.5885,-0.5818,-0.5822,-0.5693,-0.5495,-0.5216,-0.4734,-0.4213,-0.3816,-0.3331,-0.2837,-0.2457,-0.205,-0.1628,-0.1234,-0.0729,-0.0505,-0.0336,-0.0056,0.0224,0.0393,0.0729,0.101,0.129,0.1628,0.1906,0.2184,0.241,0.2573,0.2717,0.2934,0.3207,0.3406,0.3498,0.3604,0.3866,0.4047,0.4239,0.4419,0.4681,0.495,0.5066,0.5213,0.5346,0.5436,0.564,0.5716,0.5681,0.5633,0.5708,0.5676,0.5615,0.5681,0.5809,0.6029,0.608,0.6101,0.6041,0.598,0.6014,0.6041,0.5919,0.5821,0.5704,0.5632,0.5462,0.5311,0.5123,0.4922,0.4708,0.4542,0.443,0.4084,0.3718,0.3431,0.3163,0.2974,0.2787,0.2598,0.2415,0.2415,0.2328,0.2239,0.2105,0.1973,0.1703,0.1389,0.1165,0.0896,-1.4137,-1.376,-1.3042,-1.2599,-1.2289,-1.1653,-1.1235,-1.0899,-1.0673,-1.0333,-0.9904,-0.9742,-0.9332,-0.8824,-0.8275,-0.8112,-0.8047,-0.7852,-0.7657,-0.7391,-0.7199,-0.6872,-0.6613,-0.635,-0.6218,-0.5822,-0.5624,-0.5359,-0.5362,-0.5226,-0.5093,-0.4767,-0.4425,-0.4035,-0.368,-0.325,-0.2849,-0.2353,-0.183,-0.1404,-0.1066,-0.0673,-0.0393,-0.0393,0.0,0.0224,0.0449,0.0617,0.0954,0.1234,0.1459,0.1682,0.2017,0.224,0.2408,0.2577,0.2742,0.3019,0.3241,0.3416,0.3583,0.3747,0.391,0.4119,0.4408,0.4629,0.4846,0.4952,0.5124,0.5238,0.5348,0.5462,0.5462,0.5462,0.5458,0.5462,0.5462,0.5572,0.5588,0.5668,0.5778,0.5827,0.5911,0.5958,0.5952,0.6036,0.6007,0.5912,0.578,0.5635,0.5489,0.5362,0.5255,0.5109,0.4897,0.465,0.4466,0.4288,0.3982,0.3607,0.3325,0.3083,0.2936,0.2705,0.2506,0.2326,0.2194,0.2194,0.2194,0.2016,0.1839,0.1569,0.1299,0.0898,0.0585,-1.4281,-1.4057,-1.3258,-1.2767,-1.2557,-1.1971,-1.1508,-1.1109,-1.0962,-1.0544,-0.9995,-0.9687,-0.9187,-0.8518,-0.8063,-0.7852,-0.7857,-0.7526,-0.733,-0.7068,-0.6872,-0.6482,-0.6218,-0.6017,-0.5752,-0.5292,-0.5226,-0.503,-0.4827,-0.4691,-0.4628,-0.4303,-0.41,-0.3791,-0.3385,-0.304,-0.2644,-0.2121,-0.1598,-0.1292,-0.1066,-0.0729,-0.0505,-0.0336,-0.0112,0.0224,0.0393,0.0505,0.0785,0.1234,0.1346,0.157,0.2015,0.2184,0.2352,0.2521,0.2691,0.2856,0.3079,0.3246,0.3416,0.3583,0.3744,0.4018,0.4353,0.4522,0.4632,0.4736,0.4904,0.4959,0.5014,0.5128,0.5128,0.5128,0.5124,0.5073,0.5128,0.5238,0.5407,0.5462,0.5576,0.5626,0.5662,0.5801,0.5914,0.6024,0.601,0.5897,0.5821,0.5681,0.5668,0.5617,0.5473,0.5319,0.5097,0.4864,0.459,0.4253,0.3891,0.3627,0.3435,0.3144,0.2881,0.2652,0.2426,0.2281,0.2196,0.2194,0.215,0.1927,0.1658,0.1524,0.1211,0.081,0.0412,-1.4281,-1.4057,-1.3258,-1.2879,-1.2851,-1.2418,-1.2031,-1.1573,-1.1605,-1.1077,-1.0222,-0.9482,-0.8764,-0.824,-0.7826,-0.7587,-0.7526,-0.7138,-0.6876,-0.6613,-0.6416,-0.6086,-0.5818,-0.5554,-0.5359,-0.509,-0.4894,-0.4631,-0.4367,-0.4228,-0.4231,-0.4233,-0.3899,-0.3491,-0.3175,-0.283,-0.2348,-0.1895,-0.1428,-0.1236,-0.1066,-0.0841,-0.0561,-0.0393,-0.0224,0.0,0.0393,0.0449,0.0729,0.1234,0.129,0.1569,0.2015,0.2184,0.2352,0.2579,0.2691,0.2856,0.3021,0.3132,0.3302,0.3527,0.3747,0.3907,0.419,0.4245,0.4356,0.4519,0.4739,0.4743,0.4794,0.4849,0.4904,0.4904,0.4904,0.4956,0.5014,0.5069,0.5183,0.5297,0.5356,0.5462,0.5517,0.5677,0.5845,0.5909,0.6061,0.6004,0.6037,0.5986,0.5979,0.5967,0.582,0.5662,0.5504,0.5193,0.4737,0.4435,0.4105,0.3852,0.3592,0.3289,0.2903,0.2669,0.2443,0.2297,0.2152,0.2107,0.1971,0.1703,0.1481,0.135,0.1088,0.0685,0.0376,-1.4281,-1.4057,-1.3266,-1.29,-1.282,-1.2298,-1.1929,-1.1706,-1.1409,-1.0867,-1.0053,-0.9214,-0.862,-0.8148,-0.763,-0.733,-0.7265,-0.6811,-0.6548,-0.6284,-0.6083,-0.5752,-0.5488,-0.5289,-0.509,-0.4824,-0.4628,-0.4428,-0.4097,-0.3961,-0.3828,-0.3763,-0.3563,-0.336,-0.3057,-0.2645,-0.2157,-0.1782,-0.1433,-0.1236,-0.1066,-0.0841,-0.0617,-0.0393,-0.028,0.0,0.0336,0.0393,0.0785,0.1122,0.129,0.1681,0.2071,0.2184,0.2354,0.2635,0.2691,0.2856,0.3019,0.3132,0.3246,0.3527,0.3744,0.3852,0.4079,0.4135,0.4301,0.4463,0.4632,0.4688,0.4743,0.4739,0.4794,0.4739,0.4794,0.4846,0.4901,0.5014,0.5128,0.5242,0.5297,0.5407,0.5462,0.5567,0.5736,0.5837,0.6005,0.6119,0.6173,0.6173,0.6123,0.6069,0.5905,0.5626,0.5458,0.5179,0.4849,0.4546,0.4242,0.3965,0.3634,0.3237,0.2842,0.2644,0.2454,0.2252,0.2062,0.1928,0.1794,0.1614,0.1396,0.1223,0.0915,0.0603,0.0333,-1.4137,-1.3848,-1.3185,-1.29,-1.2826,-1.2231,-1.1855,-1.1632,-1.126,-1.0539,-0.9675,-0.8931,-0.8358,-0.7942,-0.7409,-0.7073,-0.6937,-0.6609,-0.635,-0.6083,-0.5818,-0.5488,-0.5223,-0.5027,-0.4827,-0.4561,-0.4428,-0.4228,-0.3961,-0.3758,-0.3627,-0.3496,-0.3362,-0.3159,-0.286,-0.2441,-0.2032,-0.1793,-0.1509,-0.13,-0.1126,-0.0841,-0.0617,-0.0393,-0.0224,0.0056,0.0336,0.0561,0.0841,0.1178,0.1402,0.1682,0.2017,0.224,0.241,0.2579,0.2691,0.2802,0.3021,0.3246,0.3357,0.3583,0.3635,0.3802,0.3968,0.4079,0.4187,0.4463,0.4574,0.4632,0.4632,0.4629,0.4629,0.4629,0.4688,0.4739,0.4901,0.4959,0.5128,0.5242,0.5352,0.5458,0.5567,0.5677,0.5786,0.5955,0.6064,0.6173,0.6173,0.6173,0.6123,0.6014,0.585,0.5567,0.5344,0.5069,0.4846,0.4515,0.4204,0.3872,0.3559,0.3157,0.2844,0.2621,0.2399,0.2123,0.1973,0.1885,0.1749,0.1569,0.1362,0.1154,0.0837,0.0565,0.0331,-1.392,-1.3492,-1.3046,-1.29,-1.282,-1.2231,-1.1855,-1.1626,-1.1224,-1.0356,-0.9298,-0.8638,-0.8023,-0.7593,-0.7148,-0.6881,-0.6675,-0.6346,-0.6083,-0.5885,-0.5617,-0.5289,-0.5027,-0.4827,-0.4628,-0.4367,-0.4164,-0.4028,-0.3761,-0.3629,-0.3429,-0.3228,-0.3092,-0.2889,-0.2679,-0.2287,-0.2093,-0.1971,-0.1554,-0.1389,-0.1136,-0.0845,-0.0617,-0.0336,-0.0168,0.0112,0.0449,0.0673,0.0954,0.1234,0.1459,0.1738,0.2128,0.2184,0.2354,0.2635,0.2691,0.28,0.3077,0.3416,0.353,0.3585,0.3638,0.3749,0.3913,0.4021,0.4135,0.4463,0.4519,0.4519,0.4519,0.4519,0.4519,0.4574,0.4632,0.4688,0.4849,0.5014,0.5128,0.5352,0.5513,0.5618,0.5673,0.5782,0.5891,0.6059,0.6119,0.6173,0.6173,0.6178,0.6123,0.5959,0.5791,0.5626,0.5348,0.5066,0.4791,0.4519,0.4226,0.3902,0.3554,0.3242,0.2916,0.2599,0.2383,0.2149,0.1992,0.1798,0.1641,0.1484,0.1261,0.104,0.0761,0.0524,0.0382,-1.3848,-1.3492,-1.3046,-1.2753,-1.2452,-1.2003,-1.1781,-1.1601,-1.0839,-0.985,-0.8901,-0.8399,-0.7989,-0.7513,-0.7073,-0.6749,-0.6482,-0.6152,-0.5888,-0.5683,-0.5418,-0.509,-0.4827,-0.4628,-0.4498,-0.4164,-0.403,-0.383,-0.3565,-0.3431,-0.3228,-0.3025,-0.2757,-0.2555,-0.2471,-0.2229,-0.2046,-0.1828,-0.158,-0.1288,-0.1042,-0.0796,-0.0505,-0.0168,-0.0056,0.0224,0.0561,0.0841,0.1066,0.129,0.1515,0.1794,0.2128,0.2184,0.2354,0.2635,0.2691,0.28,0.3079,0.336,0.3585,0.3585,0.3641,0.3749,0.3968,0.3965,0.4187,0.4408,0.4519,0.4519,0.4519,0.4519,0.4519,0.4519,0.4629,0.4739,0.4904,0.5014,0.5183,0.5403,0.5618,0.5727,0.5837,0.595,0.6059,0.6114,0.6173,0.6173,0.6173,0.6178,0.6123,0.5959,0.5791,0.5572,0.5348,0.5069,0.4849,0.4574,0.4242,0.3895,0.3587,0.3229,0.2939,0.2641,0.2401,0.2223,0.1989,0.1763,0.1519,0.135,0.1215,0.1024,0.0833,0.0631,0.0525,-1.3775,-1.3258,-1.2926,-1.2442,-1.2025,-1.1816,-1.1514,-1.1077,-1.0182,-0.9275,-0.855,-0.8168,-0.7726,-0.7292,-0.6876,-0.6613,-0.6284,-0.5892,-0.5693,-0.5488,-0.5156,-0.4894,-0.4631,-0.4495,-0.4295,-0.4028,-0.3828,-0.3629,-0.3429,-0.3228,-0.3025,-0.2757,-0.2557,-0.2356,-0.2209,-0.205,-0.1952,-0.1789,-0.154,-0.1252,-0.0937,-0.0688,-0.0393,-0.0112,0.0112,0.0336,0.0729,0.0954,0.1178,0.1347,0.1572,0.185,0.2073,0.224,0.2354,0.2579,0.2802,0.2912,0.3135,0.3416,0.3585,0.3691,0.3694,0.3802,0.3968,0.4132,0.4301,0.4467,0.4574,0.4574,0.4574,0.4574,0.4515,0.4574,0.468,0.4791,0.4904,0.5073,0.5238,0.5458,0.5618,0.5782,0.595,0.6064,0.6173,0.6232,0.6232,0.6232,0.6228,0.6173,0.6123,0.5959,0.5791,0.5572,0.5348,0.5069,0.4849,0.4688,0.4301,0.3858,0.3534,0.3179,0.2899,0.268,0.2436,0.2221,0.1912,0.1682,0.1478,0.1302,0.1163,0.1013,0.0909,0.0746,0.0585,-1.3585,-1.2903,-1.2621,-1.2148,-1.1611,-1.149,-1.1028,-1.0156,-0.9284,-0.8732,-0.8275,-0.7744,-0.7349,-0.6951,-0.6548,-0.635,-0.6148,-0.5624,-0.5495,-0.5229,-0.496,-0.4631,-0.4434,-0.43,-0.4028,-0.3828,-0.3627,-0.3426,-0.3159,-0.2958,-0.2757,-0.249,-0.2356,-0.2154,-0.2014,-0.1872,-0.1785,-0.1618,-0.1377,-0.1094,-0.0833,-0.0515,-0.0225,0.0056,0.028,0.0561,0.0841,0.1122,0.1346,0.1515,0.1741,0.1962,0.2128,0.2184,0.241,0.2689,0.2912,0.3021,0.3132,0.3416,0.3635,0.3744,0.3796,0.3852,0.4076,0.4298,0.4463,0.4632,0.4684,0.4688,0.4691,0.4629,0.457,0.468,0.4791,0.4901,0.4959,0.5124,0.5238,0.5458,0.5567,0.5786,0.595,0.6114,0.6232,0.6232,0.6228,0.6228,0.6228,0.6277,0.6173,0.5955,0.5791,0.5631,0.5352,0.5014,0.4794,0.4577,0.4135,0.3685,0.3372,0.3125,0.2848,0.2626,0.2511,0.2263,0.1997,0.1711,0.1434,0.1299,0.1159,0.1042,0.0934,0.082,0.0653,-1.2735,-1.2235,-1.2013,-1.1632,-1.1051,-1.0384,-0.9869,-0.9582,-0.9102,-0.858,-0.8073,-0.7681,-0.7269,-0.6881,-0.6552,-0.6288,-0.5954,-0.5624,-0.5359,-0.5027,-0.4697,-0.4431,-0.4231,-0.403,-0.3761,-0.3493,-0.3293,-0.3092,-0.2891,-0.2688,-0.2488,-0.2288,-0.2153,-0.2018,-0.1816,-0.1614,-0.1536,-0.1378,-0.1203,-0.0925,-0.0599,-0.0288,0.0,0.028,0.0505,0.0729,0.101,0.1178,0.1403,0.1572,0.185,0.2017,0.2184,0.2352,0.2521,0.2691,0.2912,0.3132,0.3188,0.3416,0.3638,0.3799,0.3907,0.4132,0.4298,0.4463,0.4625,0.4739,0.4849,0.4853,0.4853,0.4794,0.4736,0.4791,0.4901,0.4959,0.5069,0.5128,0.5297,0.5513,0.5622,0.5786,0.6005,0.6119,0.6228,0.6282,0.6282,0.6282,0.6277,0.6332,0.6168,0.5955,0.5791,0.5631,0.5297,0.4959,0.4739,0.4463,0.4021,0.358,0.3345,0.3094,0.2837,0.2626,0.2465,0.2297,0.2089,0.1845,0.1539,0.1356,0.1208,0.1079,0.0956,0.0839,0.0771,-1.233,-1.1969,-1.1641,-1.1189,-1.0463,-0.9639,-0.9179,-0.9113,-0.8721,-0.8301,-0.7867,-0.74,-0.7073,-0.6683,-0.6354,-0.602,-0.5693,-0.5292,-0.5027,-0.4694,-0.4361,-0.4097,-0.3964,-0.3694,-0.3424,-0.3159,-0.3025,-0.2824,-0.2622,-0.2421,-0.2221,-0.2085,-0.1951,-0.1816,-0.1614,-0.1412,-0.1278,-0.112,-0.0898,-0.0685,-0.0362,-0.0116,0.017,0.0505,0.0673,0.0898,0.1122,0.129,0.1515,0.1684,0.1905,0.2071,0.224,0.241,0.2579,0.2747,0.2965,0.3077,0.3188,0.3466,0.3688,0.3913,0.4082,0.4349,0.4515,0.468,0.4791,0.4901,0.4959,0.4959,0.4956,0.4956,0.4901,0.4901,0.5014,0.5073,0.5128,0.5242,0.5407,0.5567,0.5732,0.5896,0.6005,0.6119,0.6228,0.6282,0.6282,0.6282,0.6277,0.6332,0.6168,0.5905,0.5795,0.5626,0.5238,0.4853,0.4577,0.4301,0.3858,0.3469,0.3249,0.3016,0.2764,0.2619,0.2471,0.2364,0.2266,0.1954,0.1644,0.1505,0.1346,0.1216,0.1085,0.0962,0.0888,-1.2236,-1.1864,-1.1407,-1.0692,-0.9938,-0.9297,-0.891,-0.8705,-0.8268,-0.7857,-0.7601,-0.7143,-0.6749,-0.6486,-0.6156,-0.5826,-0.5428,-0.5096,-0.4697,-0.4298,-0.4095,-0.3897,-0.3563,-0.3295,-0.3092,-0.2956,-0.2755,-0.2622,-0.2423,-0.2221,-0.2085,-0.1884,-0.1816,-0.1681,-0.1412,-0.1278,-0.1076,-0.0801,-0.0645,-0.0435,-0.0122,0.0059,0.0224,0.0673,0.0841,0.101,0.129,0.1515,0.1628,0.1796,0.1962,0.2071,0.2352,0.2521,0.2635,0.2802,0.2965,0.3132,0.3312,0.3604,0.3893,0.4116,0.4327,0.4657,0.4922,0.4875,0.4963,0.5073,0.5128,0.5128,0.5128,0.5073,0.5069,0.5069,0.5183,0.5238,0.5293,0.5403,0.5517,0.5677,0.5786,0.595,0.6005,0.6114,0.6119,0.6277,0.6228,0.6173,0.6228,0.6277,0.6114,0.5795,0.5686,0.5462,0.5073,0.4688,0.4411,0.4024,0.3635,0.336,0.3084,0.2916,0.2691,0.2603,0.2573,0.2487,0.2391,0.2112,0.1832,0.1676,0.1515,0.1347,0.1219,0.109,0.1014,-1.134,-1.1012,-1.0566,-1.0034,-0.9588,-0.921,-0.8829,-0.8576,-0.8182,-0.7792,-0.7526,-0.7073,-0.6683,-0.6354,-0.6024,-0.5693,-0.5296,-0.4964,-0.4631,-0.4298,-0.3961,-0.3627,-0.3293,-0.3092,-0.2891,-0.2624,-0.249,-0.2421,-0.222,-0.2085,-0.1951,-0.1816,-0.1681,-0.1412,-0.1278,-0.1144,-0.0808,-0.0605,-0.0391,-0.0251,0.0,0.0234,0.0505,0.0785,0.101,0.1234,0.1403,0.1572,0.1738,0.1903,0.2073,0.2296,0.2579,0.2635,0.2747,0.286,0.3023,0.3251,0.3503,0.3769,0.4095,0.4439,0.4766,0.5126,0.5268,0.5133,0.5148,0.5207,0.5266,0.527,0.5274,0.5274,0.5274,0.5325,0.5381,0.5432,0.5483,0.5597,0.5711,0.5804,0.5914,0.5959,0.6014,0.6,0.6059,0.6059,0.5955,0.59,0.5955,0.5955,0.595,0.5686,0.5521,0.5246,0.4908,0.4522,0.419,0.3858,0.3413,0.3137,0.2916,0.2805,0.2635,0.2691,0.2629,0.2579,0.2465,0.2294,0.2071,0.1908,0.1685,0.1515,0.1407,0.1279,0.1255,-1.087,-1.0681,-1.0117,-0.9722,-0.9454,-0.9145,-0.8765,-0.8376,-0.8112,-0.7727,-0.7265,-0.6942,-0.6618,-0.6222,-0.5958,-0.5557,-0.516,-0.4827,-0.4428,-0.4095,-0.3828,-0.3493,-0.3226,-0.2956,-0.269,-0.249,-0.2356,-0.2221,-0.2085,-0.1951,-0.1883,-0.1681,-0.1344,-0.1277,-0.1211,-0.0943,-0.0674,-0.0539,-0.0197,0.0064,0.0186,0.0414,0.0682,0.0962,0.1122,0.1347,0.1514,0.1684,0.1849,0.2015,0.2184,0.2465,0.2691,0.2805,0.2858,0.3023,0.3195,0.3436,0.3716,0.4013,0.4376,0.4743,0.5086,0.5366,0.5532,0.5486,0.5536,0.5595,0.5706,0.5711,0.5769,0.5769,0.5831,0.5889,0.5947,0.5947,0.6,0.6005,0.605,0.6066,0.6099,0.605,0.6078,0.6,0.6005,0.59,0.5845,0.5795,0.5795,0.5681,0.5626,0.5572,0.5352,0.5132,0.4798,0.4411,0.4024,0.3635,0.3246,0.297,0.2749,0.2691,0.2635,0.2579,0.2579,0.2635,0.2465,0.2352,0.224,0.2073,0.185,0.1628,0.1579,0.1591,0.1641,-1.0688,-1.0434,-0.9989,-0.9664,-0.939,-0.9081,-0.863,-0.8172,-0.7987,-0.7531,-0.6946,-0.6815,-0.642,-0.609,-0.5822,-0.5359,-0.4964,-0.4697,-0.4295,-0.3894,-0.3563,-0.3293,-0.3023,-0.2753,-0.2555,-0.2354,-0.2221,-0.2085,-0.1951,-0.1816,-0.1614,-0.1344,-0.121,-0.121,-0.1076,-0.0876,-0.0607,-0.0403,-0.0132,0.0193,0.0373,0.06,0.087,0.1078,0.1234,0.1403,0.1626,0.185,0.1959,0.2184,0.2354,0.2635,0.2802,0.2914,0.3079,0.3193,0.3449,0.3667,0.3964,0.4336,0.4717,0.5029,0.5308,0.5521,0.577,0.5888,0.5941,0.599,0.6103,0.6108,0.6169,0.6229,0.6293,0.6353,0.6357,0.6418,0.6418,0.6418,0.6366,0.6351,0.6283,0.6224,0.6142,0.6055,0.59,0.5795,0.5736,0.574,0.5686,0.5517,0.5403,0.5293,0.5128,0.4853,0.4632,0.4242,0.3855,0.3469,0.3079,0.2802,0.2579,0.2521,0.2465,0.2465,0.2465,0.2465,0.2465,0.2354,0.2296,0.2188,0.2017,0.18,0.189,0.1908,0.2062,-1.0371,-0.9926,-0.9658,-0.9396,-0.9081,-0.8765,-0.8382,-0.8052,-0.7722,-0.733,-0.6946,-0.6552,-0.6222,-0.5892,-0.5686,-0.5289,-0.4831,-0.4498,-0.4161,-0.3828,-0.3426,-0.309,-0.2822,-0.2621,-0.2423,-0.2221,-0.2085,-0.1951,-0.1748,-0.1547,-0.1412,-0.1277,-0.1143,-0.1076,-0.0876,-0.0674,-0.0472,-0.0269,0.0067,0.0393,0.0444,0.0672,0.093,0.1138,0.129,0.1515,0.174,0.1905,0.2073,0.224,0.2521,0.2802,0.2914,0.3028,0.3254,0.3511,0.3718,0.4024,0.4281,0.4658,0.5009,0.5457,0.5706,0.5921,0.6117,0.6378,0.6421,0.6387,0.6455,0.6341,0.6367,0.6428,0.6493,0.6554,0.6554,0.6671,0.6731,0.6731,0.6685,0.6579,0.6433,0.6351,0.6199,0.5983,0.5698,0.5589,0.5462,0.5462,0.5407,0.5293,0.5179,0.5069,0.4908,0.4577,0.4304,0.4076,0.3688,0.3302,0.2968,0.2689,0.2465,0.2352,0.2296,0.2296,0.2296,0.2352,0.2296,0.2352,0.2308,0.2198,0.2076,0.1973,0.2075,0.2184,0.2352]},{"header":{"parameterUnit":"m.s-1","parameterCategory":1,"la1":31.0,"la2":29.5877,"lo1":-88.7671,"lo2":-86.6584,"dy":0.0162,"dx":0.0185,"nx":115,"ny":88,"refTime":"2023-06-04T18:00:00:Z","depth":0,"parameterNumber":3,"parameterNumberName":"V-component_of_WINDS"},"data":[0.0,0.0,0.0,0.0,0.0,0.0,0.0,0.0,0.0,0.0,0.0,0.0,0.0,0.0,0.0,0.0,0.0,0.0,0.0,0.0,0.0,0.0,0.0,0.0,0.0,0.0,0.0,0.0,0.0,0.0,0.0,0.0,0.0,0.0,0.0,0.0,0.0,0.0,0.0,0.0,0.0,0.0,0.0,0.0,0.0,0.0,0.0,0.0,0.0,0.0,0.0,0.0,0.0,0.0,0.0,0.0,0.0,0.0,0.0,0.0,0.0,0.0,0.0,0.0,0.0,0.0,0.0,0.0,0.0,0.0,0.0,0.0,0.0,0.0,0.0,0.0,0.0,0.0,0.0,0.0,0.0,0.0,0.0,0.0,0.0,0.0,0.0,0.0,0.0,0.0,0.0,0.0,0.0,0.0,0.0,0.0,0.0,0.0,0.0,0.0,0.0,0.0,0.0,0.0,0.0,0.0,0.0,0.0,0.0,0.0,0.0,0.0,0.0,0.0,0.0,0.0,0.0,0.0,0.0,0.0,0.0,0.0,0.0,0.0,0.0,0.0,0.0,0.0,0.0,0.0,0.0,0.0,0.0,0.0,0.0,0.0,0.0,0.0,0.0,0.0,0.0,0.0,0.0,0.0,0.0,0.0,0.0,0.0,0.0,0.0,0.0,0.0,0.0,0.0,0.0,0.0,0.0,0.0,0.0,0.0,0.0,0.0,0.0,0.0,0.0,0.0,0.0,0.0,0.0,0.0,0.0,0.0,0.0,0.0,0.0,0.0,0.0,0.0,0.0,0.0,0.0,0.0,0.0,0.0,0.0,0.0,0.0,0.0,0.0,0.0,0.0,0.0,0.0,0.0,0.0,0.0,0.0,0.0,0.0,0.0,0.0,0.0,0.0,0.0,0.0,0.0,0.0,0.0,0.0,0.0,0.0,0.0,0.0,0.0,0.0,0.0,0.0,0.0,0.0,0.0,0.0,0.0,0.0,0.0,0.0,0.0,0.0,0.0,0.0,0.0,0.0,0.0,0.0,0.0,0.0,0.0,0.0,0.0,0.0,0.0,0.0,0.0,0.0,0.0,0.0,0.0,0.0,0.0,0.0,0.0,0.0,0.0,0.0,0.0,0.0,0.0,0.0,0.0,0.0,0.0,0.0,0.0,0.0,0.0,0.0,0.0,0.0,0.0,0.0,0.0,0.0,0.0,0.0,0.0,0.0,0.0,0.0,0.0,0.0,0.0,0.0,0.0,0.0,0.0,0.0,0.0,0.0,0.0,0.0,0.0,0.0,0.0,0.0,0.0,0.0,0.0,0.0,0.0,0.0,0.0,0.0,0.0,0.0,0.0,0.0,0.0,0.0,0.0,0.0,0.0,0.0,0.0,0.0,0.0,0.0,0.0,0.0,0.0,0.0,0.0,0.0,0.0,0.0,0.0,0.0,0.0,0.0,0.0,0.0,0.0,0.0,0.0,0.0,0.0,0.0,0.0,0.0,0.0,0.0,0.0,0.0,0.0,0.0,0.0,0.0,0.0,0.0,0.0,0.0,0.0,0.0,0.0,0.0,0.0,0.0,0.0,0.0,0.0,0.0,0.0,0.0,0.0,0.0,0.0,0.0,0.0,0.0,0.0,0.0,0.0,0.0,0.0,0.0,0.0,0.0,0.0,0.0,0.0,0.0,0.0,0.0,0.0,0.0,0.0,0.0,0.0,0.0,0.0,0.0,0.0,0.0,0.0,0.0,0.0,0.0,0.0,0.0,0.0,0.0,0.0,0.0,0.0,0.0,0.0,0.0,0.0,0.0,0.0,0.0,0.0,0.0,0.0,0.0,0.0,0.0,0.0,0.0,0.0,0.0,0.0,0.0,0.0,0.0,0.0,0.0,0.0,0.0,0.0,0.0,0.0,0.0,0.0,0.0,0.0,0.0,0.0,0.0,0.0,0.0,0.0,0.0,0.0,0.0,0.0,0.0,0.0,0.0,0.0,0.0,0.0,0.0,0.0,0.0,0.0,0.0,0.0,0.0,0.0,0.0,0.0,0.0,0.0,0.0,0.0,0.0,0.0,0.0,0.0,0.0,0.0,0.0,0.0,0.0,0.0,0.0,0.0,0.0,0.0,0.0,0.0,0.0,0.0,0.0,0.0,0.0,0.0,0.0,0.0,0.0,0.0,0.0,0.0,0.0,0.0,0.0,0.0,0.0,0.0,0.0,0.0,0.0,0.0,0.0,0.0,0.0,0.0,0.0,0.0,0.0,0.0,0.0,0.0,0.0,0.0,0.0,0.0,0.0,0.0,0.0,0.0,0.0,0.0,0.0,0.0,0.0,0.0,0.0,0.0,0.0,0.0,0.0,0.0,0.0,0.0,0.0,0.0,0.0,0.0,0.0,0.0,0.0,0.0,0.0,0.0,0.0,0.0,0.0,0.0,0.0,0.0,0.0,0.0,0.0,0.0,0.0,0.0,0.0,0.0,0.0,0.0,0.0,0.0,0.0,0.0,0.0,0.0,0.0,0.0,0.0,0.0,0.0,0.0,0.0,0.0,0.0,0.0,0.0,0.0,0.0,0.0,0.0,0.0,0.0,0.0,0.0,0.0,0.0,0.0,0.0,0.0,0.0,0.0,0.0,0.0,0.0,0.0,0.0,0.0,0.0,0.0,0.0,0.0,0.0,0.0,0.0,0.0,0.0,0.0,0.0,0.0,0.0,0.0,0.0,0.0,0.0,0.0,0.0,0.0,0.0,0.0,0.0,0.0,0.0,0.0,0.0,0.0,0.0,0.0,0.0,0.0,0.0,0.0,0.0,0.0,0.0,0.0,0.0,0.0,0.0,0.0,0.0,0.0,0.0,0.0,0.0,0.0,0.0,0.0,0.0,0.0,0.0,0.0,0.0,0.0,0.0,0.0,0.0,0.0,0.0,0.0,0.0,0.0,0.0,0.0,0.0,0.0,0.0,0.0,0.0,0.0,0.0,0.0,0.0,0.0,0.0,0.0,0.0,0.0,0.0,0.0,0.0,0.0,0.0,0.0,0.0,0.0,0.0,0.0,0.0,0.0,0.0,0.0,0.0,0.0,0.0,0.0,0.0,0.0,0.0,0.0,0.0,0.0,0.0,0.0,0.0,0.0,0.0,0.0,0.0,0.0,0.0,0.0,0.0,0.0,0.0,0.0,0.0,0.0,0.0,0.0,0.0,0.0,0.0,0.0,0.0,0.0,0.0,0.0,0.0,0.0,0.0,0.0,0.0,0.0,0.0,0.0,0.0,0.0,0.0,0.0,0.0,0.0,0.0,0.0,0.0,0.0,0.0,0.0,0.0,0.0,0.0,0.0,0.0,0.0,0.0,0.0,0.0,0.0,0.0,0.0,0.0,0.0,0.0,0.0,0.0,0.0,0.0,0.0,0.0,0.0,0.0,0.0,0.0,0.0,0.0,0.0,0.0,0.0,0.0,0.0,0.0,0.0,0.0,0.0,0.0,0.0,0.0,0.0,0.0,0.0,0.0,0.0,0.0,0.0,0.0,0.0,0.0,0.0,0.0,0.0,0.0,0.0,0.0,0.0,0.0,0.0,0.0,0.0,0.0,0.0,0.0,0.0,0.0,0.0,0.0,0.0,0.0,0.0,0.0,0.0,0.0,0.0,0.0,0.0,0.0,0.0,0.0,0.0,0.0,0.0,0.0,0.0,0.0,0.0,0.0,0.0,0.0,0.0,0.0,0.0,0.0,0.0,0.0,0.0,0.0,0.0,0.0,0.0,0.0,0.0,0.0,0.0,0.0,0.0,0.0,0.0,0.0,0.0,0.0,0.0,0.0,0.0,0.0,0.0,0.0,0.0,0.0,0.0,0.0,0.0,0.0,0.0,0.0,0.0,0.0,0.0,0.0,0.0,0.0,0.0,0.0,0.0,0.0,0.0,0.0,0.0,0.0,0.0,0.0,0.0,0.0,0.0,0.0,0.0,0.0,0.0,0.0,0.0,0.0,0.0,0.0,0.0,0.0,0.0,0.0,0.0,0.0,0.0,0.0,0.0,0.0,0.0,0.0,0.0,0.0,0.0,0.0,0.0,0.0,0.0,0.0,0.0,0.0,0.0,0.0,0.0,0.0,0.0,0.0,0.0,0.0,0.0,0.0,0.0,0.0,0.0,0.0,0.0,0.0,0.0,0.0,0.0,0.0,0.0,0.0,0.0,0.0,0.0,0.0,0.0,0.0,0.0,0.0,0.0,0.0,0.0,0.0,0.0,0.0,0.0,0.0,0.0,0.0,0.0,0.0,0.0,1.3325,0.0,0.0,0.0,0.0,0.0,0.0,0.0,0.0,0.0,0.0,0.0,0.0,0.0,0.0,0.0,0.0,0.0,0.0,0.0,0.0,0.0,0.0,0.0,0.0,0.0,0.0,0.0,0.0,0.0,0.0,0.0,0.0,0.0,0.0,0.0,0.0,0.0,0.0,0.0,0.0,0.0,0.0,0.0,0.0,0.0,0.0,0.0,0.0,0.0,0.0,0.0,0.0,0.0,0.0,0.0,0.0,0.0,0.0,0.0,0.0,0.0,0.0,0.0,0.0,0.0,0.0,0.0,0.0,0.0,0.0,0.0,0.0,0.0,0.0,0.0,0.0,0.0,0.0,0.0,0.0,0.0,0.0,0.0,0.0,0.0,0.0,0.0,0.0,0.0,0.0,0.0,0.0,0.0,0.0,0.0,0.0,0.0,0.0,0.0,0.0,0.0,0.0,0.0,0.0,0.0,0.0,0.0,0.0,0.0,0.0,-0.7472,-0.071,0.2752,0.7542,1.3767,0.0,0.0,0.0,0.0,0.0,0.0,0.0,0.0,0.0,0.0,0.0,0.0,0.0,0.0,0.0,0.0,0.0,0.0,0.0,0.0,0.0,0.0,0.0,0.0,0.0,0.0,0.0,0.0,0.0,0.0,0.0,0.0,0.0,0.0,0.0,0.0,0.0,0.0,0.0,0.0,0.0,0.0,0.0,0.0,0.0,0.0,0.0,0.0,0.0,0.0,0.0,0.0,0.0,0.0,0.0,0.0,0.0,0.0,0.0,0.0,0.0,0.0,0.0,0.0,0.0,0.0,0.0,0.0,0.0,0.0,0.0,0.0,0.0,0.0,0.0,0.0,0.0,0.0,0.0,0.0,0.0,0.0,0.0,0.0,0.0,0.0,0.0,0.0,0.0,0.0,0.0,0.0,0.0,0.0,0.0,0.0,0.0,0.0,0.0,0.0,0.0,0.0,0.0,0.0,0.0,0.0,0.0,0.0,0.0,0.0,0.0,0.0,0.4643,0.9535,1.4114,0.0,0.0,0.0,0.0,0.0,0.0,0.0,0.0,0.0,0.0,0.0,0.0,0.0,0.0,0.0,0.0,0.0,0.0,0.0,0.0,0.0,0.0,0.0,0.0,0.0,0.0,0.0,0.0,0.0,0.0,0.0,0.0,0.0,0.0,0.0,0.0,0.0,0.0,0.0,0.0,0.0,0.0,0.0,0.0,0.0,0.0,0.0,0.0,0.0,0.0,0.0,0.0,0.0,0.0,0.0,0.0,0.0,0.0,0.0,0.0,0.0,0.0,0.0,0.0,0.0,0.0,0.0,0.0,0.0,0.0,0.0,0.0,0.0,0.0,0.0,0.0,0.0,0.0,0.0,0.0,0.0,0.0,0.0,0.0,0.0,0.0,0.0,0.0,0.0,0.0,0.0,0.0,0.0,0.0,0.0,0.0,0.0,0.0,0.0,0.0,0.0,0.0,0.0,0.0,0.0,0.0,0.0,0.0,0.0,0.0,-0.5012,0.0031,0.499,0.0,1.4313,0.0,0.0,0.0,0.0,0.0,0.0,0.0,0.0,0.0,0.0,0.0,0.0,0.0,0.0,0.0,0.0,0.0,0.0,0.0,0.0,0.0,0.0,0.0,0.0,0.0,0.0,0.0,0.0,0.0,0.0,0.0,0.0,0.0,0.0,0.0,0.0,0.0,0.0,0.0,0.0,0.0,0.0,0.0,0.0,0.0,0.0,0.0,0.0,0.0,0.0,0.0,0.0,0.0,0.0,0.0,0.0,0.0,0.0,0.0,0.0,0.0,0.0,0.0,0.0,0.0,0.0,0.0,0.0,0.0,0.0,0.0,0.0,0.0,0.0,0.0,0.0,0.0,0.0,0.0,0.0,0.0,0.0,0.0,0.0,0.0,0.0,0.0,0.0,0.0,0.0,0.0,0.0,0.0,0.0,0.0,0.0,0.0,0.0,0.0,0.0,0.0,0.0,0.0,0.0,0.0,0.0,0.0,0.0,0.0,0.0,-0.1517,0.3464,0.8878,1.2722,0.0,0.0,0.0,0.0,0.0,0.0,0.0,0.0,0.0,0.0,0.0,0.0,0.0,0.0,0.0,0.0,0.0,0.0,0.0,0.0,0.0,0.0,0.0,0.0,0.0,0.0,0.0,0.0,0.0,0.0,0.0,0.0,0.0,0.0,0.0,0.0,0.0,0.0,0.0,0.0,0.0,0.0,0.0,0.0,0.0,0.0,0.0,0.0,0.0,0.0,0.0,0.0,0.0,0.0,0.0,0.0,0.0,0.0,0.0,0.0,0.0,0.0,0.0,0.0,0.0,0.0,0.0,0.0,0.0,0.0,0.0,0.0,0.0,0.0,0.0,0.0,0.0,0.0,0.0,0.0,0.0,0.0,0.0,0.0,0.0,0.0,0.0,0.0,0.0,0.0,0.0,0.0,0.0,0.0,0.0,0.0,0.0,0.0,0.0,0.0,0.0,0.0,0.0,0.0,0.0,0.0,0.0,0.0,0.0,0.0,-0.2775,0.2746,0.7889,1.2547,1.4988,1.4966,0.0,0.0,0.0,0.0,0.0,0.0,0.0,0.0,0.0,0.0,0.0,0.0,0.0,0.0,0.0,0.0,0.0,0.0,0.0,0.0,0.0,0.0,0.0,0.0,0.0,0.0,0.0,0.0,0.0,0.0,0.0,0.0,0.0,0.0,0.0,0.0,0.0,0.0,0.0,0.0,0.0,0.0,0.0,0.0,0.0,0.0,0.0,0.0,0.0,0.0,0.0,0.0,0.0,0.0,0.0,0.0,0.0,0.0,0.0,0.0,0.0,0.0,0.0,0.0,0.0,0.0,0.0,0.0,0.0,0.0,0.0,0.0,0.0,0.0,0.0,0.0,0.0,0.0,0.0,0.0,0.0,0.0,0.0,0.0,0.0,0.0,0.0,0.0,0.0,0.0,0.0,0.0,0.0,0.0,0.0,0.0,0.0,0.0,0.0,0.0,0.0,0.0,0.0,0.0,0.0,0.0,0.0,0.0,-0.796,0.022,0.7414,1.3035,1.5033,1.5679,0.0,0.0,0.0,0.0,0.0,0.0,0.0,0.0,0.0,0.0,0.0,0.0,0.0,0.0,0.0,0.0,0.0,0.0,0.0,0.0,0.0,0.0,0.0,0.0,0.0,0.0,0.0,0.0,0.0,0.0,0.0,0.0,0.0,0.0,0.0,0.0,0.0,0.0,0.0,0.0,0.0,0.0,0.0,0.0,0.0,0.0,0.0,0.0,0.0,0.0,0.0,0.0,0.0,0.0,0.0,0.0,0.0,0.0,0.0,0.0,0.0,0.0,0.0,0.0,0.0,0.0,0.0,0.0,0.0,0.0,0.0,0.0,0.0,0.0,0.0,0.0,0.0,0.0,0.0,0.0,0.0,0.0,0.0,0.0,0.0,0.0,0.0,0.0,0.0,0.0,0.0,0.0,0.0,0.0,0.0,0.0,0.0,0.0,0.0,0.0,0.0,0.0,0.0,0.0,0.0,0.0,0.0,0.0,0.0,-0.4915,0.4507,1.0957,1.3718,1.4779,1.5478,0.0,0.0,0.0,0.0,0.0,0.0,0.0,0.0,0.0,0.0,0.0,0.0,0.0,0.0,0.0,0.0,0.0,0.0,0.0,0.0,0.0,0.0,0.0,0.0,0.0,0.0,0.0,0.0,0.0,0.0,0.0,0.0,0.0,0.0,0.0,0.0,0.0,0.0,0.0,0.0,0.0,0.0,0.0,0.0,0.0,0.0,0.0,0.0,0.0,0.0,0.0,0.0,0.0,0.0,0.0,0.0,0.0,0.0,0.0,0.0,0.0,0.0,0.0,0.0,0.0,0.0,0.0,0.0,0.0,0.0,0.0,0.0,0.0,0.0,0.0,0.0,0.0,0.0,0.0,0.0,0.0,0.0,0.0,0.0,0.0,0.0,0.0,0.0,0.0,0.0,0.0,0.0,0.0,0.0,0.0,0.0,0.0,0.0,0.0,0.0,0.0,0.0,0.0,0.0,0.0,0.0,0.0,0.0,0.0,0.1276,0.0,1.2969,0.0,1.4887,1.5662,0.0,0.0,0.0,0.0,0.0,0.0,0.0,0.0,0.0,0.0,0.0,0.0,0.0,0.0,0.0,0.0,0.0,0.0,0.0,0.0,0.0,0.0,0.0,0.0,0.0,0.0,0.0,0.0,0.0,0.0,0.0,0.0,0.0,0.0,0.0,0.0,0.0,0.0,0.0,0.0,0.0,0.0,0.0,0.0,0.0,0.0,0.0,0.0,0.0,0.0,0.0,0.0,0.0,0.0,0.0,0.0,0.0,0.0,0.0,0.0,0.0,0.0,0.0,0.0,0.0,0.0,0.0,0.0,0.0,0.0,0.0,0.0,0.0,0.0,0.0,0.0,0.0,0.0,0.0,0.0,0.0,0.0,0.0,0.0,0.0,0.0,0.0,0.0,0.0,0.0,0.0,0.0,0.0,0.0,0.0,0.0,0.0,0.0,0.0,0.0,0.0,0.0,0.0,0.0,0.0,0.0,0.0,0.0,0.0949,1.0753,1.2235,1.3342,1.4314,1.5584,1.6334,0.0,0.0,0.0,0.0,0.0,0.0,0.0,0.0,0.0,0.0,0.0,0.0,0.0,0.0,0.0,0.0,0.0,0.0,0.0,0.0,0.0,0.0,0.0,0.0,0.0,0.0,0.0,0.0,0.0,0.0,0.0,0.0,0.0,0.0,0.0,0.0,0.0,0.0,0.0,0.0,0.0,0.0,0.0,0.0,0.0,0.0,0.0,0.0,0.0,0.0,0.0,0.0,0.0,0.0,0.0,0.0,0.0,0.0,0.0,0.0,0.0,0.0,0.0,0.0,0.0,0.0,0.0,0.0,0.0,0.0,0.0,0.0,0.0,0.0,0.0,0.0,0.0,0.0,0.0,0.0,0.0,0.0,0.0,0.0,0.0,0.0,0.0,0.0,0.0,0.0,0.0,0.0,0.0,0.0,0.0,0.0,0.0,0.0,0.0,0.0,0.0,0.0,0.0,0.0,0.0,0.0,0.0,0.0,0.0,1.2088,1.3474,1.4509,1.5301,1.6004,1.6658,0.0,0.0,0.0,0.0,0.0,0.0,0.0,0.0,0.0,0.0,0.0,0.0,0.0,0.0,0.0,0.0,0.0,0.0,0.0,0.0,0.0,0.0,0.0,0.0,0.0,0.0,0.0,0.0,0.0,0.0,0.0,0.0,0.0,0.0,0.0,0.0,0.0,0.0,0.0,0.0,0.0,0.0,0.0,0.0,0.0,0.0,0.0,0.0,0.0,0.0,0.0,0.0,0.0,0.0,0.0,0.0,0.0,0.0,0.0,0.0,0.0,0.0,0.0,0.0,0.0,0.0,0.0,0.0,0.0,0.0,0.0,0.0,0.0,0.0,0.0,0.0,0.0,0.0,0.0,0.0,0.0,0.0,0.0,0.0,0.0,0.0,0.0,0.0,0.0,0.0,0.0,0.0,0.0,0.0,0.0,0.0,0.0,0.0,0.0,0.0,0.0,0.0,0.0,0.0,0.0,0.0,0.0,0.0,0.0,1.4442,1.5018,1.5655,1.6377,1.6417,1.6679,1.7176,0.0,0.0,0.0,0.0,0.0,0.0,0.0,0.0,0.0,0.0,0.0,0.0,0.0,0.0,0.0,0.0,0.0,0.0,0.0,0.0,0.0,0.0,0.0,0.0,0.0,0.0,0.0,0.0,0.0,0.0,0.0,0.0,0.0,0.0,0.0,0.0,0.0,0.0,0.0,0.0,0.0,0.0,0.0,0.0,0.0,0.0,0.0,0.0,0.0,0.0,0.0,0.0,0.0,0.0,0.0,0.0,0.0,0.0,0.0,0.0,0.0,0.0,0.0,0.0,0.0,0.0,0.0,0.0,0.0,0.0,0.0,0.0,0.0,0.0,0.0,0.0,0.0,0.0,0.0,0.0,0.0,0.0,0.0,0.0,0.0,0.0,0.0,0.0,0.0,0.0,0.0,0.0,0.0,0.0,0.0,0.0,0.0,0.0,0.0,0.0,0.0,0.0,0.0,0.0,0.0,0.0,0.0,0.0,1.7683,1.6951,1.6892,1.7535,1.6982,1.6595,0.0,0.0,0.0,0.0,0.0,0.0,0.0,0.0,0.0,0.0,0.0,0.0,0.0,0.0,0.0,0.0,0.0,0.0,0.0,0.0,0.0,0.0,0.0,0.0,0.0,0.0,0.0,0.0,0.0,0.0,0.0,0.0,0.0,0.0,0.0,0.0,0.0,0.0,0.0,0.0,0.0,0.0,0.0,0.0,0.0,0.0,0.0,0.0,0.0,0.0,0.0,0.0,0.0,0.0,0.0,0.0,0.0,0.0,0.0,0.0,0.0,0.0,0.0,0.0,0.0,0.0,0.0,0.0,0.0,0.0,0.0,0.0,0.0,0.0,0.0,0.0,0.0,0.0,0.0,0.0,0.0,0.0,0.0,0.0,0.0,0.0,0.0,0.0,0.0,0.0,0.0,0.0,0.0,0.0,0.0,0.0,0.0,0.0,0.0,0.0,0.0,0.0,0.0,0.0,0.0,0.0,0.0,0.0,0.0,1.8128,1.9147,1.9554,1.9383,1.8771,1.8083,0.0,0.0,0.0,0.0,0.0,0.0,0.0,0.0,0.0,0.0,0.0,0.0,0.0,0.0,0.0,0.0,0.0,0.0,0.0,0.0,0.0,0.0,0.0,0.0,0.0,0.0,0.0,0.0,0.0,0.0,0.0,0.0,0.0,0.0,0.0,0.0,0.0,0.0,0.0,0.0,0.0,0.0,0.0,0.0,0.0,0.0,0.0,0.0,0.0,0.0,0.0,0.0,0.0,0.0,0.0,0.0,0.0,0.0,0.0,0.0,0.0,0.0,0.0,0.0,0.0,0.0,0.0,0.0,0.0,0.0,0.0,0.0,0.0,0.0,0.0,0.0,0.0,0.0,0.0,0.0,0.0,0.0,0.0,0.0,0.0,0.0,0.0,0.0,0.0,0.0,0.0,0.0,0.0,0.0,0.0,0.0,0.0,0.0,0.0,0.0,0.0,0.0,0.0,0.0,0.0,0.0,0.0,0.0,1.7256,1.9066,2.0697,2.1281,2.0788,1.9353,1.815,0.0,0.0,0.0,0.0,0.0,0.0,0.0,0.0,0.0,0.0,0.0,0.0,0.0,0.0,0.0,0.0,0.0,0.0,0.0,0.0,0.0,0.0,0.0,0.0,0.0,0.0,0.0,0.0,0.0,0.0,0.0,0.0,0.0,0.0,0.0,0.0,0.0,0.0,0.0,0.0,0.0,0.0,0.0,0.0,0.0,0.0,0.0,0.0,0.0,0.0,0.0,0.0,0.0,0.0,0.0,0.0,0.0,0.0,0.0,0.0,0.0,0.0,0.0,0.0,0.0,0.0,0.0,0.0,0.0,0.0,0.0,0.0,0.0,0.0,0.0,0.0,0.0,0.0,0.0,0.0,0.0,0.0,0.0,0.0,0.0,0.0,0.0,0.0,0.0,0.0,0.0,0.0,0.0,0.0,0.0,0.0,0.0,0.0,0.0,0.0,0.0,0.0,0.0,0.0,0.0,0.0,0.0,0.0,1.8479,2.0117,2.1608,2.2127,2.1544,1.9277,1.7591,0.0,0.0,0.0,0.0,0.0,0.0,0.0,0.0,0.0,0.0,0.0,0.0,0.0,0.0,0.0,0.0,0.0,0.0,0.0,0.0,0.0,0.0,0.0,0.0,0.0,0.0,0.0,0.0,0.0,0.0,0.0,0.0,0.0,0.0,0.0,0.0,0.0,0.0,0.0,0.0,0.0,0.0,0.0,0.0,0.0,0.0,0.0,0.0,0.0,0.0,0.0,0.0,0.0,0.0,0.0,0.0,0.0,0.0,0.0,0.0,0.0,0.0,0.0,0.0,0.0,0.0,0.0,0.0,0.0,0.0,0.0,0.0,0.0,0.0,0.0,0.0,0.0,0.0,0.0,0.0,0.0,0.0,0.0,0.0,0.0,0.0,0.0,0.0,0.0,0.0,0.0,0.0,0.0,0.0,0.0,0.0,0.0,0.0,0.0,0.0,0.0,0.0,0.0,0.0,0.0,0.0,0.0,0.0,1.9049,2.0541,2.1302,2.1418,2.0786,1.9549,1.8487,0.0,0.0,0.0,0.0,0.0,0.0,0.0,0.0,0.0,0.0,0.0,0.0,0.0,0.0,0.0,0.0,0.0,0.0,0.0,0.0,0.0,0.0,0.0,0.0,0.0,0.0,0.0,0.0,0.0,0.0,0.0,0.0,0.0,0.0,0.0,0.0,0.0,0.0,0.0,0.0,0.0,0.0,0.0,0.0,0.0,0.0,0.0,0.0,-0.8448,0.0,0.0,0.0,0.0,0.0,0.0,0.0,0.0,0.0,0.0,0.0,0.0,0.0,0.0,0.0,0.0,0.0,0.0,0.0,0.0,0.0,0.0,0.0,0.0,0.0,0.0,0.0,0.0,0.0,0.0,0.0,0.0,0.0,0.0,0.0,0.0,0.0,0.0,0.0,0.0,0.0,0.0,0.0,0.0,0.0,0.0,0.0,0.0,0.0,0.0,0.0,0.0,0.0,0.0,0.0,0.0,0.0,0.0,0.0,1.9261,2.0297,2.0762,2.064,1.9917,1.9038,1.8351,0.0,0.0,0.0,0.0,0.0,0.0,0.0,0.0,0.0,0.0,0.0,0.0,0.0,0.0,0.0,0.0,0.0,0.0,0.0,0.0,0.0,0.0,0.0,0.0,0.0,0.0,0.0,0.0,0.0,0.0,0.0,0.0,0.0,0.0,0.0,0.0,0.0,0.0,0.0,0.0,0.0,0.0,0.0,0.0,0.0,0.0,0.0,0.0,0.0,0.0,0.0,0.0,0.0,0.0,0.0,0.0,0.0,0.0,0.0,0.0,0.0,0.0,0.0,0.0,0.0,0.0,0.0,0.0,0.0,0.0,0.0,0.0,0.0,0.0,0.0,0.0,0.0,0.0,0.0,0.0,0.0,0.0,0.0,0.0,0.0,0.0,0.0,0.0,0.0,0.0,0.0,0.0,0.0,0.0,0.0,0.0,0.0,0.0,0.0,0.0,0.0,0.0,0.0,0.0,0.0,0.0,0.0,1.8067,1.9438,2.0112,2.0443,2.0182,1.9238,1.8487,1.7944,1.761,0.0,0.0,0.0,0.0,0.0,0.0,0.0,0.0,0.0,0.0,0.0,0.0,0.0,0.0,0.0,0.0,0.0,0.0,0.0,0.0,0.0,0.0,0.0,0.0,0.0,0.0,0.0,0.0,0.0,0.0,0.0,0.0,0.0,0.0,0.0,0.0,0.0,0.0,1.6265,1.7861,0.0,0.0,0.0,0.0,0.0,0.0,0.0,0.0,-0.7259,0.0,0.0,0.0,0.0,0.0,0.0,0.0,0.0,0.0,0.0,0.0,0.0,0.0,0.0,0.0,0.0,0.0,0.0,0.0,0.0,0.0,0.0,0.0,0.0,0.0,0.0,0.0,0.0,0.0,0.0,0.0,0.0,0.0,0.0,0.0,0.0,0.0,0.0,0.0,0.0,0.0,0.0,0.0,0.0,0.0,0.0,0.0,0.0,0.0,0.0,0.0,0.0,0.0,0.0,0.0,0.0,1.7537,1.8871,2.0105,2.1196,2.1461,2.0847,1.9355,1.909,1.8278,1.6883,0.0,0.0,0.0,0.0,0.0,0.0,0.0,0.0,0.0,0.0,0.0,0.0,0.0,0.0,0.0,0.0,0.0,0.0,0.0,0.0,0.0,0.0,0.0,0.0,0.0,0.0,0.0,0.0,0.0,0.0,0.0,0.0,0.0,0.0,0.0,0.0,0.0,0.0,0.0,1.7898,1.717,0.0,0.0,0.0,0.0,0.0,0.0,0.0,0.0,-0.6748,0.0,0.0,0.0,0.0,0.0,0.0,0.0,0.0,0.0,0.0,0.0,0.0,0.0,0.0,0.0,0.0,0.0,0.0,0.0,0.0,0.0,0.0,0.0,0.0,0.0,0.0,0.0,0.0,0.0,0.0,0.0,0.0,0.0,0.0,0.0,0.0,0.0,0.0,0.0,0.0,0.0,0.0,0.0,0.0,0.0,0.0,0.0,0.0,0.0,0.0,0.0,0.0,0.0,0.0,0.0,1.7552,1.9095,2.0465,2.154,2.1288,2.0543,1.9354,1.8833,1.7967,0.0,0.0,0.0,0.0,0.0,0.0,0.0,0.0,0.0,0.0,0.0,0.0,0.0,0.0,0.0,0.0,0.0,0.0,0.0,0.0,0.0,0.0,0.0,0.0,0.0,0.0,0.0,0.0,0.0,0.0,0.0,0.0,0.0,0.0,0.0,0.0,0.0,0.0,0.0,0.0,1.7629,1.7778,1.4452,0.0,0.0,0.0,0.0,0.0,0.0,-0.5232,-0.5561,0.0,0.0,0.0,0.0,0.0,0.0,0.0,0.0,0.0,0.0,0.0,0.0,0.0,0.0,0.0,0.0,0.0,0.0,0.0,0.0,0.0,0.0,0.0,0.0,0.0,0.0,0.0,0.0,0.0,0.0,0.0,0.0,0.0,0.0,0.0,0.0,0.0,0.0,0.0,0.0,0.0,0.0,0.0,0.0,0.0,0.0,0.0,0.0,0.0,0.0,0.0,0.0,0.0,0.0,0.0,1.7358,1.9181,2.0571,2.1402,2.1001,2.0215,1.9078,1.8537,1.7733,0.0,0.0,0.0,0.0,0.0,0.0,0.0,0.0,0.0,0.0,0.0,0.0,0.0,0.0,0.0,0.0,0.0,0.0,0.0,0.0,0.0,0.0,0.0,0.0,0.0,0.0,0.0,0.0,0.0,0.0,0.0,0.0,0.0,0.0,0.0,0.0,0.0,0.0,0.0,0.0,0.0,1.7926,1.5643,1.0463,0.0,0.0,0.0,0.0,-0.3996,-0.4194,0.0,0.0,0.0,0.0,0.0,0.0,0.0,0.0,0.0,0.0,0.0,0.0,0.0,0.0,0.0,0.0,0.0,0.0,0.0,0.0,0.0,0.0,0.0,0.0,0.0,0.0,0.0,0.0,0.0,0.0,0.0,0.0,0.0,0.0,0.0,0.0,0.0,0.0,0.0,0.0,0.0,0.0,0.0,0.0,0.0,0.0,0.0,0.0,0.0,0.0,0.0,0.0,0.0,0.0,0.0,0.0,1.7697,1.9447,2.0445,2.0658,2.1305,2.0527,1.8238,1.8789,1.8337,0.0,0.0,0.0,0.0,0.0,0.0,0.0,0.0,0.0,0.0,0.0,0.0,0.0,0.0,0.0,0.0,0.0,0.0,0.0,0.0,0.0,0.0,0.0,0.0,0.0,0.0,0.0,0.0,0.0,0.0,0.0,0.0,0.0,0.0,0.0,0.0,0.0,0.0,0.0,0.0,0.0,1.6315,1.2144,0.844,0.5252,0.0,0.0,-0.3024,-0.3066,-0.3239,0.0,0.0,0.0,0.0,0.0,0.0,0.0,0.0,0.0,0.0,0.0,0.0,0.0,0.0,0.0,0.0,0.0,0.0,0.0,0.0,0.0,0.0,0.0,0.0,0.0,0.0,0.0,0.0,0.0,0.0,0.0,0.0,0.0,0.0,0.0,0.0,0.0,0.0,0.0,0.0,0.0,0.0,0.0,0.0,0.0,0.0,0.0,0.0,0.0,0.0,0.0,0.0,0.0,0.0,0.0,1.7644,1.7883,1.9558,2.0689,2.1202,2.1171,2.0369,1.8762,1.8617,1.8193,0.0,0.0,0.0,0.0,0.0,0.0,0.0,0.0,0.0,0.0,0.0,0.0,0.0,0.0,0.0,0.0,0.0,0.0,0.0,0.0,0.0,0.0,0.0,0.0,0.0,0.0,0.0,0.0,0.0,0.0,0.0,0.0,0.0,0.0,0.0,0.0,0.0,0.0,0.0,0.0,0.0,0.0,1.1282,0.6841,0.0,0.0,0.0,-0.2323,-0.2286,0.0,0.0,0.0,0.0,0.0,0.0,0.0,0.0,0.0,0.0,0.0,0.0,0.0,0.0,0.0,0.0,0.0,0.0,0.0,0.0,0.0,0.0,0.0,0.0,0.0,0.0,0.0,0.0,0.0,0.0,0.0,0.0,0.0,0.0,0.0,0.0,0.0,0.0,0.0,0.0,0.0,0.0,0.0,0.0,0.0,0.0,0.0,0.0,0.0,0.0,0.0,0.0,0.0,0.0,0.0,0.0,0.0,1.7942,1.9628,2.0833,2.1443,2.0683,1.986,1.8997,1.8132,0.0,0.0,0.0,0.0,0.0,0.0,0.0,0.0,0.0,0.0,0.0,0.0,0.0,0.0,0.0,0.0,0.0,0.0,0.0,0.0,0.0,0.0,0.0,0.0,0.0,0.0,0.0,0.9821,0.0,0.0,0.0,0.0,0.0,0.0,0.0,0.0,0.0,0.0,0.0,0.0,0.0,0.0,1.2128,1.0096,0.5407,0.1943,0.0,0.0,-0.1546,-0.0774,0.1033,0.2528,0.0,0.0,0.0,0.0,0.0,0.0,0.0,0.0,0.0,0.0,0.0,0.0,0.0,0.0,0.0,0.0,0.0,0.0,0.0,0.0,0.0,0.0,0.0,0.0,0.0,0.0,0.0,0.0,0.0,0.0,0.0,0.0,0.0,0.0,0.0,0.0,0.0,0.0,0.0,0.0,0.0,0.0,0.0,0.0,0.0,0.0,0.0,0.0,0.0,0.0,0.0,0.0,0.0,0.0,0.0,1.8041,1.9706,2.0625,2.0663,1.9841,1.8961,1.8122,1.7238,1.7176,0.0,0.0,0.0,0.0,0.0,0.0,0.0,0.0,0.0,0.0,0.0,0.0,0.0,0.0,0.0,0.0,0.0,0.0,0.0,0.0,0.0,0.0,0.0,0.0,0.0,0.0,0.0,0.0,0.0,0.0,0.0,0.0,0.0,0.0,0.0,0.0,0.0,0.0,0.0,0.0,0.0,1.0719,0.7281,0.416,0.1319,0.0,0.0,-0.0608,0.2074,0.2668,0.3674,0.6068,0.0,0.0,0.0,0.0,0.0,0.0,0.0,0.0,0.0,0.0,0.0,0.0,0.0,0.0,0.0,0.0,0.0,0.0,0.0,0.0,0.0,0.0,0.0,0.0,0.0,0.0,0.0,0.0,0.0,0.0,0.0,0.0,0.0,0.0,0.0,0.0,0.0,0.0,0.0,0.0,0.0,0.0,0.0,0.0,0.0,0.0,0.0,0.0,0.0,0.0,0.0,0.0,0.0,1.7969,1.8027,1.9725,2.0603,2.0562,1.9742,1.8902,1.8022,1.7163,1.687,0.0,0.0,0.0,0.0,0.0,0.0,0.0,0.0,0.0,0.0,0.0,0.0,0.0,0.0,0.0,0.0,0.0,0.0,0.0,0.0,0.0,0.0,0.0,0.0,0.0,0.0,0.0,0.0,0.9282,0.9843,1.0959,0.0,0.0,0.0,0.0,0.0,0.0,0.0,0.0,0.0,0.0,0.8537,0.673,0.255,0.0,0.0,-0.1579,-0.0986,0.0215,0.2338,0.4595,0.6801,1.0822,0.0,0.0,0.0,0.0,0.0,0.0,0.0,0.0,0.0,0.0,0.0,0.0,0.0,0.0,0.0,0.0,0.0,0.0,0.0,0.0,0.0,0.0,0.0,0.0,0.0,0.0,0.0,0.0,0.0,0.0,0.0,0.0,0.0,0.0,0.0,0.0,0.0,0.0,0.0,0.0,0.0,0.0,0.0,0.0,0.0,0.0,0.0,0.0,0.0,0.0,0.0,0.0,1.7974,1.8016,1.9696,2.0575,2.0596,1.9487,1.8608,1.8002,1.6911,1.6424,0.0,0.0,0.0,0.0,0.0,0.0,0.0,0.0,0.0,0.0,0.0,0.0,0.0,0.0,0.0,0.0,0.0,0.0,0.0,0.0,0.0,0.0,0.0,0.0,0.0,0.0,0.0,0.0,0.9523,1.0384,1.191,0.0,0.0,0.0,0.0,0.0,0.0,0.0,0.0,0.0,0.0,0.6978,0.6518,0.164,-0.1945,-0.1845,-0.1546,-0.096,0.0,0.3024,0.5756,0.7279,0.0,0.0,0.0,0.0,0.0,0.0,0.0,0.0,0.0,0.0,0.0,0.0,0.0,0.0,0.0,0.0,0.0,0.0,0.0,0.0,0.0,0.0,0.0,0.0,0.0,0.0,0.0,0.0,0.0,0.0,0.0,0.0,0.0,0.0,0.0,0.0,0.0,0.0,0.0,0.0,0.0,0.0,0.0,0.0,0.0,0.0,0.0,0.0,0.0,0.0,0.0,0.0,0.0,1.7942,1.8035,1.9658,2.054,2.0547,1.8917,1.8062,1.7964,1.6327,1.584,1.6679,0.0,0.0,0.0,0.0,0.0,0.0,0.0,0.0,0.0,0.0,0.0,0.0,0.0,0.0,0.0,0.0,0.0,0.0,0.0,0.0,0.0,0.0,0.0,0.0,0.0,0.0,0.9213,1.0089,1.101,0.0,0.0,0.0,0.0,0.0,0.0,0.0,0.0,0.0,0.0,0.9998,0.6394,0.6499,0.1687,-0.1689,-0.1632,-0.1368,-0.0221,0.2506,0.5236,0.7297,0.0,0.0,0.0,0.0,0.0,0.0,0.0,0.0,0.0,0.0,0.0,0.0,0.0,0.0,0.0,0.0,0.0,0.0,0.0,0.0,0.0,0.0,0.0,0.0,0.0,0.0,0.0,0.0,1.9351,0.0,0.0,0.0,0.0,0.0,0.0,0.0,0.0,0.0,0.0,0.0,1.9241,1.9583,0.0,0.0,0.0,0.0,0.0,0.0,0.0,0.0,0.0,0.0,0.0,0.0,1.8489,1.8024,1.9639,2.0511,2.0501,1.9438,1.8586,1.8003,1.6873,1.6387,1.6677,0.0,0.0,0.0,0.0,0.0,0.0,0.0,0.0,0.0,0.0,0.0,0.0,0.0,0.0,0.0,0.0,0.0,0.0,0.0,0.0,0.0,0.0,0.0,0.0,0.0,0.9275,0.0,0.0,0.0,0.0,0.0,0.0,0.0,0.0,0.0,0.0,0.0,1.493,1.4995,1.1709,0.9312,0.9359,0.6177,0.3169,0.0,0.0,0.0,0.0,0.0,0.0,0.0,0.0,0.0,0.0,0.0,0.0,0.0,0.0,1.9915,1.979,1.9531,1.9191,1.8753,0.0,0.0,0.0,0.0,0.0,0.0,0.0,0.0,0.0,0.0,0.0,0.0,0.0,0.0,0.0,0.0,1.8883,0.0,0.0,0.0,0.0,0.0,0.0,0.0,0.0,1.9028,1.9336,1.9941,1.9972,2.003,0.0,2.0069,1.9838,0.0,0.0,0.0,0.0,0.0,0.0,0.0,0.0,1.8886,1.8426,1.9772,2.0513,2.0472,1.9706,1.8874,1.802,1.6873,1.625,1.6244,1.6002,1.5986,0.0,0.0,0.0,0.0,0.0,0.0,0.0,0.0,0.0,0.0,0.0,0.0,0.0,0.0,0.0,0.0,0.0,0.0,0.0,0.0,0.0,0.0,0.0,0.9717,0.0,0.0,0.0,0.0,0.0,0.0,0.0,0.0,0.0,1.4794,1.4877,1.4955,1.5019,1.2604,1.0805,1.08,0.0,0.0,0.0,0.0,0.0,0.0,0.0,0.767,0.9812,1.3088,1.5587,1.6103,1.7242,1.8524,1.9773,0.0,0.0,1.9535,1.9243,1.8875,1.834,1.7885,1.7389,1.686,1.6405,1.6009,0.0,0.0,0.0,0.0,0.0,0.0,0.0,0.0,2.2662,2.2245,0.0,2.0794,0.0,0.0,0.0,0.0,0.0,0.0,0.0,0.0,1.9574,1.9679,1.9844,1.9818,1.9884,2.002,2.0015,2.0019,2.0069,2.0145,0.0,0.0,0.0,0.0,0.0,0.0,1.9153,1.9211,2.0059,2.0508,2.048,1.9736,1.8908,1.7995,1.6327,1.5428,1.5442,1.619,1.6269,1.5436,1.5345,0.0,0.0,0.0,0.0,0.0,0.0,0.0,0.0,0.0,0.0,0.0,0.0,0.0,0.0,0.0,0.0,0.0,0.0,0.0,0.0,0.9794,0.0,0.0,0.0,0.0,0.0,0.0,0.0,0.0,0.0,0.0,1.4935,1.4969,1.5022,1.5083,0.0,0.0,0.0,0.0,0.6974,0.6857,0.7093,0.732,0.7245,0.9576,1.0677,0.8515,0.0,0.0,1.7468,1.8369,1.9065,1.9684,1.9587,1.9382,1.931,1.896,1.8551,1.8052,1.7591,1.7109,1.6575,1.6105,1.5696,2.6801,0.0,0.0,0.0,0.0,2.3533,2.289,2.2638,2.2153,2.1844,2.1624,2.0871,0.0,0.0,0.0,0.0,0.0,0.0,1.939,1.9446,1.9504,1.9904,2.0554,2.0045,2.0145,2.0759,2.0183,1.9934,1.9955,2.0039,1.9974,1.9826,0.0,0.0,0.0,0.0,1.9732,1.9207,2.002,2.0511,2.0506,2.0272,1.9468,1.8037,1.6327,1.5409,1.5404,1.5646,1.5626,1.5339,1.533,0.0,0.0,0.0,0.0,0.0,0.0,0.0,0.0,0.0,0.0,0.0,0.0,0.0,0.0,0.0,0.0,0.0,0.0,0.0,0.9024,0.973,1.051,0.0,0.0,0.0,0.0,0.0,0.0,0.0,0.0,0.0,1.6492,1.5574,1.4949,0.0,0.0,1.3822,1.3874,1.3226,1.2068,1.0123,0.0,0.0,0.0,1.2429,1.4007,1.3324,1.4936,1.6781,1.8363,1.8743,1.9031,1.9623,1.9499,1.9237,1.891,1.8589,1.8191,1.767,1.715,1.667,1.6231,1.5811,1.5433,2.7796,2.6667,2.6025,2.5572,2.5183,2.4118,2.3293,2.2677,2.2281,2.2118,2.2118,2.1678,2.1622,2.1843,2.1058,0.0,0.0,0.0,2.0317,2.0312,2.0421,2.0804,2.1324,2.0928,2.1014,2.1582,2.113,2.0743,2.0467,2.0494,2.0394,2.0211,0.0,0.0,1.954,2.0109,2.0146,1.9682,2.0177,2.0472,2.0511,1.987,1.9015,1.8018,1.6308,1.541,1.5406,1.5415,1.5375,1.5326,1.4981,1.4379,0.0,0.0,0.0,0.0,0.0,0.0,0.0,0.0,0.0,0.0,0.0,1.0486,0.9937,0.0,0.0,0.0,0.9236,0.9202,0.9418,1.0181,0.0,0.0,0.0,0.0,0.0,0.0,0.0,1.5611,1.6415,1.7008,1.7022,1.6246,1.5627,1.545,1.5144,1.4995,1.5057,0.0,1.4529,1.2926,1.4106,1.4786,1.3586,1.478,1.5981,1.6343,1.7082,1.7865,1.8792,1.9189,1.9421,1.9593,1.9476,1.918,1.8771,1.8375,1.7992,1.7502,1.7002,1.657,1.6136,1.5769,1.5433,2.877,2.8144,2.7548,2.6853,2.6141,2.5497,2.4372,2.3008,2.3013,2.2977,2.2903,2.2978,2.3344,2.3871,2.3232,0.0,0.0,2.219,2.1858,2.1821,2.1937,2.207,2.217,2.2141,2.2243,2.2475,2.2431,2.206,2.1407,2.139,2.1032,2.0326,2.0367,2.0366,2.0294,2.0366,2.0379,2.0394,2.0418,2.0454,2.0491,1.8867,1.7996,1.7992,1.6305,1.541,1.5408,1.5418,1.5403,1.5379,1.451,1.3601,1.2734,0.0,0.0,0.0,0.0,0.0,0.0,0.0,0.0,0.0,0.0,0.0,0.0,0.0,0.0,0.0,0.9309,0.0,1.0139,1.0938,0.0,0.0,0.0,1.403,1.4157,1.5012,1.5596,1.5674,0.0,0.0,0.0,0.0,1.6774,1.6295,1.5555,1.5085,1.5155,1.5209,1.5182,1.5194,1.5273,1.56,1.6176,1.6542,1.696,1.7783,1.8689,1.9102,1.9187,1.9677,2.0021,1.9767,1.949,1.9178,1.8789,1.8368,1.79,1.7542,1.7093,1.6659,1.6219,1.5896,1.5638,2.9165,2.8945,2.8354,2.7985,2.7723,2.6594,2.5849,2.5433,2.4388,2.3877,2.3821,2.3253,2.307,2.3179,2.36,2.3781,2.3764,2.3052,2.2702,2.2645,2.2212,2.2349,2.2917,2.2368,2.248,2.3101,2.2636,2.2312,2.2143,2.222,2.1899,2.1149,2.1166,2.0919,2.0311,2.0334,2.0353,2.0394,2.0448,2.0473,2.0465,1.8867,1.8006,1.7994,1.6299,1.5408,1.541,1.5407,1.5416,1.5377,1.4556,1.3668,1.2823,1.1891,0.0,0.0,0.0,0.0,0.0,0.0,0.0,0.0,0.0,0.9987,0.9919,0.0,0.9897,0.0,1.0632,1.0877,1.102,1.1744,0.0,0.0,1.3394,1.4167,1.4786,1.5702,1.6507,1.7118,1.7936,1.8475,1.8491,1.7962,1.7536,1.7391,1.6877,1.652,1.659,1.6605,1.6629,1.6648,1.6678,1.6892,1.7198,1.7406,1.7827,1.8673,1.906,1.9383,1.997,2.0127,2.012,1.9899,1.9599,1.9256,1.893,1.8528,1.8142,1.7749,1.7175,1.6659,1.6382,1.6108,1.5883,2.9894,2.9283,2.9034,2.8748,2.8334,2.7362,2.6508,2.5801,2.5067,2.4742,2.4779,2.5073,2.5164,2.5144,2.5564,2.5745,2.5711,2.5001,2.445,2.41,2.3801,2.3702,2.3771,2.339,2.349,2.3998,2.3653,2.3313,2.298,2.3094,2.2555,2.1425,2.1445,2.1058,2.0327,2.0301,2.0341,2.039,2.0452,2.0478,2.0452,1.8831,1.7949,1.7903,1.629,1.5404,1.5408,1.541,1.5421,1.5389,1.4937,1.4095,1.2866,1.2285,1.1412,0.0,0.0,0.0,0.0,0.0,0.0,0.0,0.0,0.0,0.0,0.0,1.083,0.0,1.1251,0.0,1.1754,1.2209,1.2635,1.306,1.3828,1.452,1.4974,1.6144,1.7096,1.7523,1.8271,1.8789,1.8788,1.8396,1.811,1.8075,1.7836,1.7467,1.6986,1.688,1.6914,1.6997,1.7063,1.7356,1.7881,1.8463,1.8994,1.9502,1.9692,1.9902,2.0313,2.0355,2.0218,2.0031,1.9767,1.9458,1.9113,1.8717,1.8336,1.798,1.7486,1.7027,1.6649,1.6355,1.6136,3.0831,2.9614,2.9617,2.9197,2.854,2.7979,2.6859,2.5363,2.5397,2.5368,2.5425,2.6935,2.7653,2.7764,2.7812,2.7882,2.7919,2.7177,2.6425,2.5666,2.5672,2.5261,2.453,2.4564,2.4682,2.4791,2.4817,2.4483,2.3865,2.3942,2.3183,2.1769,2.1627,2.1196,2.0477,2.0345,2.0328,2.0379,2.0379,2.0408,2.0444,1.8803,1.7905,1.7852,1.6278,1.5415,1.5404,1.541,1.5406,1.5397,1.5297,1.4479,1.2906,1.2655,1.1818,0.0,1.01,0.0,0.0,0.0,0.0,0.0,0.0,0.0,0.0,1.1792,1.2035,1.1681,1.1677,1.193,1.2525,1.2545,1.2902,1.3738,1.4446,1.4932,1.5192,1.6466,1.738,1.7485,1.8084,1.8469,1.8465,1.8463,1.8443,1.8353,1.8342,1.7984,1.7089,1.6933,1.7028,1.7038,1.7119,1.7712,1.8542,1.9409,1.9999,2.0166,2.0274,2.0377,2.0371,2.0384,2.0342,2.0149,1.9974,1.97,1.931,1.8943,1.8589,1.8258,1.7919,1.7526,1.7018,1.6659,1.6421,3.1583,3.1225,3.0142,2.9638,2.9474,2.8846,2.7638,2.6147,2.5635,2.5037,2.4542,2.5501,2.6331,2.6972,2.7595,2.8176,2.8741,2.8061,2.7292,2.6442,2.5931,2.5279,2.4513,2.4564,2.4629,2.4723,2.4783,2.478,2.475,2.4829,2.4364,2.3422,2.2785,2.2067,0.0,0.0,0.0,0.0,2.0379,2.0421,2.036,1.878,1.792,1.7859,1.6272,0.0,1.5412,1.5406,1.541,1.5386,1.4729,0.0,0.0,0.0,0.0,0.0,0.0,0.0,0.0,0.0,0.0,0.0,1.233,1.2741,1.1995,1.2416,1.2661,1.2503,1.2944,1.3286,1.3365,1.3365,1.3691,1.4502,1.4693,1.521,1.6436,1.6905,1.7322,1.798,1.8191,1.8239,1.8256,1.8256,1.8236,1.8215,1.8236,1.8156,1.7922,1.7998,1.8217,1.836,1.8402,1.8752,1.9175,1.9538,1.9842,2.0011,2.0204,2.0318,2.0382,2.039,2.0375,2.0284,2.0108,1.9867,1.9576,1.9287,1.8995,1.8717,1.8393,1.7997,1.7408,1.7068,1.6866,3.2169,0.0,3.1171,3.0505,0.0,2.9557,2.8576,2.7039,2.6355,2.5407,2.4358,2.5171,2.6003,2.6776,2.7603,2.8356,2.9089,2.879,2.7943,2.676,2.6413,2.5669,2.4528,2.4599,2.4663,2.4757,2.4783,2.4856,2.4945,2.5063,2.4676,2.3835,2.304,2.2249,2.1453,2.0625,2.0242,2.0366,2.0353,2.0354,2.0352,1.9151,1.8295,1.7873,0.0,0.0,0.0,0.0,0.0,0.0,0.0,0.0,0.0,0.0,0.0,1.091,1.1137,1.1125,1.0701,1.1358,1.1942,1.2293,1.3299,1.3724,1.3212,1.337,1.3445,1.3324,1.3552,1.3839,1.4155,1.4208,1.4503,1.521,1.5569,1.6117,1.6818,1.7243,1.7603,1.7945,1.7988,1.7944,1.7944,1.79,1.7861,1.7878,1.7917,1.7917,1.7966,1.8222,1.8426,1.8563,1.8752,1.8964,1.9178,1.9401,1.9626,1.9869,2.0067,2.0237,2.0342,2.0387,2.039,2.0355,2.0249,2.0088,1.9839,1.9576,1.9335,1.9075,1.8789,1.8454,1.809,1.7631,1.7288,3.2634,3.2068,3.2177,3.1447,3.0285,3.0222,2.9223,2.7595,0.0,0.0,0.0,2.5115,2.5931,2.6857,2.752,2.8313,2.9181,2.9095,2.8264,2.6838,2.673,2.5966,2.4652,2.4615,2.4698,2.4806,2.4817,2.4842,2.4931,2.5031,2.474,2.401,2.3217,2.2333,2.1407,2.06,2.0238,2.0269,2.0296,2.0325,2.0354,1.9542,1.8709,1.7888,1.7054,1.6208,1.5429,1.5418,1.5408,1.541,1.5421,1.4995,1.4165,1.405,1.3311,1.1806,1.2257,1.2312,1.1609,1.221,1.2941,1.3644,1.4147,1.435,1.4281,1.415,1.4083,1.4064,1.397,1.4203,1.4917,1.4969,1.5244,1.5929,1.6527,1.6915,1.7096,1.7526,1.7827,1.7861,1.7772,1.7681,1.7664,1.7579,1.7526,1.7572,1.7612,1.7612,1.7726,1.7988,1.8236,1.8363,1.8526,1.8734,1.8948,1.9162,1.9419,1.9695,1.9909,2.0086,2.023,2.0318,2.0382,2.039,2.0338,2.0226,2.0069,1.9859,1.9637,1.9448,1.9157,1.8894,1.8771,1.8278,1.7793,3.297,3.2883,3.2469,3.2192,3.1955,3.0723,2.8983,2.6988,2.6115,2.5264,2.4501,2.4591,2.5466,2.6896,2.7007,2.7857,2.9144,2.8503,2.771,0.0,2.6228,2.5497,2.472,2.4701,2.4714,2.4806,2.4817,2.4856,2.4977,2.4999,2.4994,2.4822,2.4121,2.2942,2.1464,2.0621,2.0197,2.0205,2.0262,2.0299,2.0301,1.9523,1.8691,1.7829,1.7034,1.6233,1.546,1.5412,1.5406,1.541,1.5404,1.5018,1.4169,1.4114,1.3609,1.2645,1.2627,1.2593,1.2425,1.3116,1.3787,1.4367,1.4407,1.4325,1.4145,1.4046,1.4217,1.4682,1.4721,1.5003,1.5641,1.5691,1.5946,1.6632,1.6792,1.7071,1.7633,1.7715,1.7732,1.7732,1.7641,1.7572,1.7549,1.7509,1.7486,1.7509,1.7526,1.7572,1.7687,1.7861,1.807,1.8215,1.8342,1.8544,1.8788,1.8966,1.9193,1.9481,1.9707,1.9907,2.004,2.0178,2.0318,2.038,2.0391,2.0343,2.0274,2.0133,1.9973,1.9809,1.9556,1.9368,1.9216,1.8908,1.8553,3.3055,3.3093,3.3034,3.2775,3.2292,3.0889,2.9292,2.7567,2.673,2.567,2.4605,2.4566,2.522,2.6247,2.6302,2.6897,2.7933,2.7563,2.7008,2.6302,2.5966,2.5403,2.4738,2.4679,2.4723,2.4802,2.4842,2.4903,2.4996,2.4999,2.5038,2.505,2.4293,2.3048,2.1493,2.1034,2.064,2.0208,2.0238,2.0258,2.0294,1.9953,1.9355,1.8526,1.7728,1.6907,1.6083,1.5626,1.5406,1.541,1.5406,1.5218,1.4829,1.4762,1.4334,1.3485,1.3822,1.3821,1.3278,1.3871,1.4326,1.4526,1.4469,1.4525,1.4791,1.4709,1.4715,1.4943,1.5261,1.5783,1.6455,1.6502,1.6755,1.7473,1.7517,1.7629,1.7837,1.7816,1.7749,1.7687,1.7635,1.7566,1.7519,1.7496,1.7472,1.7472,1.7496,1.7526,1.7641,1.7833,1.7983,1.8087,1.8222,1.8445,1.8639,1.8843,1.9049,1.9305,1.9523,1.9732,1.9861,2.0067,2.0224,2.0332,2.0377,2.039,2.0348,2.0269,2.0173,2.0079,1.9876,1.9698,1.9576,1.9364,1.8993,3.3135,3.3196,3.3491,3.3177,3.2391,3.1391,2.9987,2.8481,2.783,2.6579,2.5024,2.4725,2.5066,2.5742,2.5779,2.6227,2.6804,2.6712,2.634,2.5817,2.5611,2.5252,2.4738,2.4692,2.4738,2.4798,2.4856,2.4917,2.4977,2.4999,2.5038,2.5,2.4286,2.3261,2.1981,2.1579,2.1101,2.0523,2.0299,2.0235,2.028,2.0287,1.9928,1.9126,1.8523,1.7699,1.6687,1.6033,1.56,1.543,1.5408,1.5416,1.5414,1.5349,1.5004,1.4437,1.4882,1.4865,1.4204,1.4454,1.4668,1.4523,1.4458,1.4683,1.5282,1.5437,1.5491,1.5571,1.6028,1.6565,1.7203,1.7297,1.746,1.8027,1.8091,1.7992,1.7905,1.7856,1.7789,1.7726,1.7658,1.7566,1.7519,1.7472,1.7448,1.7489,1.7529,1.7542,1.7635,1.7794,1.7922,1.8031,1.8184,1.8388,1.8582,1.877,1.8948,1.9148,1.9398,1.9577,1.9738,1.9901,2.0105,2.0224,2.0328,2.0375,2.037,2.0354,2.0317,2.0233,2.0096,1.9955,1.9834,1.9669,1.9354,3.3135,3.3364,3.3549,3.3295,3.2785,3.2613,3.1306,2.949,2.9304,2.7979,2.5893,2.5035,2.5117,2.5738,2.5758,2.6152,2.6749,2.6154,2.58,2.5705,2.5049,2.4706,2.4701,2.4676,2.4742,2.4787,2.4832,2.4856,2.4931,2.4966,2.5032,2.5005,2.4297,2.3853,2.3492,2.2172,2.1397,2.1366,2.0661,2.0265,2.0227,2.0272,1.9909,1.9128,1.91,1.8325,1.6862,1.6633,1.6218,1.5486,1.541,1.5421,1.5403,1.5338,1.526,1.5153,1.519,1.5101,1.4908,1.4831,1.4717,1.4614,1.4517,1.4732,1.5392,1.5913,1.648,1.6959,1.7095,1.7418,1.8069,1.8038,1.7996,1.8082,1.8053,1.7966,1.7922,1.7856,1.7789,1.771,1.7681,1.7572,1.7526,1.7486,1.7502,1.7519,1.7566,1.7635,1.7766,1.7839,1.7988,1.8134,1.8263,1.8371,1.8547,1.8715,1.8878,1.9086,1.9298,1.946,1.9559,1.975,1.9971,2.0105,2.0222,2.0298,2.0369,2.0387,2.0385,2.0363,2.0289,2.0199,2.0047,1.9905,1.9675,3.3196,3.3393,3.3549,3.3597,3.3531,3.3099,3.1898,3.0297,2.9813,2.8538,2.6879,2.6392,2.5855,2.5155,2.5155,2.5308,2.55,2.5201,2.5086,2.5138,2.48,2.4682,2.4695,2.4742,2.4772,2.4806,2.4827,2.487,2.4917,2.4966,2.5038,2.5057,2.4751,2.4373,2.3892,2.3214,2.2412,2.1455,2.1154,2.0776,2.0331,2.0332,2.0205,1.9854,1.943,1.894,1.8173,1.724,1.6535,1.6171,1.5682,1.5418,1.5416,1.5332,1.5295,1.5289,1.5195,1.5092,1.4987,1.4868,1.4737,1.4606,1.4921,1.54,1.606,1.6695,1.7364,1.7948,1.8009,1.8049,1.8252,1.8246,1.8205,1.8222,1.8197,1.8134,1.807,1.8027,1.7944,1.7839,1.7794,1.7749,1.7641,1.7572,1.7572,1.7618,1.7681,1.7749,1.7856,1.7966,1.8091,1.818,1.8307,1.8448,1.8582,1.8751,1.8896,1.9036,1.9221,1.9375,1.9442,1.963,1.9847,1.996,2.0086,2.0217,2.0323,2.038,2.0402,2.0427,2.0408,2.0328,2.0192,2.0111,1.9992,3.3226,3.3452,3.3605,3.3834,3.4037,3.356,3.2486,3.1177,3.0583,2.9307,2.7669,2.7593,2.6806,2.5483,2.515,2.4891,2.4617,2.4599,2.4615,2.4666,2.4682,2.4698,2.4711,2.4757,2.4806,2.4821,2.4856,2.4898,2.4926,2.4985,2.5025,2.5082,2.5088,2.482,2.4301,2.4066,2.3341,2.2221,2.1778,2.1235,2.072,2.0495,2.0385,2.0349,1.9862,1.9449,1.9169,1.8042,1.7181,1.6699,1.6091,1.5652,1.5416,1.5349,1.5288,1.5265,1.5165,1.5064,1.4987,1.4867,1.484,1.4995,1.5386,1.6014,1.6827,1.7353,1.7914,1.8518,1.8544,1.841,1.8348,1.8307,1.8325,1.8304,1.8281,1.8236,1.8172,1.8113,1.8053,1.7944,1.7922,1.79,1.7811,1.7749,1.7726,1.7772,1.7839,1.79,1.7966,1.8113,1.8239,1.8287,1.8448,1.8544,1.86,1.8751,1.8896,1.8984,1.9135,1.9314,1.9372,1.9541,1.9732,1.987,1.9982,2.0084,2.0204,2.0293,2.0419,2.0459,2.0446,2.0408,2.0367,2.0318,2.0288,3.3238,3.3502,3.378,3.3865,3.4005,3.4093,3.3301,3.196,3.189,3.062,2.8575,2.8368,2.788,2.7017,2.6253,2.5415,2.4708,2.4671,2.4652,2.4615,2.4666,2.4682,2.4717,2.476,2.4802,2.4798,2.4856,2.4926,2.4999,2.4993,2.5038,2.5082,2.5088,2.5106,2.4981,2.4394,2.3965,2.3611,2.2367,2.1586,2.142,2.0785,2.0383,2.0383,2.0405,2.0017,1.9341,1.9188,1.8444,1.6796,1.664,1.6242,1.5539,1.5357,1.5276,1.5193,1.514,1.5064,1.5006,1.4915,1.5112,1.5685,1.5852,1.6328,1.7557,1.7761,1.8109,1.8717,1.8659,1.8545,1.8426,1.8383,1.8339,1.8319,1.8274,1.8194,1.8134,1.8117,1.807,1.8005,1.8005,1.7983,1.7983,1.8,1.7983,1.7983,1.8048,1.8113,1.8155,1.8243,1.8348,1.8448,1.8584,1.8678,1.8623,1.8788,1.8878,1.8948,1.9119,1.9282,1.9357,1.9442,1.9614,1.9763,1.9851,1.9982,2.0084,2.0204,2.0352,2.0425,2.0481,2.0467,2.0458,2.048,2.0455,3.2961,3.283,3.3062,3.3197,3.3371,3.4022,3.3747,3.2804,3.2347,3.1392,3.0133,2.9475,2.8797,2.799,2.7656,2.6758,2.5576,2.5501,2.5185,2.4735,2.4676,2.4676,2.4692,2.4726,2.4723,2.4734,2.4813,2.4884,2.4985,2.4999,2.5025,2.5082,2.5088,2.5137,2.5138,2.4922,2.4561,2.4015,2.2923,2.2119,2.1608,2.0824,2.0383,2.0399,2.0463,2.0352,2.0039,1.9578,1.901,1.8376,1.7324,1.6557,1.623,1.5634,1.5274,1.5199,1.514,1.5064,1.5055,1.5367,1.5654,1.5919,1.6767,1.7343,1.7863,1.8277,1.8644,1.8807,1.8788,1.8677,1.8603,1.8542,1.848,1.8423,1.8363,1.8322,1.8284,1.8263,1.8201,1.8134,1.8108,1.807,1.807,1.8108,1.813,1.8138,1.8142,1.8222,1.8322,1.8385,1.8485,1.8563,1.8677,1.877,1.8806,1.8896,1.8984,1.9001,1.9102,1.9184,1.928,1.9413,1.9574,1.966,1.977,1.9885,2.0022,2.0177,2.0313,2.0394,2.0455,2.0494,2.0503,2.0508,2.0484,3.2629,3.242,3.2302,3.2342,3.2617,3.3543,3.3523,3.2863,3.2366,3.1711,3.0904,3.0076,2.938,2.8967,2.8838,2.8106,2.681,2.651,2.5928,2.5158,2.512,2.497,2.4745,2.4723,2.4723,2.4757,2.4779,2.487,2.4964,2.4985,2.5012,2.507,2.5076,2.5125,2.5195,2.5209,2.4936,2.438,2.3647,2.2832,2.2033,2.1243,2.0659,2.0454,2.0448,2.0515,2.051,1.9992,1.956,1.9197,1.8164,1.7415,1.7077,1.6472,1.6072,1.6,1.5951,1.5884,1.5852,1.6215,1.6498,1.6704,1.7544,1.8155,1.8328,1.8761,1.8948,1.8932,1.8861,1.8789,1.8733,1.8676,1.8637,1.8542,1.8463,1.8406,1.8406,1.8328,1.8287,1.826,1.8218,1.8197,1.8197,1.8236,1.826,1.8266,1.8304,1.8365,1.8463,1.8561,1.8619,1.8659,1.877,1.8878,1.8949,1.9001,1.9036,1.9052,1.9102,1.9168,1.9264,1.9383,1.9504,1.9578,1.9694,1.9835,1.9991,2.0139,2.0262,2.036,2.0409,2.0445,2.0467,2.0486,2.048,3.218,3.2238,3.1682,3.1501,3.1732,3.2614,3.2654,3.2144,3.2117,3.1672,3.0865,3.0114,2.9757,2.9645,2.9551,2.9138,2.8312,2.7636,2.6866,2.6057,2.6,2.559,2.497,2.5039,2.4998,2.4904,2.4917,2.4922,2.4917,2.4977,2.4985,2.5012,2.5089,2.5132,2.5222,2.5209,2.5233,2.5024,2.4387,2.365,2.2917,2.2062,2.1247,2.0598,2.0506,2.0503,2.0506,2.0506,2.0149,1.9492,1.9237,1.8794,1.7955,1.7644,1.7658,1.7504,1.7531,1.7486,1.7388,1.73,1.76,1.7994,1.8263,1.8577,1.9008,1.9115,1.9087,1.9001,1.8966,1.886,1.8824,1.8788,1.8732,1.8617,1.8502,1.8426,1.8388,1.8348,1.8328,1.8385,1.8348,1.8348,1.8385,1.8385,1.8406,1.8426,1.8502,1.8579,1.8617,1.8714,1.8788,1.8824,1.8896,1.9002,1.9052,1.9102,1.9102,1.9102,1.9168,1.9216,1.9277,1.9398,1.9508,1.9583,1.9686,1.983,1.9939,2.0106,2.0192,2.0276,2.034,2.041,2.0428,2.0457,2.0474,3.1383,3.149,3.0907,3.0678,3.0923,3.1883,3.2157,3.2014,3.2081,3.1673,3.0998,3.0716,3.032,2.9849,2.9718,2.955,2.9286,2.8987,2.8162,2.7017,2.6829,2.6679,2.6435,2.6432,2.6167,2.5709,2.5646,2.5389,2.5012,2.4983,2.5037,2.5057,2.5076,2.5137,2.5198,2.5212,2.5253,2.5254,2.4549,2.3975,2.3666,2.2436,2.1598,2.1352,2.0803,2.05,2.0501,2.0523,2.0416,2.0173,1.9609,1.89,1.8159,1.7866,1.7785,1.7767,1.7665,1.7562,1.7568,1.7941,1.8237,1.8454,1.8808,1.9118,1.9253,1.9248,1.9186,1.9084,1.9052,1.9001,1.8931,1.8878,1.8789,1.862,1.8565,1.8545,1.8526,1.8505,1.8502,1.8522,1.8502,1.852,1.854,1.8542,1.8526,1.8563,1.862,1.8695,1.8788,1.8843,1.8913,1.8982,1.9067,1.9102,1.9152,1.9184,1.92,1.92,1.9232,1.9264,1.9308,1.9398,1.9493,1.9611,1.9699,1.9806,1.9947,2.0031,2.0133,2.02,2.0268,2.0334,2.039,2.0429,2.0443,3.1302,3.1089,3.0186,2.9867,3.0072,3.1046,3.1486,3.1528,3.1574,3.1372,3.0979,3.0641,3.0264,2.9812,2.97,2.97,2.97,2.9701,2.9119,2.8162,2.773,2.7505,2.7261,2.7204,2.7013,2.6575,2.6478,2.6091,2.5376,2.5413,2.5354,2.5139,2.5088,2.5111,2.5201,2.5222,2.5293,2.5292,2.4883,2.449,2.407,2.3197,2.2391,2.1822,2.1266,2.084,2.0564,2.0506,2.0554,2.0506,2.0018,1.9458,1.8971,1.8861,1.8764,1.8718,1.8628,1.8561,1.8498,1.8879,1.9042,1.9039,1.9335,1.9499,1.9398,1.9375,1.928,1.92,1.9135,1.9104,1.9035,1.8983,1.8878,1.8752,1.8715,1.8678,1.8659,1.8639,1.8638,1.8656,1.8637,1.8619,1.8657,1.8676,1.8659,1.8678,1.8734,1.8807,1.8896,1.8967,1.9034,1.9099,1.915,1.92,1.9232,1.9264,1.9314,1.9314,1.9329,1.9326,1.9357,1.9431,1.9522,1.9633,1.9719,1.9837,1.9966,1.9981,2.005,2.0133,2.0227,2.0272,2.0328,2.0385,2.0418,3.1792,3.1034,2.9648,2.9144,2.9366,3.02,3.0586,3.065,3.0822,3.0826,3.064,3.0246,2.9851,2.9739,2.9719,2.9682,2.9701,2.9683,2.9645,2.9326,2.8819,2.8181,2.7693,2.7636,2.7541,2.7366,2.7342,2.6937,2.6193,2.6133,2.5937,2.533,2.5196,2.5141,2.5201,2.5282,2.5322,2.5397,2.5401,2.5016,2.4386,2.4218,2.3572,2.2142,2.1838,2.1369,2.082,2.0633,2.0583,2.0585,2.0472,2.0333,2.0402,2.0434,2.0183,2.0077,2.0196,1.9981,1.9935,1.9747,1.976,1.9663,1.9669,1.966,1.9532,1.9464,1.939,1.9314,1.9251,1.9186,1.9137,1.9104,1.9035,1.893,1.8878,1.8825,1.8734,1.8698,1.8752,1.8788,1.8715,1.8659,1.8788,1.8788,1.8806,1.8807,1.8861,1.8931,1.9018,1.9104,1.9119,1.9184,1.9264,1.9295,1.9341,1.9372,1.9387,1.942,1.9435,1.9416,1.9431,1.9504,1.9574,1.9662,1.977,1.9866,1.9963,1.999,2.006,2.0162,2.0222,2.0235,2.0268,2.0341,2.0402,3.1764,3.1078,2.9724,2.9156,2.924,2.959,2.9768,2.9903,3.0542,3.047,3.0171,3.049,3.0245,2.9793,2.9718,2.9681,2.97,2.9701,2.9701,2.9664,2.9514,2.9288,2.9082,2.9007,2.8669,2.8198,2.8137,2.7756,2.6975,2.6574,2.6208,2.5977,2.5468,2.5214,2.5271,2.5283,2.537,2.5459,2.5495,2.5444,2.5169,2.4591,2.4156,2.3724,2.2533,2.1789,2.1396,2.0878,2.0605,2.0602,2.0552,2.0514,2.0503,2.0419,2.0369,2.0308,2.0235,2.0134,2.0021,1.9977,1.9908,1.982,1.9795,1.9712,1.9601,1.955,1.9475,1.9383,1.9305,1.928,1.9251,1.9202,1.9152,1.9049,1.8983,1.8913,1.8878,1.8843,1.886,1.8878,1.8843,1.8861,1.8861,1.8878,1.8914,1.8967,1.9001,1.9086,1.9152,1.9216,1.9248,1.936,1.9438,1.945,1.946,1.9456,1.9489,1.9555,1.9569,1.9564,1.9574,1.9614,1.9694,1.9763,1.983,1.9911,1.9974,2.0038,2.0127,2.0209,2.0233,2.0262,2.0301,2.0347,2.0402,3.2236,3.1545,2.9848,2.9134,2.92,2.931,2.9412,2.9547,3.0037,3.0095,2.9851,3.0189,3.0189,2.9775,2.97,2.97,2.9682,2.9701,2.9701,2.9701,2.9664,2.9645,2.9664,2.9683,2.9419,2.9024,2.9003,2.8584,2.7932,2.746,2.7001,2.6338,2.5951,2.56,2.5292,2.5332,2.5388,2.5476,2.5507,2.5531,2.5549,2.5138,2.4681,2.4358,2.3322,2.2671,2.1929,2.1367,2.1012,2.0714,2.0549,2.0509,2.0499,2.0443,2.0394,2.0354,2.0277,2.0178,2.0079,2.0029,1.9945,1.9903,1.9868,1.9801,1.9707,1.9655,1.9582,1.9481,1.9427,1.9387,1.9326,1.928,1.9232,1.92,1.9117,1.9052,1.9,1.9001,1.8983,1.8983,1.9001,1.8983,1.8983,1.8982,1.9017,1.9087,1.9155,1.9219,1.9314,1.9341,1.9372,1.9464,1.9526,1.9541,1.955,1.956,1.9569,1.9633,1.9692,1.9686,1.9694,1.9732,1.9794,1.9854,1.99,1.9955,2.0028,2.0078,2.0155,2.0227,2.026,2.0315,2.0334,2.0365,2.0418,3.2951,3.2092,3.0009,2.9159,2.9218,2.927,2.9351,2.9412,2.9567,2.9644,2.9626,2.9664,2.9758,2.9701,2.9701,2.9683,2.9683,2.9683,2.9701,2.9701,2.9701,2.9701,2.9701,2.9701,2.9644,2.9586,2.9753,2.9353,2.8796,2.8715,2.7994,2.7026,2.6644,2.6121,2.5648,2.5457,2.5443,2.5499,2.5524,2.5544,2.5604,2.5489,2.5204,2.4726,2.4327,2.3423,2.2479,2.1972,2.1655,2.0788,2.0597,2.0519,2.0492,2.0439,2.0418,2.0386,2.0332,2.0265,2.019,2.0069,2.0,1.9985,1.993,1.9866,1.98,1.977,1.9688,1.9628,1.9574,1.9489,1.9435,1.9372,1.9326,1.9295,1.928,1.9235,1.9153,1.912,1.9104,1.912,1.9139,1.9139,1.912,1.9117,1.9132,1.9184,1.9251,1.9314,1.939,1.9435,1.9446,1.9508,1.9569,1.9611,1.9638,1.9679,1.9699,1.9738,1.9807,1.9813,1.98,1.9835,1.9889,1.9934,1.9977,2.0029,2.0098,2.0164,2.0199,2.0241,2.0296,2.0352,2.0392,2.0408,2.0444,3.3121,3.1362,3.0338,2.9637,2.9274,2.9283,2.9328,2.9394,2.9433,2.9511,2.9588,2.9626,2.9645,2.9701,2.9701,2.9701,2.9701,2.9701,2.9701,2.9701,2.9701,2.9683,2.9683,2.9683,2.9701,2.9717,2.9771,2.971,2.951,2.9057,2.8689,2.8261,2.707,2.6442,2.6265,2.5648,2.5437,2.5498,2.5557,2.5587,2.56,2.5663,2.5566,2.53,2.479,2.3922,2.3105,2.285,2.2415,2.1626,2.0989,2.0695,2.0531,2.0487,2.0454,2.0404,2.0346,2.0289,2.0214,2.0125,2.005,2.001,1.9988,1.9963,1.9889,1.9854,1.9825,1.9763,1.9699,1.962,1.955,1.9493,1.9446,1.9398,1.9368,1.9357,1.9329,1.9232,1.9219,1.9235,1.9251,1.9253,1.9221,1.9248,1.9277,1.9292,1.9341,1.9387,1.9464,1.9508,1.9536,1.9564,1.962,1.9679,1.9718,1.9738,1.9788,1.9818,1.9884,1.9952,1.9926,1.9926,1.9977,2.0009,2.0058,2.0108,2.0162,2.0205,2.0257,2.0304,2.0339,2.0373,2.041,2.0434,2.0467,3.3334,3.1691,3.0581,2.9756,2.9252,2.924,2.9326,2.939,2.9373,2.9433,2.953,2.9569,2.9626,2.9664,2.9701,2.9701,2.9701,2.9701,2.9701,2.9701,2.9701,2.9701,2.9682,2.9701,2.97,2.9717,2.9806,2.9876,2.9772,2.9547,2.9236,2.8861,2.768,2.6943,2.6535,2.5867,2.5519,2.5511,2.5564,2.5599,2.563,2.5667,2.5694,2.5679,2.5226,2.4608,2.3808,2.3708,2.3233,2.2537,2.1957,2.1296,2.0628,2.0511,2.0478,2.041,2.0347,2.0292,2.0238,2.0197,2.0106,2.0098,2.0049,1.999,1.9966,1.9934,1.9908,1.9861,1.9782,1.9719,1.9692,1.9647,1.9587,1.956,1.9536,1.9504,1.9479,1.9372,1.9298,1.9347,1.936,1.9344,1.9326,1.9372,1.942,1.945,1.9413,1.9475,1.9546,1.9587,1.962,1.9647,1.9699,1.9738,1.9776,1.9825,1.9884,1.9911,1.9936,2.001,2.0069,2.0069,2.0068,2.0108,2.0145,2.0182,2.0233,2.0273,2.0311,2.0346,2.0379,2.041,2.0443,2.0478,2.0488,3.3587,3.2265,3.0797,2.9868,2.9396,2.9255,2.9283,2.9368,2.9372,2.9412,2.9412,2.9549,2.9588,2.9626,2.9683,2.9701,2.9701,2.9683,2.9683,2.9701,2.9682,2.97,2.9717,2.9735,2.9753,2.9734,2.9841,2.991,2.9972,3.0015,2.9737,2.9104,2.8387,2.7668,2.6863,2.6097,2.5677,2.5564,2.5562,2.5609,2.5615,2.5675,2.5684,2.567,2.562,2.5293,2.4726,2.4546,2.4186,2.3388,2.329,2.2434,2.1383,2.0876,2.0847,2.0861,2.0959,2.0996,2.1009,2.0842,2.0743,2.0499,2.0547,2.0517,2.0525,2.0608,2.0622,2.0501,2.0462,2.0421,2.0227,2.0364,2.027,2.0193,2.0116,2.0014,1.9968,1.9888,1.9937,1.9416,1.9464,1.9464,1.9464,1.9479,1.9541,1.9602,1.9583,1.956,1.9628,1.9668,1.9668,1.9681,1.9732,1.9801,1.9837,1.9896,1.9952,1.9988,2.002,2.0088,2.0161,2.018,2.0182,2.019,2.0225,2.0269,2.03,2.0318,2.0353,2.0386,2.041,2.0438,2.0468,2.0495,2.0506,3.3539,3.232,3.1417,3.0668,3.007,2.9492,2.9277,2.9323,2.9368,2.939,2.9412,2.9472,2.955,2.9607,2.9664,2.9701,2.9701,2.9701,2.9701,2.97,2.9699,2.9717,2.9789,2.9822,2.9855,2.9891,2.9924,2.9972,3.0064,3.0123,3.0065,2.9877,2.921,2.8422,2.7643,2.697,2.6125,2.5641,2.5579,2.563,2.5671,2.5675,2.5698,2.5697,2.5702,2.5586,2.5506,2.5421,2.5098,2.4303,2.419,2.3626,2.292,2.262,2.253,2.2326,2.2249,2.2137,2.2157,2.226,2.2323,2.2345,2.2144,2.2125,2.2066,2.2045,2.1801,2.184,2.1832,2.1865,2.1972,2.1683,2.1784,2.1808,2.1679,2.1666,2.1671,2.1498,2.098,2.0155,1.9848,1.9778,1.9987,2.0061,2.0052,2.008,1.995,1.9796,1.9681,1.9707,1.9701,1.9726,1.977,1.983,1.9896,1.9945,1.9998,2.0068,2.0098,2.0153,2.0214,2.0273,2.0281,2.0289,2.0289,2.0315,2.0345,2.036,2.0372,2.0383,2.0424,2.0483,2.0491,2.0515,2.0503,3.3527,3.2292,3.1928,3.1228,3.0294,2.9945,2.9628,2.932,2.9365,2.939,2.9412,2.9472,2.955,2.9607,2.9683,2.9701,2.9683,2.9701,2.97,2.9698,2.9735,2.9789,2.9841,2.9888,2.9972,3.0019,3.0049,3.0079,3.0157,3.0171,3.0253,3.0138,2.9563,2.8781,2.7999,2.716,2.643,2.5795,2.5615,2.5619,2.5699,2.5687,2.5689,2.5699,2.5703,2.5703,2.57,2.5693,2.5527,2.5161,2.5067,2.4799,2.4481,2.4238,2.3914,2.3236,2.3024,2.2951,2.2917,2.286,2.2778,2.2763,2.2794,2.2748,2.27,2.2593,2.2675,2.2601,2.2547,2.2493,2.2431,2.2495,2.2407,2.2394,2.242,2.2444,2.2407,2.2362,2.1832,2.1159,2.1213,2.1209,2.1087,2.1031,2.0783,2.0578,2.0391,2.0193,1.997,2.0001,2.0101,2.0107,2.02,2.0247,2.0342,2.0397,2.0468,2.048,2.0317,2.0378,2.0304,2.0381,2.0378,2.036,2.0379,2.0372,2.036,2.0372,2.0383,2.039,2.0444,2.0482,2.0508,2.0513,2.0514,3.3442,3.2433,3.2392,3.1725,3.0754,3.0599,3.0323,2.9854,2.9882,2.9965,2.9878,2.9827,2.9831,2.9795,2.9739,2.9682,2.9682,2.9699,2.9735,2.977,2.9806,2.9857,2.9905,2.9953,3.0034,3.0142,3.0194,3.0213,3.0213,3.024,3.0312,3.0251,2.9693,2.9062,2.8335,2.7617,2.6663,2.6054,2.5639,2.5648,2.5671,2.5698,2.5694,2.57,2.5703,2.5703,2.57,2.5693,2.5703,2.5612,2.5613,2.5598,2.56,2.5604,2.4941,2.3797,2.3534,2.3469,2.348,2.3523,2.3667,2.3625,2.3416,2.3351,2.3371,2.3466,2.3269,2.313,2.3202,2.3279,2.3351,2.3144,2.3132,2.3132,2.3126,2.3007,2.3171,2.3234,2.3278,2.2905,2.2801,2.2445,2.2098,2.1835,2.1534,2.1459,2.1272,2.1204,2.0985,2.0828,2.0822,2.0745,2.0743,2.0789,2.0891,2.1058,2.1186,2.1292,2.1004,2.0806,2.0643,2.0513,2.0482,2.0424,2.039,2.0385,2.039,2.0396,2.0404,2.0425,2.0463,2.048,2.0503,2.0503,2.0501,3.3262,3.3194,3.2647,3.2319,3.2088,3.1599,3.1384,3.1265,3.1283,3.1504,3.1352,3.0872,3.0616,3.0451,2.9926,2.9737,2.9717,2.9771,2.9823,2.9839,2.9891,2.9956,3.0053,3.0147,3.0157,3.0245,3.0273,3.0286,3.0305,3.0349,3.0386,3.0356,3.0316,2.9979,2.8988,2.8143,2.7569,2.6743,2.6052,2.5691,2.5693,2.5693,2.5698,2.5701,2.5703,2.5702,2.57,2.5693,2.5703,2.569,2.5691,2.5652,2.561,2.5609,2.5554,2.5323,2.526,2.5207,2.5023,2.4892,2.4857,2.4759,2.4848,2.4995,2.4745,2.4657,2.4605,2.49,2.479,2.4622,2.4522,2.4676,2.4759,2.4607,2.4397,2.448,2.4588,2.4081,2.4125,2.4195,2.396,2.3302,2.2771,2.2545,2.2318,2.2248,2.216,2.2092,2.1916,2.1664,2.1582,2.1505,2.1502,2.1548,2.1534,2.1682,2.1837,2.202,2.1769,2.1358,2.107,2.0855,2.0508,2.0475,2.0421,2.0404,2.0404,2.0434,2.0444,2.0458,2.0491,2.0496,2.05,2.0514,2.0527,3.3104,3.322,3.311,3.2821,3.2437,3.2236,3.1949,3.1653,3.1668,3.1801,3.1896,3.1619,3.1254,3.0772,3.0094,2.9754,2.9771,2.9823,2.9874,2.9921,2.9988,3.0064,3.0142,3.0199,3.0226,3.0305,3.0343,3.039,3.041,3.0414,3.0436,3.0528,3.0521,3.0141,2.9439,2.8526,2.7686,2.6889,2.6167,2.5723,2.5701,2.5694,2.57,2.57,2.5703,2.5702,2.5699,2.5696,2.5705,2.5693,2.5701,2.5668,2.5624,2.5605,2.559,2.5593,2.5556,2.5506,2.5478,2.5515,2.5492,2.5448,2.5404,2.5292,2.5322,2.5283,2.5222,2.5182,2.5187,2.5184,2.516,2.5156,2.5156,2.5156,2.5137,2.5156,2.5156,2.5132,2.4948,2.505,2.5025,2.4271,2.3708,2.3676,2.3436,2.3132,2.3018,2.2861,2.2552,2.2186,2.2223,2.2334,2.2319,2.2353,2.2321,2.2354,2.2451,2.2585,2.2581,2.215,2.1601,2.1262,2.0888,2.0545,2.0413,2.0415,2.0449,2.0449,2.0449,2.0467,2.0504,2.0506,2.0506,2.0566,2.0617,3.3042,3.3117,3.3444,3.3259,3.2712,3.2889,3.2723,3.2262,3.2292,3.2451,3.244,3.2187,3.152,3.0716,3.0091,2.9823,2.9842,2.9907,2.9956,3.0019,3.0064,3.0171,3.0226,3.0247,3.0299,3.0402,3.0414,3.0466,3.0479,3.0481,3.051,3.0617,3.0625,3.033,2.971,2.8923,2.8098,2.6948,2.6123,2.5729,2.5701,2.5693,2.5698,2.5701,2.5703,2.5702,2.57,2.5698,2.5691,2.5693,2.5687,2.5675,2.5604,2.561,2.5595,2.5599,2.5601,2.5564,2.5538,2.5517,2.5515,2.5492,2.5429,2.5367,2.5332,2.5322,2.5302,2.5243,2.5231,2.522,2.5209,2.5206,2.5206,2.5206,2.5187,2.5217,2.5206,2.5184,2.5168,2.5156,2.5151,2.512,2.4771,2.4879,2.4632,2.4163,2.3884,2.3651,2.3348,2.3,2.3164,2.3398,2.3472,2.3507,2.3476,2.3386,2.3342,2.3227,2.3251,2.2898,2.2315,2.1687,2.1172,2.0848,2.0501,2.042,2.0468,2.0449,2.0454,2.0476,2.0499,2.051,2.0531,2.0609,2.0992,3.3042,3.3117,3.3444,3.355,3.3478,3.3661,3.3739,3.361,3.3702,3.3839,3.3698,3.2797,3.1337,3.0225,2.9992,2.9872,2.9907,3.0022,3.0083,3.0142,3.0185,3.0253,3.0286,3.0336,3.039,3.0417,3.0469,3.053,3.0588,3.0568,3.0588,3.0607,3.0651,3.0642,3.0205,2.9395,2.8262,2.7102,2.6152,2.5732,2.5701,2.5689,2.5697,2.57,2.5702,2.5703,2.57,2.5699,2.5693,2.5693,2.569,2.5655,2.5604,2.561,2.5595,2.5613,2.5601,2.5564,2.5525,2.5511,2.551,2.5499,2.5448,2.5385,2.5379,2.537,2.5351,2.5303,2.5262,2.5282,2.5252,2.5241,2.5231,2.5231,2.5231,2.5201,2.5209,2.5198,2.5195,2.5191,2.5199,2.5156,2.5144,2.5088,2.507,2.4613,2.4536,2.4308,2.4441,2.4233,2.4435,2.4619,2.4715,2.4771,2.4827,2.4694,2.4368,2.4226,2.4205,2.3653,2.3002,2.2337,2.1682,2.0983,2.0637,2.0556,2.0473,2.0478,2.0472,2.0496,2.0533,2.06,2.0753,2.0926,2.1559,3.3042,3.3117,3.3462,3.3605,3.3615,3.3788,3.3921,3.3998,3.4099,3.3948,3.3668,3.2671,3.1619,3.0675,3.0042,2.9956,2.9972,3.0098,3.0157,3.0213,3.0234,3.0299,3.0348,3.0383,3.0417,3.046,3.051,3.054,3.0606,3.0604,3.0621,3.0649,3.0673,3.0676,3.0354,2.9491,2.8199,2.7188,2.625,2.5732,2.5701,2.5689,2.5696,2.57,2.5702,2.5703,2.5701,2.57,2.5691,2.5698,2.569,2.5648,2.56,2.561,2.5615,2.5607,2.5601,2.5564,2.5506,2.5511,2.5517,2.5499,2.5429,2.5393,2.5397,2.5388,2.5361,2.5313,2.5302,2.5292,2.5282,2.5262,2.5252,2.5262,2.5252,2.5222,2.5212,2.5209,2.5206,2.5203,2.5191,2.5168,2.5156,2.5113,2.5095,2.5032,2.5012,2.5004,2.4991,2.4991,2.5023,2.5037,2.5076,2.512,2.5137,2.5176,2.5241,2.5139,2.5014,2.4347,2.3609,2.3035,2.2339,2.1537,2.0734,2.0561,2.0482,2.0495,2.0508,2.0503,2.0617,2.0745,2.0957,2.1241,2.1794,3.3104,3.3226,3.3473,3.3605,3.3633,3.3834,3.3947,3.4023,3.4148,3.3682,3.2924,3.2202,3.1467,3.0708,3.0278,3.0038,3.0049,3.0123,3.0199,3.0234,3.0286,3.0348,3.0394,3.0447,3.0479,3.052,3.054,3.0568,3.0604,3.061,3.0645,3.068,3.0695,3.0697,3.0393,2.9371,2.8169,2.7363,2.6578,2.5885,2.5796,2.5689,2.5696,2.57,2.5702,2.5703,2.5701,2.5697,2.5689,2.5696,2.5684,2.5668,2.5624,2.5605,2.5609,2.5613,2.5601,2.5589,2.5525,2.5517,2.5503,2.5492,2.5464,2.544,2.5415,2.5397,2.536,2.5313,2.5293,2.5302,2.5302,2.5283,2.5283,2.5283,2.5292,2.5262,2.5212,2.522,2.5206,2.5203,2.518,2.5137,2.5113,2.5088,2.5063,2.5044,2.5018,2.4991,2.4991,2.4991,2.5023,2.505,2.5089,2.5113,2.5141,2.5198,2.5222,2.5284,2.5119,2.4797,2.4173,2.3579,2.2753,2.1737,2.1055,2.0633,2.0491,2.0519,2.0511,2.0506,2.0776,2.114,2.1312,2.1575,2.1697,3.3196,3.3393,3.3549,3.3605,3.3615,3.3834,3.3947,3.4005,3.4037,3.3351,3.2159,3.1412,3.0748,3.0173,3.006,3.0102,3.0109,3.018,3.0234,3.0273,3.0304,3.0383,3.0447,3.0479,3.051,3.0588,3.0597,3.0595,3.0629,3.0665,3.0688,3.071,3.0704,3.0704,3.0625,2.9893,2.9026,2.8193,2.7358,2.6507,2.603,2.5806,2.5696,2.5701,2.5703,2.5703,2.5699,2.5694,2.5705,2.5693,2.5701,2.5664,2.5615,2.561,2.5615,2.5607,2.5601,2.557,2.5518,2.5515,2.5519,2.5511,2.5484,2.5468,2.5423,2.5387,2.5388,2.5313,2.5303,2.5303,2.5303,2.5303,2.5303,2.5293,2.5302,2.5292,2.5241,2.5209,2.5206,2.518,2.5125,2.5082,2.5069,2.5044,2.5019,2.4999,2.5004,2.4991,2.4991,2.501,2.5023,2.5063,2.5082,2.512,2.516,2.5179,2.5233,2.5303,2.5254,2.499,2.4509,2.3823,2.2921,2.1956,2.1332,2.0886,2.0686,2.0546,2.0853,2.1218,2.1389,2.1655,2.1784,2.183,2.1891,3.3226,3.3393,3.3549,3.3661,3.3753,3.3895,3.3972,3.3931,3.3608,3.2729,3.1562,3.1072,3.0615,3.0132,3.0038,3.0132,3.0171,3.024,3.0292,3.0292,3.034,3.0417,3.0479,3.051,3.055,3.0597,3.0615,3.064,3.0692,3.0707,3.071,3.0711,3.0736,3.0753,3.0545,2.9995,2.9264,2.8848,2.7826,2.6824,2.6522,2.6042,2.5698,2.5703,2.5703,2.5702,2.5697,2.5689,2.5701,2.569,2.5697,2.566,2.5615,2.561,2.5615,2.5607,2.5601,2.557,2.5538,2.5522,2.5511,2.5511,2.5503,2.5468,2.5415,2.5395,2.536,2.5322,2.5303,2.5303,2.5303,2.5303,2.5303,2.5303,2.5283,2.5262,2.5231,2.5209,2.5195,2.5149,2.5082,2.5057,2.5032,2.5025,2.4999,2.4985,2.4991,2.4991,2.4991,2.501,2.5023,2.5063,2.5082,2.5132,2.516,2.5198,2.5241,2.5293,2.5351,2.5307,2.4741,2.4121,2.3508,2.2738,2.192,2.1153,2.1137,2.1216,2.1724,2.2068,2.2252,2.234,2.2445,2.2237,2.1888,3.3256,3.3444,3.3239,3.3277,3.3493,3.3836,3.3919,3.3592,3.2791,3.182,3.1092,3.075,3.0421,3.0086,3.0083,3.0142,3.0213,3.0312,3.0349,3.0348,3.0406,3.0469,3.053,3.053,3.0559,3.0595,3.0621,3.0665,3.0688,3.071,3.0711,3.0736,3.0773,3.0789,3.0624,3.0263,2.978,2.9242,2.82,2.7315,2.6839,2.626,2.57,2.5703,2.5703,2.5701,2.5693,2.5705,2.5696,2.5707,2.5694,2.5656,2.5619,2.5605,2.5615,2.5613,2.5589,2.5557,2.5531,2.5515,2.5511,2.5456,2.5476,2.544,2.5415,2.5369,2.5361,2.5332,2.5293,2.5293,2.5293,2.5293,2.5284,2.5293,2.5253,2.5233,2.5231,2.5217,2.5184,2.5137,2.5082,2.5044,2.5025,2.5018,2.4991,2.4996,2.4996,2.4996,2.4977,2.4991,2.5023,2.5063,2.5082,2.5132,2.516,2.5198,2.5241,2.5292,2.5361,2.5432,2.5143,2.4561,2.4045,2.352,2.2702,2.2056,2.185,2.1986,2.2549,2.2932,2.3154,2.3201,2.3146,2.28,2.2356,3.3207,3.3395,3.2666,3.2491,3.279,3.337,3.3443,3.2963,3.1594,3.096,3.0883,3.0215,3.0032,3.0106,3.0157,3.0199,3.0221,3.0343,3.0386,3.0433,3.0458,3.053,3.0579,3.0598,3.0595,3.0621,3.0645,3.0668,3.0697,3.0717,3.0736,3.0778,3.0789,3.0804,3.0735,3.0607,3.026,2.9643,2.8658,2.785,2.7253,2.6225,2.58,2.5703,2.5702,2.5697,2.5689,2.5698,2.5687,2.5697,2.5703,2.5648,2.5615,2.561,2.5609,2.5582,2.5557,2.5525,2.5511,2.5515,2.5464,2.5429,2.5401,2.5393,2.5378,2.5341,2.5313,2.5302,2.5273,2.5292,2.5311,2.5283,2.5274,2.5253,2.5233,2.5212,2.522,2.5187,2.5184,2.5137,2.5113,2.5063,2.5025,2.4985,2.4996,2.4996,2.4977,2.4977,2.4977,2.4945,2.4991,2.5044,2.5082,2.5139,2.518,2.5209,2.5252,2.5312,2.5388,2.5418,2.5185,2.5001,2.4523,2.3978,2.3401,2.2975,2.2823,2.3022,2.3452,2.3793,2.4132,2.3864,2.3771,2.3482,2.3018,3.1719,3.1873,3.1707,3.1744,3.1869,3.1723,3.1539,3.1341,3.0976,3.0678,3.0129,2.9969,2.9991,3.0102,3.0176,3.0232,3.0279,3.0343,3.039,3.0447,3.0519,3.0559,3.0588,3.0615,3.0629,3.0661,3.0683,3.0704,3.0724,3.0722,3.0759,3.0794,3.0784,3.0793,3.0786,3.0798,3.0586,3.0066,2.8998,2.8247,2.7474,2.6424,2.5977,2.5702,2.5698,2.5693,2.5703,2.5696,2.5704,2.5694,2.5656,2.5624,2.561,2.5595,2.5599,2.5601,2.5557,2.5511,2.5505,2.5515,2.5484,2.5421,2.5385,2.5369,2.5341,2.5313,2.5264,2.5262,2.5241,2.5261,2.5261,2.5252,2.5243,2.5233,2.5212,2.522,2.5198,2.5206,2.5191,2.5125,2.5101,2.5063,2.5012,2.5004,2.4977,2.4964,2.4964,2.4964,2.4945,2.4931,2.4972,2.5044,2.5082,2.5139,2.5191,2.522,2.5262,2.5313,2.5387,2.5472,2.5406,2.5201,2.4897,2.4469,2.3955,2.3854,2.3874,2.4109,2.4287,2.4846,2.5147,2.4722,2.4337,2.4028,2.3562,3.1102,3.118,3.0929,3.0742,3.0604,3.0341,3.0259,3.0279,3.0415,3.0188,2.988,2.9959,3.0038,3.0147,3.0218,3.0266,3.0349,3.0402,3.0447,3.05,3.055,3.0606,3.0623,3.0637,3.0649,3.0697,3.0711,3.073,3.0748,3.0764,3.0799,3.0789,3.0798,3.0786,3.0798,3.0807,3.0813,3.0194,2.9381,2.8546,2.7634,2.666,2.5956,2.5698,2.5694,2.5707,2.5698,2.569,2.5697,2.5687,2.5632,2.56,2.5605,2.5609,2.5613,2.5595,2.5531,2.5518,2.5505,2.5468,2.5437,2.5423,2.5416,2.5313,2.5284,2.5253,2.5233,2.5212,2.522,2.522,2.5201,2.5201,2.5212,2.5212,2.5209,2.5217,2.5206,2.5203,2.5168,2.5113,2.5076,2.5038,2.5012,2.5004,2.4977,2.4964,2.4964,2.4964,2.4945,2.4931,2.4972,2.5076,2.5101,2.512,2.5184,2.5261,2.5312,2.5361,2.5432,2.5488,2.5536,2.5486,2.524,2.4921,2.4544,2.4554,2.4662,2.4826,2.5083,2.5522,2.5687,2.5322,2.4859,2.4473,2.3929,3.0866,3.0907,3.0307,2.9779,2.9277,2.9487,2.9606,2.9626,2.9812,2.9842,2.9929,3.0041,3.0132,3.019,3.0259,3.0324,3.0398,3.0455,3.0519,3.0578,3.0586,3.0632,3.0673,3.0703,3.0704,3.0698,3.0716,3.0748,3.0784,3.0799,3.0789,3.0802,3.0786,3.0794,3.0788,3.0813,3.0821,3.0595,2.9544,2.8512,2.7871,2.6816,2.5702,2.5694,2.5689,2.5703,2.569,2.5697,2.5691,2.5679,2.5648,2.56,2.5595,2.5599,2.5607,2.5589,2.5531,2.5511,2.5587,2.5646,2.5663,2.5628,2.5515,2.5754,2.5924,2.5376,2.5239,2.5217,2.5206,2.5206,2.5206,2.5217,2.5198,2.5198,2.5195,2.5184,2.5172,2.5149,2.5144,2.5088,2.5063,2.5025,2.5012,2.4985,2.5004,2.4945,2.4977,2.4991,2.4977,2.4945,2.4985,2.5101,2.5126,2.5156,2.5217,2.5292,2.5341,2.5406,2.5464,2.5522,2.5576,2.5596,2.5601,2.5296,2.5005,2.5249,2.5415,2.542,2.5403,2.557,2.5697,2.5707,2.5381,2.4976,2.4452,2.935,2.9454,2.943,2.9348,2.9291,2.9433,2.9569,2.9664,2.9755,2.9859,2.9907,3.0038,3.0147,3.0218,3.0286,3.0349,3.0421,3.0477,3.053,3.0578,3.0604,3.0645,3.0683,3.0704,3.0724,3.0767,3.0778,3.0764,3.0779,3.0789,3.0798,3.0786,3.0794,3.0788,3.0813,3.0838,3.0849,3.0814,2.9861,2.8807,2.8105,2.6815,2.5698,2.5691,2.5703,2.5693,2.5704,2.5694,2.5664,2.5613,2.5619,2.56,2.5613,2.5607,2.5595,2.5602,2.5544,2.5556,2.5739,2.5998,2.6225,2.6526,2.6687,2.6998,2.6792,2.5803,2.5302,2.531,2.5317,2.5337,2.5356,2.5356,2.5356,2.5325,2.5313,2.5282,2.5251,2.5246,2.5241,2.5139,2.5114,2.5063,2.505,2.4993,2.4999,2.4999,2.5044,2.5057,2.5044,2.5044,2.5025,2.5126,2.5163,2.5222,2.525,2.5322,2.5379,2.5432,2.5495,2.555,2.5596,2.5609,2.5607,2.5601,2.5549,2.5613,2.5604,2.5581,2.56,2.5671,2.5707,2.5697,2.5762,2.5476,2.4988,2.8881,2.8952,2.9175,2.9267,2.9314,2.9453,2.9589,2.9701,2.9754,2.9876,2.9972,3.0068,3.0161,3.0245,3.0299,3.0355,3.0425,3.0479,3.054,3.0586,3.0621,3.0661,3.069,3.0698,3.0742,3.0778,3.0789,3.0799,3.0789,3.0798,3.0782,3.0794,3.0791,3.0794,3.0816,3.0864,3.0911,3.0874,3.0038,2.9219,2.8359,2.7087,2.6026,2.592,2.5698,2.5707,2.5678,2.5687,2.5636,2.5604,2.561,2.5604,2.5601,2.5609,2.5583,2.5544,2.5563,2.5669,2.6025,2.6455,2.6872,2.7246,2.7443,2.7608,2.7496,2.6668,2.6618,2.6606,2.6562,2.6581,2.6568,2.6568,2.6575,2.6562,2.6549,2.6549,2.6517,2.6536,2.6205,2.576,2.5652,2.5443,2.5316,2.4993,2.5012,2.5057,2.507,2.5101,2.5101,2.5107,2.512,2.5132,2.518,2.5225,2.5271,2.5341,2.5406,2.5464,2.5517,2.557,2.5615,2.5601,2.5607,2.5613,2.5613,2.5607,2.5604,2.5595,2.5605,2.5619,2.5656,2.5691,2.5811,2.6006,2.5905,2.897,2.9062,2.9218,2.9307,2.9334,2.9472,2.9608,2.9717,2.9808,2.9926,3.0087,3.0117,3.0204,3.0272,3.0305,3.039,3.0477,3.0519,3.0559,3.0613,3.0673,3.0683,3.0691,3.0697,3.0753,3.0769,3.0799,3.0789,3.0798,3.0786,3.0798,3.0791,3.0796,3.0796,3.0821,3.0866,3.0912,3.0759,3.0175,2.9413,2.8474,2.7493,2.6568,2.5993,2.5693,2.5704,2.5671,2.5656,2.5609,2.561,2.5615,2.5607,2.5589,2.5577,2.5538,2.5543,2.5766,2.6091,2.6522,2.6998,2.7449,2.7811,2.7958,2.8076,2.8045,2.8001,2.795,2.7879,2.7815,2.7554,2.754,2.7527,2.7532,2.7518,2.7537,2.7523,2.7523,2.7523,2.7034,2.6455,2.617,2.5923,2.5582,2.5221,2.5057,2.5101,2.5095,2.5114,2.5126,2.5144,2.5149,2.5172,2.5206,2.5261,2.5302,2.5351,2.5412,2.5488,2.5538,2.5589,2.5613,2.5599,2.5604,2.5604,2.5604,2.5604,2.5604,2.5615,2.56,2.5649,2.5624,2.5738,2.6201,2.6455,2.6952,2.9085,2.924,2.9289,2.9353,2.9472,2.9589,2.9719,2.979,2.9857,2.9956,3.0087,3.0176,3.0245,3.0312,3.0311,3.0383,3.0499,3.055,3.0577,3.0621,3.0668,3.0685,3.071,3.0728,3.0784,3.0799,3.0789,3.0798,3.079,3.0801,3.0788,3.0794,3.0799,3.0821,3.0886,3.0911,3.0895,3.078,3.0664,3.0056,2.9079,2.798,2.6644,2.6069,2.569,2.5697,2.5683,2.5632,2.5619,2.5605,2.5599,2.5589,2.5577,2.5583,2.5575,2.5797,2.6044,2.6532,2.7026,2.7836,2.8409,2.8744,2.9015,2.943,2.941,2.9374,2.9265,2.9112,2.8817,2.8022,2.7856,2.7842,2.7847,2.7832,2.7832,2.7785,2.777,2.777,2.758,2.7144,2.6797,2.6455,2.607,2.5659,2.5184,2.5208,2.5156,2.5156,2.5168,2.5172,2.5176,2.5198,2.525,2.5312,2.538,2.5378,2.5437,2.551,2.5551,2.5582,2.5604,2.5595,2.56,2.56,2.56,2.5595,2.56,2.5595,2.5736,2.5766,2.5658,2.5784,2.6364,2.7002,2.7576]}]]